[[{"header":{"parameterUnit":"m.s-1","parameterCategory":1,"la1":31.0,"la2":29.5877,"lo1":-88.7671,"lo2":-86.6584,"dy":0.0162,"dx":0.0185,"nx":115,"ny":88,"refTime":"2024-07-06T06:00:00:Z","depth":0,"parameterNumber":2,"parameterNumberName":"U-component_of_WINDS"},"data":[0.0,0.0,0.0,0.0,0.0,0.0,0.0,0.0,0.0,0.0,0.0,0.0,0.0,0.0,0.0,0.0,0.0,0.0,0.0,0.0,0.0,0.0,0.0,0.0,0.0,0.0,0.0,0.0,0.0,0.0,0.0,0.0,0.0,0.0,0.0,0.0,0.0,0.0,0.0,0.0,0.0,0.0,0.0,0.0,0.0,0.0,0.0,0.0,0.0,0.0,0.0,0.0,0.0,0.0,0.0,0.0,0.0,0.0,0.0,0.0,0.0,0.0,0.0,0.0,0.0,0.0,0.0,0.0,0.0,0.0,0.0,0.0,0.0,0.0,0.0,0.0,0.0,0.0,0.0,0.0,0.0,0.0,0.0,0.0,0.0,0.0,0.0,0.0,0.0,0.0,0.0,0.0,0.0,0.0,0.0,0.0,0.0,0.0,0.0,0.0,0.0,0.0,0.0,0.0,0.0,0.0,0.0,0.0,0.0,0.0,0.0,0.0,0.0,0.0,0.0,0.0,0.0,0.0,0.0,0.0,0.0,0.0,0.0,0.0,0.0,0.0,0.0,0.0,0.0,0.0,0.0,0.0,0.0,0.0,0.0,0.0,0.0,0.0,0.0,0.0,0.0,0.0,0.0,0.0,0.0,0.0,0.0,0.0,0.0,0.0,0.0,0.0,0.0,0.0,0.0,0.0,0.0,0.0,0.0,0.0,0.0,0.0,0.0,0.0,0.0,0.0,0.0,0.0,0.0,0.0,0.0,0.0,0.0,0.0,0.0,0.0,0.0,0.0,0.0,0.0,0.0,0.0,0.0,0.0,0.0,0.0,0.0,0.0,0.0,0.0,0.0,0.0,0.0,0.0,0.0,0.0,0.0,0.0,0.0,0.0,0.0,0.0,0.0,0.0,0.0,0.0,0.0,0.0,0.0,0.0,0.0,0.0,0.0,0.0,0.0,0.0,0.0,0.0,0.0,0.0,0.0,0.0,0.0,0.0,0.0,0.0,0.0,0.0,0.0,0.0,0.0,0.0,0.0,0.0,0.0,0.0,0.0,0.0,0.0,0.0,0.0,0.0,0.0,0.0,0.0,0.0,0.0,0.0,0.0,0.0,0.0,0.0,0.0,0.0,0.0,0.0,0.0,0.0,0.0,0.0,0.0,0.0,0.0,0.0,0.0,0.0,0.0,0.0,0.0,0.0,0.0,0.0,0.0,0.0,0.0,0.0,0.0,0.0,0.0,0.0,0.0,0.0,0.0,0.0,0.0,0.0,0.0,0.0,0.0,0.0,0.0,0.0,0.0,0.0,0.0,0.0,0.0,0.0,0.0,0.0,0.0,0.0,0.0,0.0,0.0,0.0,0.0,0.0,0.0,0.0,0.0,0.0,0.0,0.0,0.0,0.0,0.0,0.0,0.0,0.0,0.0,0.0,0.0,0.0,0.0,0.0,0.0,0.0,0.0,0.0,0.0,0.0,0.0,0.0,0.0,0.0,0.0,0.0,0.0,0.0,0.0,0.0,0.0,0.0,0.0,0.0,0.0,0.0,0.0,0.0,0.0,0.0,0.0,0.0,0.0,0.0,0.0,0.0,0.0,0.0,0.0,0.0,0.0,0.0,0.0,0.0,0.0,0.0,0.0,0.0,0.0,0.0,0.0,0.0,0.0,0.0,0.0,0.0,0.0,0.0,0.0,0.0,0.0,0.0,0.0,0.0,0.0,0.0,0.0,0.0,0.0,0.0,0.0,0.0,0.0,0.0,0.0,0.0,0.0,0.0,0.0,0.0,0.0,0.0,0.0,0.0,0.0,0.0,0.0,0.0,0.0,0.0,0.0,0.0,0.0,0.0,0.0,0.0,0.0,0.0,0.0,0.0,0.0,0.0,0.0,0.0,0.0,0.0,0.0,0.0,0.0,0.0,0.0,0.0,0.0,0.0,0.0,0.0,0.0,0.0,0.0,0.0,0.0,0.0,0.0,0.0,0.0,0.0,0.0,0.0,0.0,0.0,0.0,0.0,0.0,0.0,0.0,0.0,0.0,0.0,0.0,0.0,0.0,0.0,0.0,0.0,0.0,0.0,0.0,0.0,0.0,0.0,0.0,0.0,0.0,0.0,0.0,0.0,0.0,0.0,0.0,0.0,0.0,0.0,0.0,0.0,0.0,0.0,0.0,0.0,0.0,0.0,0.0,0.0,0.0,0.0,0.0,0.0,0.0,0.0,0.0,0.0,0.0,0.0,0.0,0.0,0.0,0.0,0.0,0.0,0.0,0.0,0.0,0.0,0.0,0.0,0.0,0.0,0.0,0.0,0.0,0.0,0.0,0.0,0.0,0.0,0.0,0.0,0.0,0.0,0.0,0.0,0.0,0.0,0.0,0.0,0.0,0.0,0.0,0.0,0.0,0.0,0.0,0.0,0.0,0.0,0.0,0.0,0.0,0.0,0.0,0.0,0.0,0.0,0.0,0.0,0.0,0.0,0.0,0.0,0.0,0.0,0.0,0.0,0.0,0.0,0.0,0.0,0.0,0.0,0.0,0.0,0.0,0.0,0.0,0.0,0.0,0.0,0.0,0.0,0.0,0.0,0.0,0.0,0.0,0.0,0.0,0.0,0.0,0.0,0.0,0.0,0.0,0.0,0.0,0.0,0.0,0.0,0.0,0.0,0.0,0.0,0.0,0.0,0.0,0.0,0.0,0.0,0.0,0.0,0.0,0.0,0.0,0.0,0.0,0.0,0.0,0.0,0.0,0.0,0.0,0.0,0.0,0.0,0.0,0.0,0.0,0.0,0.0,0.0,0.0,0.0,0.0,0.0,0.0,0.0,0.0,0.0,0.0,0.0,0.0,0.0,0.0,0.0,0.0,0.0,0.0,0.0,0.0,0.0,0.0,0.0,0.0,0.0,0.0,0.0,0.0,0.0,0.0,0.0,0.0,0.0,0.0,0.0,0.0,0.0,0.0,0.0,0.0,0.0,0.0,0.0,0.0,0.0,0.0,0.0,0.0,0.0,0.0,0.0,0.0,0.0,0.0,0.0,0.0,0.0,0.0,0.0,0.0,0.0,0.0,0.0,0.0,0.0,0.0,0.0,0.0,0.0,0.0,0.0,0.0,0.0,0.0,0.0,0.0,0.0,0.0,0.0,0.0,0.0,0.0,0.0,0.0,0.0,0.0,0.0,0.0,0.0,0.0,0.0,0.0,0.0,0.0,0.0,0.0,0.0,0.0,0.0,0.0,0.0,0.0,0.0,0.0,0.0,0.0,0.0,0.0,0.0,0.0,0.0,0.0,0.0,0.0,0.0,0.0,0.0,0.0,0.0,0.0,0.0,0.0,0.0,0.0,0.0,0.0,0.0,0.0,0.0,0.0,0.0,0.0,0.0,0.0,0.0,0.0,0.0,0.0,0.0,0.0,0.0,0.0,0.0,0.0,0.0,0.0,0.0,0.0,0.0,0.0,0.0,0.0,0.0,0.0,0.0,0.0,0.0,0.0,0.0,0.0,0.0,0.0,0.0,0.0,0.0,0.0,0.0,0.0,0.0,0.0,0.0,0.0,0.0,0.0,0.0,0.0,0.0,0.0,0.0,0.0,0.0,0.0,0.0,0.0,0.0,0.0,0.0,0.0,0.0,0.0,0.0,0.0,0.0,0.0,0.0,0.0,0.0,0.0,0.0,0.0,0.0,0.0,0.0,0.0,0.0,0.0,0.0,0.0,0.0,0.0,0.0,0.0,0.0,0.0,0.0,0.0,0.0,0.0,0.0,0.0,0.0,0.0,0.0,0.0,0.0,0.0,0.0,0.0,0.0,0.0,0.0,0.0,0.0,0.0,0.0,0.0,0.0,0.0,0.0,0.0,0.0,0.0,0.0,0.0,0.0,0.0,0.0,0.0,0.0,0.0,0.0,0.0,0.0,0.0,0.0,0.0,0.0,0.0,0.0,0.0,0.0,0.0,0.0,0.0,0.0,0.0,0.0,0.0,0.0,0.0,0.0,0.0,0.0,0.0,0.0,0.0,0.0,0.0,0.0,0.0,0.0,0.0,0.0,0.0,0.0,0.0,0.0,0.0,0.0,0.0,0.0,0.0,0.0,0.0,0.0,0.0,0.0,0.0,0.0,0.0,0.0,0.0,0.0,0.0,0.0,0.0,0.0,0.0,0.0,0.0,0.0,0.0,0.0,0.0,0.0,0.0,0.0,0.0,0.0,0.0,0.0,0.0,0.0,0.0,0.0,0.0,0.0,0.0,0.0,0.0,0.0,0.0,0.0,0.0,0.0,0.0,0.0,-2.7511,0.0,0.0,0.0,0.0,0.0,0.0,0.0,0.0,0.0,0.0,0.0,0.0,0.0,0.0,0.0,0.0,0.0,0.0,0.0,0.0,0.0,0.0,0.0,0.0,0.0,0.0,0.0,0.0,0.0,0.0,0.0,0.0,0.0,0.0,0.0,0.0,0.0,0.0,0.0,0.0,0.0,0.0,0.0,0.0,0.0,0.0,0.0,0.0,0.0,0.0,0.0,0.0,0.0,0.0,0.0,0.0,0.0,0.0,0.0,0.0,0.0,0.0,0.0,0.0,0.0,0.0,0.0,0.0,0.0,0.0,0.0,0.0,0.0,0.0,0.0,0.0,0.0,0.0,0.0,0.0,0.0,0.0,0.0,0.0,0.0,0.0,0.0,0.0,0.0,0.0,0.0,0.0,0.0,0.0,0.0,0.0,0.0,0.0,0.0,0.0,0.0,0.0,0.0,0.0,0.0,0.0,0.0,0.0,0.0,0.0,-3.0501,-2.9909,-3.0422,-2.9842,-2.7995,0.0,0.0,0.0,0.0,0.0,0.0,0.0,0.0,0.0,0.0,0.0,0.0,0.0,0.0,0.0,0.0,0.0,0.0,0.0,0.0,0.0,0.0,0.0,0.0,0.0,0.0,0.0,0.0,0.0,0.0,0.0,0.0,0.0,0.0,0.0,0.0,0.0,0.0,0.0,0.0,0.0,0.0,0.0,0.0,0.0,0.0,0.0,0.0,0.0,0.0,0.0,0.0,0.0,0.0,0.0,0.0,0.0,0.0,0.0,0.0,0.0,0.0,0.0,0.0,0.0,0.0,0.0,0.0,0.0,0.0,0.0,0.0,0.0,0.0,0.0,0.0,0.0,0.0,0.0,0.0,0.0,0.0,0.0,0.0,0.0,0.0,0.0,0.0,0.0,0.0,0.0,0.0,0.0,0.0,0.0,0.0,0.0,0.0,0.0,0.0,0.0,0.0,0.0,0.0,0.0,0.0,0.0,0.0,0.0,0.0,0.0,0.0,-3.1319,-3.0646,-2.9016,0.0,0.0,0.0,0.0,0.0,0.0,0.0,0.0,0.0,0.0,0.0,0.0,0.0,0.0,0.0,0.0,0.0,0.0,0.0,0.0,0.0,0.0,0.0,0.0,0.0,0.0,0.0,0.0,0.0,0.0,0.0,0.0,0.0,0.0,0.0,0.0,0.0,0.0,0.0,0.0,0.0,0.0,0.0,0.0,0.0,0.0,0.0,0.0,0.0,0.0,0.0,0.0,0.0,0.0,0.0,0.0,0.0,0.0,0.0,0.0,0.0,0.0,0.0,0.0,0.0,0.0,0.0,0.0,0.0,0.0,0.0,0.0,0.0,0.0,0.0,0.0,0.0,0.0,0.0,0.0,0.0,0.0,0.0,0.0,0.0,0.0,0.0,0.0,0.0,0.0,0.0,0.0,0.0,0.0,0.0,0.0,0.0,0.0,0.0,0.0,0.0,0.0,0.0,0.0,0.0,0.0,0.0,0.0,0.0,0.0,-3.2064,-3.3767,-3.3451,0.0,-3.0749,0.0,0.0,0.0,0.0,0.0,0.0,0.0,0.0,0.0,0.0,0.0,0.0,0.0,0.0,0.0,0.0,0.0,0.0,0.0,0.0,0.0,0.0,0.0,0.0,0.0,0.0,0.0,0.0,0.0,0.0,0.0,0.0,0.0,0.0,0.0,0.0,0.0,0.0,0.0,0.0,0.0,0.0,0.0,0.0,0.0,0.0,0.0,0.0,0.0,0.0,0.0,0.0,0.0,0.0,0.0,0.0,0.0,0.0,0.0,0.0,0.0,0.0,0.0,0.0,0.0,0.0,0.0,0.0,0.0,0.0,0.0,0.0,0.0,0.0,0.0,0.0,0.0,0.0,0.0,0.0,0.0,0.0,0.0,0.0,0.0,0.0,0.0,0.0,0.0,0.0,0.0,0.0,0.0,0.0,0.0,0.0,0.0,0.0,0.0,0.0,0.0,0.0,0.0,0.0,0.0,0.0,0.0,0.0,0.0,0.0,-3.2108,-3.4046,-3.3177,-3.1708,0.0,0.0,0.0,0.0,0.0,0.0,0.0,0.0,0.0,0.0,0.0,0.0,0.0,0.0,0.0,0.0,0.0,0.0,0.0,0.0,0.0,0.0,0.0,0.0,0.0,0.0,0.0,0.0,0.0,0.0,0.0,0.0,0.0,0.0,0.0,0.0,0.0,0.0,0.0,0.0,0.0,0.0,0.0,0.0,0.0,0.0,0.0,0.0,0.0,0.0,0.0,0.0,0.0,0.0,0.0,0.0,0.0,0.0,0.0,0.0,0.0,0.0,0.0,0.0,0.0,0.0,0.0,0.0,0.0,0.0,0.0,0.0,0.0,0.0,0.0,0.0,0.0,0.0,0.0,0.0,0.0,0.0,0.0,0.0,0.0,0.0,0.0,0.0,0.0,0.0,0.0,0.0,0.0,0.0,0.0,0.0,0.0,0.0,0.0,0.0,0.0,0.0,0.0,0.0,0.0,0.0,0.0,0.0,0.0,0.0,-3.2497,-3.3275,-3.5102,-3.3495,-3.1604,-2.9681,0.0,0.0,0.0,0.0,0.0,0.0,0.0,0.0,0.0,0.0,0.0,0.0,0.0,0.0,0.0,0.0,0.0,0.0,0.0,0.0,0.0,0.0,0.0,0.0,0.0,0.0,0.0,0.0,0.0,0.0,0.0,0.0,0.0,0.0,0.0,0.0,0.0,0.0,0.0,0.0,0.0,0.0,0.0,0.0,0.0,0.0,0.0,0.0,0.0,0.0,0.0,0.0,0.0,0.0,0.0,0.0,0.0,0.0,0.0,0.0,0.0,0.0,0.0,0.0,0.0,0.0,0.0,0.0,0.0,0.0,0.0,0.0,0.0,0.0,0.0,0.0,0.0,0.0,0.0,0.0,0.0,0.0,0.0,0.0,0.0,0.0,0.0,0.0,0.0,0.0,0.0,0.0,0.0,0.0,0.0,0.0,0.0,0.0,0.0,0.0,0.0,0.0,0.0,0.0,0.0,0.0,0.0,0.0,-3.7329,-3.6152,-3.6415,-3.8379,-3.5306,-3.302,0.0,0.0,0.0,0.0,0.0,0.0,0.0,0.0,0.0,0.0,0.0,0.0,0.0,0.0,0.0,0.0,0.0,0.0,0.0,0.0,0.0,0.0,0.0,0.0,0.0,0.0,0.0,0.0,0.0,0.0,0.0,0.0,0.0,0.0,0.0,0.0,0.0,0.0,0.0,0.0,0.0,0.0,0.0,0.0,0.0,0.0,0.0,0.0,0.0,0.0,0.0,0.0,0.0,0.0,0.0,0.0,0.0,0.0,0.0,0.0,0.0,0.0,0.0,0.0,0.0,0.0,0.0,0.0,0.0,0.0,0.0,0.0,0.0,0.0,0.0,0.0,0.0,0.0,0.0,0.0,0.0,0.0,0.0,0.0,0.0,0.0,0.0,0.0,0.0,0.0,0.0,0.0,0.0,0.0,0.0,0.0,0.0,0.0,0.0,0.0,0.0,0.0,0.0,0.0,0.0,0.0,0.0,0.0,0.0,-3.3895,-3.5984,-3.7468,-3.8247,-3.5968,-3.4318,0.0,0.0,0.0,0.0,0.0,0.0,0.0,0.0,0.0,0.0,0.0,0.0,0.0,0.0,0.0,0.0,0.0,0.0,0.0,0.0,0.0,0.0,0.0,0.0,0.0,0.0,0.0,0.0,0.0,0.0,0.0,0.0,0.0,0.0,0.0,0.0,0.0,0.0,0.0,0.0,0.0,0.0,0.0,0.0,0.0,0.0,0.0,0.0,0.0,0.0,0.0,0.0,0.0,0.0,0.0,0.0,0.0,0.0,0.0,0.0,0.0,0.0,0.0,0.0,0.0,0.0,0.0,0.0,0.0,0.0,0.0,0.0,0.0,0.0,0.0,0.0,0.0,0.0,0.0,0.0,0.0,0.0,0.0,0.0,0.0,0.0,0.0,0.0,0.0,0.0,0.0,0.0,0.0,0.0,0.0,0.0,0.0,0.0,0.0,0.0,0.0,0.0,0.0,0.0,0.0,0.0,0.0,0.0,0.0,-3.4278,0.0,-3.9566,-3.8952,-3.6878,-3.4908,0.0,0.0,0.0,0.0,0.0,0.0,0.0,0.0,0.0,0.0,0.0,0.0,0.0,0.0,0.0,0.0,0.0,0.0,0.0,0.0,0.0,0.0,0.0,0.0,0.0,0.0,0.0,0.0,0.0,0.0,0.0,0.0,0.0,0.0,0.0,0.0,0.0,0.0,0.0,0.0,0.0,0.0,0.0,0.0,0.0,0.0,0.0,0.0,0.0,0.0,0.0,0.0,0.0,0.0,0.0,0.0,0.0,0.0,0.0,0.0,0.0,0.0,0.0,0.0,0.0,0.0,0.0,0.0,0.0,0.0,0.0,0.0,0.0,0.0,0.0,0.0,0.0,0.0,0.0,0.0,0.0,0.0,0.0,0.0,0.0,0.0,0.0,0.0,0.0,0.0,0.0,0.0,0.0,0.0,0.0,0.0,0.0,0.0,0.0,0.0,0.0,0.0,0.0,0.0,0.0,0.0,0.0,0.0,-3.3765,-3.9358,-4.2204,-4.267,-4.0943,-3.8153,-3.4905,0.0,0.0,0.0,0.0,0.0,0.0,0.0,0.0,0.0,0.0,0.0,0.0,0.0,0.0,0.0,0.0,0.0,0.0,0.0,0.0,0.0,0.0,0.0,0.0,0.0,0.0,0.0,0.0,0.0,0.0,0.0,0.0,0.0,0.0,0.0,0.0,0.0,0.0,0.0,0.0,0.0,0.0,0.0,0.0,0.0,0.0,0.0,0.0,0.0,0.0,0.0,0.0,0.0,0.0,0.0,0.0,0.0,0.0,0.0,0.0,0.0,0.0,0.0,0.0,0.0,0.0,0.0,0.0,0.0,0.0,0.0,0.0,0.0,0.0,0.0,0.0,0.0,0.0,0.0,0.0,0.0,0.0,0.0,0.0,0.0,0.0,0.0,0.0,0.0,0.0,0.0,0.0,0.0,0.0,0.0,0.0,0.0,0.0,0.0,0.0,0.0,0.0,0.0,0.0,0.0,0.0,0.0,0.0,0.0,-3.7886,-4.1387,-4.3258,-4.3113,-3.9498,-3.704,0.0,0.0,0.0,0.0,0.0,0.0,0.0,0.0,0.0,0.0,0.0,0.0,0.0,0.0,0.0,0.0,0.0,0.0,0.0,0.0,0.0,0.0,0.0,0.0,0.0,0.0,0.0,0.0,0.0,0.0,0.0,0.0,0.0,0.0,0.0,0.0,0.0,0.0,0.0,0.0,0.0,0.0,0.0,0.0,0.0,0.0,0.0,0.0,0.0,0.0,0.0,0.0,0.0,0.0,0.0,0.0,0.0,0.0,0.0,0.0,0.0,0.0,0.0,0.0,0.0,0.0,0.0,0.0,0.0,0.0,0.0,0.0,0.0,0.0,0.0,0.0,0.0,0.0,0.0,0.0,0.0,0.0,0.0,0.0,0.0,0.0,0.0,0.0,0.0,0.0,0.0,0.0,0.0,0.0,0.0,0.0,0.0,0.0,0.0,0.0,0.0,0.0,0.0,0.0,0.0,0.0,0.0,0.0,0.0,-3.9859,-4.3008,-4.4702,-4.4667,-4.1019,-3.8523,-3.7348,0.0,0.0,0.0,0.0,0.0,0.0,0.0,0.0,0.0,0.0,0.0,0.0,0.0,0.0,0.0,0.0,0.0,0.0,0.0,0.0,0.0,0.0,0.0,0.0,0.0,0.0,0.0,0.0,0.0,0.0,0.0,0.0,0.0,0.0,0.0,0.0,0.0,0.0,0.0,0.0,0.0,0.0,0.0,0.0,0.0,0.0,0.0,0.0,0.0,0.0,0.0,0.0,0.0,0.0,0.0,0.0,0.0,0.0,0.0,0.0,0.0,0.0,0.0,0.0,0.0,0.0,0.0,0.0,0.0,0.0,0.0,0.0,0.0,0.0,0.0,0.0,0.0,0.0,0.0,0.0,0.0,0.0,0.0,0.0,0.0,0.0,0.0,0.0,0.0,0.0,0.0,0.0,0.0,0.0,0.0,0.0,0.0,0.0,0.0,0.0,0.0,0.0,0.0,0.0,0.0,0.0,0.0,0.0,-4.4286,-4.6535,-4.6963,-4.5471,-4.2572,-3.9465,0.0,0.0,0.0,0.0,0.0,0.0,0.0,0.0,0.0,0.0,0.0,0.0,0.0,0.0,0.0,0.0,0.0,0.0,0.0,0.0,0.0,0.0,0.0,0.0,0.0,0.0,0.0,0.0,0.0,0.0,0.0,0.0,0.0,0.0,0.0,0.0,0.0,0.0,0.0,0.0,0.0,0.0,0.0,0.0,0.0,0.0,0.0,0.0,0.0,0.0,0.0,0.0,0.0,0.0,0.0,0.0,0.0,0.0,0.0,0.0,0.0,0.0,0.0,0.0,0.0,0.0,0.0,0.0,0.0,0.0,0.0,0.0,0.0,0.0,0.0,0.0,0.0,0.0,0.0,0.0,0.0,0.0,0.0,0.0,0.0,0.0,0.0,0.0,0.0,0.0,0.0,0.0,0.0,0.0,0.0,0.0,0.0,0.0,0.0,0.0,0.0,0.0,0.0,0.0,0.0,0.0,0.0,0.0,0.0,-4.4256,-4.6665,-4.7721,-4.7225,-4.3548,-4.0598,0.0,0.0,0.0,0.0,0.0,0.0,0.0,0.0,0.0,0.0,0.0,0.0,0.0,0.0,0.0,0.0,0.0,0.0,0.0,0.0,0.0,0.0,0.0,0.0,0.0,0.0,0.0,0.0,0.0,0.0,0.0,0.0,0.0,0.0,0.0,0.0,0.0,0.0,0.0,0.0,0.0,0.0,0.0,0.0,0.0,0.0,0.0,0.0,0.0,0.0,0.0,0.0,0.0,0.0,0.0,0.0,0.0,0.0,0.0,0.0,0.0,0.0,0.0,0.0,0.0,0.0,0.0,0.0,0.0,0.0,0.0,0.0,0.0,0.0,0.0,0.0,0.0,0.0,0.0,0.0,0.0,0.0,0.0,0.0,0.0,0.0,0.0,0.0,0.0,0.0,0.0,0.0,0.0,0.0,0.0,0.0,0.0,0.0,0.0,0.0,0.0,0.0,0.0,0.0,0.0,0.0,0.0,0.0,-4.3072,-4.5793,-4.7258,-4.8001,-4.8001,-4.4928,-4.2068,0.0,0.0,0.0,0.0,0.0,0.0,0.0,0.0,0.0,0.0,0.0,0.0,0.0,0.0,0.0,0.0,0.0,0.0,0.0,0.0,0.0,0.0,0.0,0.0,0.0,0.0,0.0,0.0,0.0,0.0,0.0,0.0,0.0,0.0,0.0,0.0,0.0,0.0,0.0,0.0,0.0,0.0,0.0,0.0,0.0,0.0,0.0,0.0,0.0,0.0,0.0,0.0,0.0,0.0,0.0,0.0,0.0,0.0,0.0,0.0,0.0,0.0,0.0,0.0,0.0,0.0,0.0,0.0,0.0,0.0,0.0,0.0,0.0,0.0,0.0,0.0,0.0,0.0,0.0,0.0,0.0,0.0,0.0,0.0,0.0,0.0,0.0,0.0,0.0,0.0,0.0,0.0,0.0,0.0,0.0,0.0,0.0,0.0,0.0,0.0,0.0,0.0,0.0,0.0,0.0,0.0,0.0,0.0,-4.3802,-4.7785,-4.7968,-4.8001,-4.7968,-4.6305,-4.357,0.0,0.0,0.0,0.0,0.0,0.0,0.0,0.0,0.0,0.0,0.0,0.0,0.0,0.0,0.0,0.0,0.0,0.0,0.0,0.0,0.0,0.0,0.0,0.0,0.0,0.0,0.0,0.0,0.0,0.0,0.0,0.0,0.0,0.0,0.0,0.0,0.0,0.0,0.0,0.0,0.0,0.0,0.0,0.0,0.0,0.0,0.0,0.0,0.0,0.0,0.0,0.0,0.0,0.0,0.0,0.0,0.0,0.0,0.0,0.0,0.0,0.0,0.0,0.0,0.0,0.0,0.0,0.0,0.0,0.0,0.0,0.0,0.0,0.0,0.0,0.0,0.0,0.0,0.0,0.0,0.0,0.0,0.0,0.0,0.0,0.0,0.0,0.0,0.0,0.0,0.0,0.0,0.0,0.0,0.0,0.0,0.0,0.0,0.0,0.0,0.0,0.0,0.0,0.0,0.0,0.0,0.0,0.0,-4.4143,-4.7041,-4.7703,-4.8001,-4.7984,-4.6305,-4.3665,0.0,0.0,0.0,0.0,0.0,0.0,0.0,0.0,0.0,0.0,0.0,0.0,0.0,0.0,0.0,0.0,0.0,0.0,0.0,0.0,0.0,0.0,0.0,0.0,0.0,0.0,0.0,0.0,0.0,0.0,0.0,0.0,0.0,0.0,0.0,0.0,0.0,0.0,0.0,0.0,0.0,0.0,0.0,0.0,0.0,0.0,0.0,0.0,-3.6141,0.0,0.0,0.0,0.0,0.0,0.0,0.0,0.0,0.0,0.0,0.0,0.0,0.0,0.0,0.0,0.0,0.0,0.0,0.0,0.0,0.0,0.0,0.0,0.0,0.0,0.0,0.0,0.0,0.0,0.0,0.0,0.0,0.0,0.0,0.0,0.0,0.0,0.0,0.0,0.0,0.0,0.0,0.0,0.0,0.0,0.0,0.0,0.0,0.0,0.0,0.0,0.0,0.0,0.0,0.0,0.0,0.0,0.0,0.0,-4.5189,-4.7355,-4.7802,-4.8001,-4.7968,-4.711,-4.4477,0.0,0.0,0.0,0.0,0.0,0.0,0.0,0.0,0.0,0.0,0.0,0.0,0.0,0.0,0.0,0.0,0.0,0.0,0.0,0.0,0.0,0.0,0.0,0.0,0.0,0.0,0.0,0.0,0.0,0.0,0.0,0.0,0.0,0.0,0.0,0.0,0.0,0.0,0.0,0.0,0.0,0.0,0.0,0.0,0.0,0.0,0.0,0.0,0.0,0.0,0.0,0.0,0.0,0.0,0.0,0.0,0.0,0.0,0.0,0.0,0.0,0.0,0.0,0.0,0.0,0.0,0.0,0.0,0.0,0.0,0.0,0.0,0.0,0.0,0.0,0.0,0.0,0.0,0.0,0.0,0.0,0.0,0.0,0.0,0.0,0.0,0.0,0.0,0.0,0.0,0.0,0.0,0.0,0.0,0.0,0.0,0.0,0.0,0.0,0.0,0.0,0.0,0.0,0.0,0.0,0.0,0.0,-4.34,-4.5878,-4.7885,-4.8001,-4.8001,-4.8001,-4.7968,-4.5309,-3.977,0.0,0.0,0.0,0.0,0.0,0.0,0.0,0.0,0.0,0.0,0.0,0.0,0.0,0.0,0.0,0.0,0.0,0.0,0.0,0.0,0.0,0.0,0.0,0.0,0.0,0.0,0.0,0.0,0.0,0.0,0.0,0.0,0.0,0.0,0.0,0.0,0.0,0.0,-3.3984,-3.5662,0.0,0.0,0.0,0.0,0.0,0.0,0.0,0.0,-3.7531,0.0,0.0,0.0,0.0,0.0,0.0,0.0,0.0,0.0,0.0,0.0,0.0,0.0,0.0,0.0,0.0,0.0,0.0,0.0,0.0,0.0,0.0,0.0,0.0,0.0,0.0,0.0,0.0,0.0,0.0,0.0,0.0,0.0,0.0,0.0,0.0,0.0,0.0,0.0,0.0,0.0,0.0,0.0,0.0,0.0,0.0,0.0,0.0,0.0,0.0,0.0,0.0,0.0,0.0,0.0,0.0,-4.1245,-4.2085,-4.4286,-4.7901,-4.8001,-4.8001,-4.8001,-4.7853,-4.5163,-3.9849,0.0,0.0,0.0,0.0,0.0,0.0,0.0,0.0,0.0,0.0,0.0,0.0,0.0,0.0,0.0,0.0,0.0,0.0,0.0,0.0,0.0,0.0,0.0,0.0,0.0,0.0,0.0,0.0,0.0,0.0,0.0,0.0,0.0,0.0,0.0,0.0,0.0,0.0,0.0,-3.791,-3.8269,0.0,0.0,0.0,0.0,0.0,0.0,0.0,0.0,-3.8183,0.0,0.0,0.0,0.0,0.0,0.0,0.0,0.0,0.0,0.0,0.0,0.0,0.0,0.0,0.0,0.0,0.0,0.0,0.0,0.0,0.0,0.0,0.0,0.0,0.0,0.0,0.0,0.0,0.0,0.0,0.0,0.0,0.0,0.0,0.0,0.0,0.0,0.0,0.0,0.0,0.0,0.0,0.0,0.0,0.0,0.0,0.0,0.0,0.0,0.0,0.0,0.0,0.0,0.0,0.0,-4.0889,-4.3672,-4.6022,-4.7934,-4.8001,-4.7968,-4.7836,-4.6996,-4.4123,0.0,0.0,0.0,0.0,0.0,0.0,0.0,0.0,0.0,0.0,0.0,0.0,0.0,0.0,0.0,0.0,0.0,0.0,0.0,0.0,0.0,0.0,0.0,0.0,0.0,0.0,0.0,0.0,0.0,0.0,0.0,0.0,0.0,0.0,0.0,0.0,0.0,0.0,0.0,0.0,-3.938,-3.9929,-4.0928,0.0,0.0,0.0,0.0,0.0,0.0,-3.8922,-3.8537,0.0,0.0,0.0,0.0,0.0,0.0,0.0,0.0,0.0,0.0,0.0,0.0,0.0,0.0,0.0,0.0,0.0,0.0,0.0,0.0,0.0,0.0,0.0,0.0,0.0,0.0,0.0,0.0,0.0,0.0,0.0,0.0,0.0,0.0,0.0,0.0,0.0,0.0,0.0,0.0,0.0,0.0,0.0,0.0,0.0,0.0,0.0,0.0,0.0,0.0,0.0,0.0,0.0,0.0,0.0,-4.0458,-4.4863,-4.7456,-4.7886,-4.7935,-4.7853,-4.7621,-4.6094,-4.317,0.0,0.0,0.0,0.0,0.0,0.0,0.0,0.0,0.0,0.0,0.0,0.0,0.0,0.0,0.0,0.0,0.0,0.0,0.0,0.0,0.0,0.0,0.0,0.0,0.0,0.0,0.0,0.0,0.0,0.0,0.0,0.0,0.0,0.0,0.0,0.0,0.0,0.0,0.0,0.0,0.0,-4.1449,-4.1617,-4.1737,0.0,0.0,0.0,0.0,-4.024,-3.9828,0.0,0.0,0.0,0.0,0.0,0.0,0.0,0.0,0.0,0.0,0.0,0.0,0.0,0.0,0.0,0.0,0.0,0.0,0.0,0.0,0.0,0.0,0.0,0.0,0.0,0.0,0.0,0.0,0.0,0.0,0.0,0.0,0.0,0.0,0.0,0.0,0.0,0.0,0.0,0.0,0.0,0.0,0.0,0.0,0.0,0.0,0.0,0.0,0.0,0.0,0.0,0.0,0.0,0.0,0.0,0.0,-4.021,-4.3016,-4.5504,-4.7605,-4.7737,-4.7654,-4.7487,-4.5683,-4.2975,0.0,0.0,0.0,0.0,0.0,0.0,0.0,0.0,0.0,0.0,0.0,0.0,0.0,0.0,0.0,0.0,0.0,0.0,0.0,0.0,0.0,0.0,0.0,0.0,0.0,0.0,0.0,0.0,0.0,0.0,0.0,0.0,0.0,0.0,0.0,0.0,0.0,0.0,0.0,0.0,0.0,-4.2344,-4.2513,-4.2863,-4.3006,0.0,0.0,-4.2366,-4.3554,-4.3195,0.0,0.0,0.0,0.0,0.0,0.0,0.0,0.0,0.0,0.0,0.0,0.0,0.0,0.0,0.0,0.0,0.0,0.0,0.0,0.0,0.0,0.0,0.0,0.0,0.0,0.0,0.0,0.0,0.0,0.0,0.0,0.0,0.0,0.0,0.0,0.0,0.0,0.0,0.0,0.0,0.0,0.0,0.0,0.0,0.0,0.0,0.0,0.0,0.0,0.0,0.0,0.0,0.0,0.0,0.0,-3.837,-4.0,-4.3928,-4.6504,-4.7555,-4.7604,-4.7336,-4.6842,-4.4308,-4.1509,0.0,0.0,0.0,0.0,0.0,0.0,0.0,0.0,0.0,0.0,0.0,0.0,0.0,0.0,0.0,0.0,0.0,0.0,0.0,0.0,0.0,0.0,0.0,0.0,0.0,0.0,0.0,0.0,0.0,0.0,0.0,0.0,0.0,0.0,0.0,0.0,0.0,0.0,0.0,0.0,0.0,0.0,-4.3184,-4.3928,0.0,0.0,0.0,-4.3539,-4.3748,0.0,0.0,0.0,0.0,0.0,0.0,0.0,0.0,0.0,0.0,0.0,0.0,0.0,0.0,0.0,0.0,0.0,0.0,0.0,0.0,0.0,0.0,0.0,0.0,0.0,0.0,0.0,0.0,0.0,0.0,0.0,0.0,0.0,0.0,0.0,0.0,0.0,0.0,0.0,0.0,0.0,0.0,0.0,0.0,0.0,0.0,0.0,0.0,0.0,0.0,0.0,0.0,0.0,0.0,0.0,0.0,0.0,-3.9768,-4.461,-4.7256,-4.7436,-4.7285,-4.6892,-4.6218,-4.3203,0.0,0.0,0.0,0.0,0.0,0.0,0.0,0.0,0.0,0.0,0.0,0.0,0.0,0.0,0.0,0.0,0.0,0.0,0.0,0.0,0.0,0.0,0.0,0.0,0.0,0.0,0.0,-2.824,0.0,0.0,0.0,0.0,0.0,0.0,0.0,0.0,0.0,0.0,0.0,0.0,0.0,0.0,-4.363,-4.3669,-4.4614,-4.5409,0.0,0.0,-4.4511,-4.4407,-4.4616,-4.4481,0.0,0.0,0.0,0.0,0.0,0.0,0.0,0.0,0.0,0.0,0.0,0.0,0.0,0.0,0.0,0.0,0.0,0.0,0.0,0.0,0.0,0.0,0.0,0.0,0.0,0.0,0.0,0.0,0.0,0.0,0.0,0.0,0.0,0.0,0.0,0.0,0.0,0.0,0.0,0.0,0.0,0.0,0.0,0.0,0.0,0.0,0.0,0.0,0.0,0.0,0.0,0.0,0.0,0.0,-3.8419,-3.98,-4.3978,-4.6515,-4.7184,-4.6652,-4.6266,-4.6005,-4.2894,-4.0085,0.0,0.0,0.0,0.0,0.0,0.0,0.0,0.0,0.0,0.0,0.0,0.0,0.0,0.0,0.0,0.0,0.0,0.0,0.0,0.0,0.0,0.0,0.0,0.0,0.0,0.0,0.0,0.0,0.0,0.0,0.0,0.0,0.0,0.0,0.0,0.0,0.0,0.0,0.0,0.0,0.0,-4.3669,-4.3934,-4.475,-4.5822,0.0,-4.6194,-4.5648,-4.686,-4.6531,-4.6157,-4.601,0.0,0.0,0.0,0.0,0.0,0.0,0.0,0.0,0.0,0.0,0.0,0.0,0.0,0.0,0.0,0.0,0.0,0.0,0.0,0.0,0.0,0.0,0.0,0.0,0.0,0.0,0.0,0.0,0.0,0.0,0.0,0.0,0.0,0.0,0.0,0.0,0.0,0.0,0.0,0.0,0.0,0.0,0.0,0.0,0.0,0.0,0.0,0.0,0.0,0.0,0.0,0.0,0.0,-3.8302,-3.9292,-4.3394,-4.5607,-4.5877,-4.5697,-4.5295,-4.4699,-4.2212,-3.979,0.0,0.0,0.0,0.0,0.0,0.0,0.0,0.0,0.0,0.0,0.0,0.0,0.0,0.0,0.0,0.0,0.0,0.0,0.0,0.0,0.0,0.0,0.0,0.0,0.0,0.0,0.0,0.0,-3.2266,-3.3437,-3.46,0.0,0.0,0.0,0.0,0.0,0.0,0.0,0.0,0.0,0.0,-4.3931,-4.4856,-4.586,0.0,0.0,-4.6903,-4.6711,-4.7219,-4.7085,-4.6636,-4.5828,-4.505,0.0,0.0,0.0,0.0,0.0,0.0,0.0,0.0,0.0,0.0,0.0,0.0,0.0,0.0,0.0,0.0,0.0,0.0,0.0,0.0,0.0,0.0,0.0,0.0,0.0,0.0,0.0,0.0,0.0,0.0,0.0,0.0,0.0,0.0,0.0,0.0,0.0,0.0,0.0,0.0,0.0,0.0,0.0,0.0,0.0,0.0,0.0,0.0,0.0,0.0,0.0,0.0,-3.8034,-3.9021,-4.2803,-4.4923,-4.511,-4.4924,-4.451,-4.3881,-4.2025,-3.9921,0.0,0.0,0.0,0.0,0.0,0.0,0.0,0.0,0.0,0.0,0.0,0.0,0.0,0.0,0.0,0.0,0.0,0.0,0.0,0.0,0.0,0.0,0.0,0.0,0.0,0.0,0.0,0.0,-3.3382,-3.4594,-3.5913,0.0,0.0,0.0,0.0,0.0,0.0,0.0,0.0,0.0,0.0,-4.4579,-4.557,-4.6626,-4.7309,-4.7381,-4.7352,-4.7309,-4.7309,-4.7309,-4.6995,-4.6052,0.0,0.0,0.0,0.0,0.0,0.0,0.0,0.0,0.0,0.0,0.0,0.0,0.0,0.0,0.0,0.0,0.0,0.0,0.0,0.0,0.0,0.0,0.0,0.0,0.0,0.0,0.0,-3.0083,0.0,0.0,-2.8821,0.0,0.0,0.0,0.0,0.0,0.0,0.0,0.0,0.0,0.0,0.0,0.0,0.0,0.0,0.0,0.0,0.0,0.0,0.0,0.0,0.0,0.0,-3.7543,-3.9036,-4.2396,-4.445,-4.5042,-4.451,-4.4105,-4.3819,-4.2445,-4.0602,-3.8315,0.0,0.0,0.0,0.0,0.0,0.0,0.0,0.0,0.0,0.0,0.0,0.0,0.0,0.0,0.0,0.0,0.0,0.0,0.0,0.0,0.0,0.0,0.0,0.0,0.0,0.0,-3.304,-3.4653,-3.6196,0.0,0.0,0.0,0.0,0.0,0.0,0.0,0.0,0.0,-4.0955,-4.3603,-4.5619,-4.5884,-4.671,-4.7337,-4.7538,-4.7424,-4.7294,-4.7279,-4.7279,-4.7294,0.0,0.0,0.0,0.0,0.0,0.0,0.0,0.0,0.0,0.0,0.0,0.0,0.0,0.0,0.0,0.0,0.0,0.0,0.0,0.0,0.0,0.0,0.0,0.0,0.0,0.0,0.0,-3.1651,-3.1619,0.0,0.0,0.0,0.0,0.0,0.0,0.0,0.0,0.0,0.0,0.0,-3.7132,-3.7564,0.0,0.0,0.0,0.0,0.0,0.0,0.0,0.0,0.0,0.0,0.0,0.0,-3.7992,-3.9017,-4.1995,-4.3676,-4.3888,-4.3693,-4.3433,-4.3115,-4.2213,-4.0363,-3.7525,0.0,0.0,0.0,0.0,0.0,0.0,0.0,0.0,0.0,0.0,0.0,0.0,0.0,0.0,0.0,0.0,0.0,0.0,0.0,0.0,0.0,0.0,0.0,0.0,0.0,-3.4121,0.0,0.0,0.0,0.0,0.0,0.0,0.0,0.0,0.0,0.0,0.0,-4.2346,-4.3662,-4.4723,-4.5743,-4.6671,-4.7111,-4.7294,0.0,0.0,0.0,0.0,0.0,0.0,0.0,0.0,0.0,0.0,0.0,0.0,0.0,0.0,-4.0114,-3.8217,-3.701,-3.6214,-3.6085,0.0,0.0,0.0,0.0,0.0,0.0,0.0,0.0,0.0,0.0,0.0,0.0,0.0,0.0,-3.3938,0.0,-3.2763,0.0,0.0,0.0,0.0,0.0,0.0,0.0,0.0,-3.8237,-3.9361,-3.9928,-4.0343,-4.0292,0.0,-4.0076,-3.8259,0.0,0.0,0.0,0.0,0.0,0.0,0.0,0.0,-3.8235,-3.9003,-4.1805,-4.3305,-4.3305,-4.325,-4.305,-4.2714,-4.1894,-4.0324,-3.7835,-3.6582,-3.5168,0.0,0.0,0.0,0.0,0.0,0.0,0.0,0.0,0.0,0.0,0.0,0.0,0.0,0.0,0.0,0.0,0.0,0.0,0.0,0.0,0.0,0.0,0.0,-3.5237,0.0,0.0,0.0,0.0,0.0,0.0,0.0,0.0,0.0,-4.1186,-4.2473,-4.3943,-4.5454,-4.5858,-4.6307,-4.7189,0.0,0.0,0.0,0.0,0.0,0.0,0.0,-4.5329,-4.4855,-4.4822,-4.4492,-4.3632,-4.3745,-4.3413,-4.1941,0.0,0.0,-3.9677,-3.8504,-3.7748,-3.7717,-3.7703,-3.7611,-3.7505,-3.7134,-3.6807,0.0,0.0,0.0,0.0,0.0,0.0,0.0,0.0,-3.7067,-3.6743,0.0,-3.5382,0.0,0.0,0.0,0.0,0.0,-3.7601,0.0,0.0,-4.1753,-4.2545,-4.1901,-4.2603,-4.2368,-4.1221,-4.1463,-4.0617,-3.8816,-3.8318,0.0,0.0,0.0,0.0,0.0,0.0,-3.8279,-3.9062,-4.1835,-4.329,-4.329,-4.3115,-4.2915,-4.2673,-4.1668,-4.0495,-3.9276,-3.8457,-3.7086,-3.5082,-3.3896,0.0,0.0,0.0,0.0,0.0,0.0,0.0,0.0,0.0,0.0,0.0,0.0,0.0,0.0,0.0,0.0,0.0,0.0,0.0,0.0,-3.5213,0.0,0.0,0.0,0.0,0.0,0.0,0.0,0.0,0.0,0.0,-4.0989,-4.3377,-4.5514,-4.6187,0.0,0.0,0.0,0.0,-4.6292,-4.5454,-4.5458,-4.5526,-4.5308,-4.5221,-4.5098,-4.5098,0.0,0.0,-4.4064,-4.3701,-4.33,-4.2595,-4.1805,-4.0958,-3.9773,-3.9116,-3.8542,-3.809,-3.8076,-3.7905,-3.7648,-3.7501,-3.7215,-3.8552,0.0,0.0,0.0,0.0,-3.7066,-3.7603,-3.794,-3.7487,-3.7714,-3.8348,-3.6893,0.0,0.0,0.0,0.0,0.0,0.0,-3.9054,-3.9859,-4.092,-4.184,-4.2661,-4.3398,-4.3515,-4.3223,-4.4,-4.3803,-4.2696,-4.256,-4.0491,-3.6739,0.0,0.0,0.0,0.0,-3.9646,-4.0507,-4.2321,-4.3235,-4.3076,-4.3021,-4.2835,-4.25,-4.1587,-4.0699,-3.9871,-3.9629,-3.8669,-3.6934,-3.6264,0.0,0.0,0.0,0.0,0.0,0.0,0.0,0.0,0.0,0.0,0.0,0.0,0.0,0.0,0.0,0.0,0.0,0.0,0.0,-3.4658,-3.5805,-3.65,0.0,0.0,0.0,0.0,0.0,0.0,0.0,0.0,0.0,-4.2267,-4.361,-4.484,0.0,0.0,-4.5873,-4.5873,-4.6154,-4.6105,-4.537,-4.5268,0.0,-4.4734,-4.4226,-4.3936,-4.3921,-4.3576,-4.3171,-4.2783,-4.263,-4.2422,-4.1993,-4.1746,-4.128,-4.0445,-4.0072,-4.0011,-4.0184,-3.9876,-3.948,-3.9381,-3.9132,-3.8906,-4.1381,-3.9953,-3.9064,-3.8419,-3.8203,-3.9041,-3.9674,-4.0146,-4.0086,-4.0316,-4.0676,-3.9639,-3.9025,-3.875,-3.8417,0.0,0.0,0.0,-4.0956,-4.2286,-4.2486,-4.3194,-4.4254,-4.4807,-4.4908,-4.4675,-4.5401,-4.534,-4.4577,-4.4302,-4.2842,-4.0182,0.0,0.0,-3.8583,-4.0229,-4.1225,-4.1534,-4.2927,-4.3519,-4.313,-4.2955,-4.2688,-4.2284,-4.1782,-4.1137,-4.0419,-4.0456,-3.9834,-3.8425,-3.7611,-3.6589,0.0,0.0,0.0,0.0,0.0,0.0,0.0,0.0,0.0,0.0,0.0,-3.2626,-3.2463,0.0,0.0,0.0,-3.4835,-3.5778,-3.5865,-3.666,0.0,0.0,0.0,0.0,0.0,0.0,0.0,-4.0357,-4.1647,-4.2702,-4.3066,-4.3728,-4.4661,-4.5801,-4.5727,-4.5492,-4.5256,0.0,-4.5258,-4.4458,-4.4414,-4.4327,-4.3783,-4.3371,-4.3043,-4.2918,-4.2631,-4.2372,-4.2208,-4.2034,-4.1868,-4.1696,-4.1448,-4.1097,-4.0744,-4.0389,-4.03,-4.0707,-4.0542,-4.0236,-4.0134,-3.9981,-3.9839,-4.3616,-4.2863,-4.0699,-3.9762,-3.9914,-4.1106,-4.2134,-4.3036,-4.3616,-4.3616,-4.3152,-4.2896,-4.2119,-4.0951,-4.0773,0.0,-4.2651,-4.2695,-4.3748,-4.5678,-4.5361,-4.5493,-4.6004,-4.6344,-4.6138,-4.5534,-4.5896,-4.5715,-4.5092,-4.4466,-4.4106,-4.3931,-4.2802,-4.1492,-4.0237,-4.2021,-4.2709,-4.2144,-4.3479,-4.3917,-4.3339,-4.2879,-4.2474,-4.2133,-4.2092,-4.1664,-4.0838,-4.1027,-4.0617,-3.9513,-3.8239,-3.7077,-3.5989,0.0,0.0,0.0,0.0,0.0,0.0,0.0,0.0,0.0,0.0,0.0,0.0,0.0,0.0,-3.5347,-3.6346,0.0,-3.7429,-3.7692,0.0,0.0,0.0,-3.928,-3.987,-4.0884,-4.1651,-4.1937,0.0,0.0,-4.3465,-4.3778,-4.4704,-4.6537,-4.6211,-4.5634,-4.5035,-4.4633,-4.4029,-4.3247,-4.3294,-4.3264,-4.2823,-4.2639,-4.2466,-4.2207,-4.2079,-4.2039,-4.199,-4.1819,-4.1696,-4.1647,-4.106,-4.0555,-4.0795,-4.0236,-3.9788,-4.0019,-4.0249,-4.0338,-4.007,-4.0032,-3.9929,-4.3906,-4.3674,-4.2632,-4.191,-4.1621,-4.2851,-4.3226,-4.3021,-4.3166,-4.3674,-4.44,-4.3921,-4.3212,-4.2458,-4.2444,-4.2357,-4.2283,-4.2705,-4.3196,-4.3689,-4.4123,-4.4385,-4.4545,-4.5084,-4.5215,-4.5142,-4.6035,-4.6285,-4.5903,-4.5646,-4.4902,-4.38,-4.346,-4.2636,-4.141,-4.1849,-4.209,-4.2114,-4.2942,-4.3467,-4.3575,-4.2737,-4.2216,-4.2092,-4.2092,-4.172,-4.0838,-4.1283,-4.0845,-3.9353,-3.8944,-3.7856,-3.5857,-3.4069,0.0,0.0,0.0,0.0,0.0,0.0,0.0,0.0,0.0,-3.3855,-3.3424,0.0,-3.5434,0.0,-3.6225,-3.7046,-3.7702,-3.8351,0.0,0.0,-3.9621,-4.0241,-4.1018,-4.1598,-4.2088,-4.245,-4.2976,-4.348,-4.3926,-4.4117,-4.4261,-4.4583,-4.4371,-4.4114,-4.399,-4.4089,-4.3811,-4.2998,-4.3166,-4.3252,-4.2419,-4.2231,-4.2101,-4.1868,-4.1782,-4.1746,-4.1547,-4.1448,-4.1411,-4.1361,-4.0896,-4.0555,-4.0605,-4.0096,-3.9749,-3.98,-3.9839,-3.9903,-3.9788,-3.9788,-3.98,-4.4501,-4.3979,-4.3877,-4.3109,-4.2011,-4.3095,-4.35,-4.3442,-4.3442,-4.3674,-4.4037,-4.4008,-4.3935,-4.3863,-4.4139,-4.411,-4.3819,-4.4139,-4.4284,-4.4298,-4.4778,-4.4982,-4.5011,-4.5434,-4.5478,-4.5244,-4.5873,-4.5961,-4.5551,-4.5472,-4.4968,-4.416,-4.4145,-4.3643,-4.2655,-4.236,-4.2159,-4.1996,-4.2579,-4.3323,-4.403,-4.3153,-4.2409,-4.1953,-4.1664,-4.1052,-4.0122,-4.0435,-3.9991,-3.8725,-3.8376,-3.7373,-3.55,-3.4336,-3.3219,0.0,0.0,0.0,0.0,0.0,0.0,0.0,0.0,0.0,0.0,0.0,-3.6314,-3.6486,-3.7176,-3.7908,-3.8562,-3.8994,-3.9396,-3.9659,-4.0438,-4.1104,-4.1588,-4.2393,-4.2867,-4.2841,-4.3282,-4.3565,-4.3645,-4.3696,-4.3645,-4.3528,-4.3292,-4.3108,-4.2989,-4.3122,-4.2981,-4.2501,-4.2677,-4.2736,-4.2029,-4.1845,-4.171,-4.1547,-4.1511,-4.1461,-4.1311,-4.1311,-4.1261,-4.1147,-4.0808,-4.0453,-4.0338,-3.9993,-3.9697,-3.9697,-3.9697,-3.9697,-3.9697,-3.9697,-3.9697,-4.5242,-4.4298,-4.4719,-4.382,-4.2189,-4.2748,-4.3182,-4.3545,-4.353,-4.3341,-4.3008,-4.379,-4.4356,-4.4821,-4.5459,-4.5721,-4.5648,-4.5721,-4.5706,-4.5693,-4.5915,-4.6004,-4.5917,-4.6168,-4.5947,-4.5388,-4.5416,-4.5136,-4.4636,-4.4621,-4.4547,-4.44,-4.4459,-4.412,-4.3384,-4.2913,-4.2438,-4.1877,-4.2423,-4.3237,-4.4358,-4.3387,-4.2368,-4.1416,-4.0869,-4.0134,-3.923,-3.9173,-3.8736,-3.7813,-3.7359,-3.6452,-3.5089,-3.4571,-3.3999,0.0,-3.3357,0.0,0.0,0.0,0.0,0.0,0.0,0.0,0.0,-3.6805,-3.7238,-3.8025,-3.8585,-3.9126,-3.9644,-3.9641,-3.9897,-4.0522,-4.1175,-4.161,-4.1918,-4.2957,-4.3493,-4.3075,-4.3467,-4.3559,-4.3101,-4.3023,-4.3023,-4.2905,-4.2756,-4.2465,-4.2086,-4.215,-4.2173,-4.2079,-4.2029,-4.1931,-4.1696,-4.1461,-4.135,-4.1402,-4.1468,-4.1428,-4.1455,-4.1404,-4.1265,-4.0959,-4.0643,-4.0389,-4.0134,-3.9878,-3.9697,-3.9697,-3.9697,-3.9697,-3.9697,-3.9697,-3.9697,-4.5735,-4.5488,-4.5053,-4.4676,-4.424,-4.3384,-4.2275,-4.1162,-4.1176,-4.1748,-4.2839,-4.4124,-4.4516,-4.4226,-4.4806,-4.4792,-4.4385,-4.485,-4.4806,-4.4371,-4.4894,-4.4894,-4.4443,-4.4472,-4.4429,-4.4298,-4.4484,-4.4382,-4.4123,-4.4265,-4.3796,-4.265,-4.3075,-4.2767,-4.1663,0.0,0.0,0.0,-4.24,-4.2758,-4.329,-4.1459,-4.021,-3.9717,-3.9548,0.0,-3.8998,-3.8943,-3.839,-3.7181,-3.7427,0.0,0.0,0.0,0.0,0.0,0.0,0.0,0.0,0.0,0.0,0.0,-3.682,-3.6681,-3.6493,-3.744,-3.8333,-3.8928,-3.9266,-3.975,-4.0542,-4.044,-4.0695,-4.1646,-4.1132,-4.1157,-4.2242,-4.2333,-4.2359,-4.2945,-4.3114,-4.3141,-4.2997,-4.3023,-4.2827,-4.2396,-4.229,-4.204,-4.1539,-4.1845,-4.198,-4.1832,-4.161,-4.1474,-4.1424,-4.14,-4.1572,-4.186,-4.2067,-4.1977,-4.1951,-4.1825,-4.1503,-4.1025,-4.0478,-4.0198,-4.0096,-3.9878,-3.9697,-3.9697,-3.9697,-3.9697,-3.9697,-3.9697,-3.9633,-4.588,0.0,-4.5169,-4.4675,0.0,-4.3285,-4.212,-4.0952,-4.1188,-4.1872,-4.2924,-4.4284,-4.4734,-4.4458,-4.4675,-4.4558,-4.4283,-4.4181,-4.4166,-4.4283,-4.4631,-4.482,-4.4937,-4.4922,-4.4748,-4.4443,-4.4545,-4.4399,-4.4008,-4.4108,-4.3788,-4.3036,-4.3326,-4.3396,-4.3217,-4.3802,-4.3859,-4.3343,-4.3259,-4.3627,-4.453,-4.3109,-4.2032,-4.1437,-4.0766,0.0,0.0,0.0,0.0,0.0,0.0,0.0,0.0,0.0,0.0,-3.5943,-3.6458,-3.6885,-3.7161,-3.7462,-3.7852,-3.8379,-3.8417,-3.8203,-3.7676,-3.8479,-3.9171,-3.9436,-3.9563,-4.0007,-4.0793,-4.0809,-4.104,-4.1764,-4.1808,-4.2003,-4.249,-4.2738,-4.2809,-4.2748,-4.2762,-4.2632,-4.2034,-4.1969,-4.1865,-4.1578,-4.1438,-4.1347,-4.1326,-4.1511,-4.166,-4.1524,-4.1686,-4.1742,-4.1755,-4.2004,-4.2095,-4.2238,-4.2211,-4.203,-4.1629,-4.1671,-4.1595,-4.1017,-4.0695,-4.0437,-4.0269,-3.9989,-3.9697,-3.9697,-3.9697,-3.9697,-3.9697,-3.9697,-3.9633,-4.588,-4.5837,-4.53,-4.4617,-4.3878,-4.3315,-4.2638,-4.1851,0.0,0.0,0.0,-4.4327,-4.4879,-4.4893,-4.4861,-4.483,-4.4787,-4.4091,-4.4076,-4.4642,-4.4657,-4.4962,-4.5547,-4.5606,-4.5271,-4.4734,-4.4719,-4.4487,-4.4008,-4.4008,-4.4008,-4.4008,-4.4095,-4.4603,-4.5376,-4.5917,-4.561,-4.4602,-4.4182,-4.4574,-4.5682,-4.4821,-4.3965,-4.3243,-4.2165,-4.1353,-4.0901,-3.9676,-3.8904,-3.8707,-3.7889,-3.7267,-3.6921,-3.7268,-3.7487,-3.7513,-3.8002,-3.8517,-3.8981,-3.9082,-3.9207,-3.9659,-3.9697,-3.9509,-3.9044,-3.9433,-3.9697,-3.9697,-3.9697,-4.0027,-4.0765,-4.0803,-4.1069,-4.1701,-4.2322,-4.2617,-4.2649,-4.3118,-4.3118,-4.264,-4.2409,-4.2021,-4.1195,-4.0975,-4.0833,-4.0795,-4.0745,-4.0643,-4.111,-4.1261,-4.1361,-4.135,-4.1742,-4.2185,-4.2277,-4.2605,-4.2827,-4.2643,-4.2435,-4.2032,-4.1503,-4.1389,-4.1312,-4.0783,-4.0703,-4.0574,-4.0365,-3.9973,-3.971,-3.9697,-3.9697,-3.9697,-3.9697,-3.9633,-3.953,-4.588,-4.588,-4.5779,-4.5372,-4.4704,-4.4617,-4.4226,-4.3574,-4.2939,-4.2666,-4.2853,-4.4255,-4.4879,-4.4908,-4.5444,-4.569,-4.569,-4.5558,-4.5313,-4.4849,-4.4849,-4.4661,-4.4255,-4.4255,-4.4211,-4.4124,-4.4124,-4.4081,-4.4008,-4.4008,-4.4008,-4.4081,-4.4501,-4.5126,-4.5751,-4.5882,-4.5838,-4.5649,-4.4589,-4.4037,-4.4037,-4.281,-4.1921,-4.1483,-4.1355,-4.083,-4.0156,-3.9773,-3.9044,-3.8031,-3.8054,-3.7783,-3.7243,-3.8114,-3.868,-3.8668,-3.9145,-3.9496,-3.9572,-3.9572,-3.9622,-3.9685,-3.9697,-3.9659,-3.9597,-3.9659,-3.9697,-3.9697,-3.971,-3.991,-4.049,-4.0566,-4.0955,-4.1927,-4.1789,-4.1805,-4.2502,-4.2316,-4.221,-4.2206,-4.1747,-4.1478,-4.1209,-4.0837,-4.0555,-4.0555,-4.0504,-4.0605,-4.0896,-4.1161,-4.1261,-4.1389,-4.1794,-4.2172,-4.2175,-4.2657,-4.3101,-4.3598,-4.2918,-4.2398,-4.2112,-4.1543,-4.0949,-4.0363,-4.0182,-4.0002,-3.9873,-3.976,-3.9697,-3.9697,-3.9697,-3.9697,-3.9697,-3.953,-3.9258,-4.588,-4.588,-4.588,-4.5706,-4.543,-4.543,-4.5271,-4.4995,-4.4617,-4.424,-4.4008,-4.498,-4.543,-4.5416,-4.5298,-4.5179,-4.5165,-4.4684,-4.4599,-4.4731,-4.4731,-4.4849,-4.5024,-4.501,-4.501,-4.5024,-4.5024,-4.5024,-4.501,-4.5024,-4.5024,-4.5039,-4.53,-4.559,-4.5866,-4.588,-4.588,-4.5866,-4.5314,-4.498,-4.4921,-4.4152,-4.3674,-4.3484,-4.3037,-4.2612,-4.2157,-4.1398,-4.0618,-3.9943,-3.9542,-3.9161,-3.8829,-3.9133,-3.9308,-3.932,-3.9546,-3.9697,-3.9697,-3.9697,-3.9697,-3.9697,-3.9697,-3.9697,-3.9697,-3.9973,-4.0011,-3.9735,-3.9948,-4.0237,-4.0501,-4.0526,-4.0953,-4.2099,-4.1919,-4.2062,-4.2637,-4.2616,-4.2368,-4.2347,-4.1879,-4.1421,-4.1102,-4.058,-4.03,-4.03,-4.0402,-4.0504,-4.0491,-4.0694,-4.0896,-4.1125,-4.1852,-4.2112,-4.1944,-4.2759,-4.3237,-4.3109,-4.2667,-4.22,-4.1798,-4.1126,-4.0767,-4.0395,-4.0163,-4.0136,-4.0111,-3.9885,-3.9747,-3.9697,-3.9697,-3.9697,-3.9633,-3.9374,-3.8945,-4.588,-4.588,-4.588,-4.588,-4.588,-4.588,-4.5808,-4.5677,-4.5808,-4.5503,-4.501,-4.5445,-4.5576,-4.5401,-4.4745,-4.4512,-4.4556,-4.3961,-4.412,-4.483,-4.4918,-4.5282,-4.5851,-4.588,-4.588,-4.588,-4.588,-4.588,-4.588,-4.588,-4.588,-4.588,-4.588,-4.588,-4.588,-4.588,-4.588,-4.588,-4.588,-4.588,-4.588,-4.5685,-4.5549,-4.5461,-4.4638,-4.4061,-4.3707,-4.2595,-4.1775,-4.133,-4.0642,-4.0192,-4.0045,-3.9839,-3.9697,-3.9697,-3.9697,-3.9697,-3.9697,-3.9697,-3.9697,-3.9697,-3.9697,-3.9747,-3.991,-4.0388,-4.04,-3.9873,-4.0187,-4.045,-4.0375,-4.0588,-4.1003,-4.1718,-4.2087,-4.2338,-4.2753,-4.2954,-4.2947,-4.2659,-4.2182,-4.1625,-4.1081,-4.0626,-4.036,-4.0298,-4.0376,-4.0351,-4.0172,-4.0287,-4.0491,-4.0862,-4.1724,-4.224,-4.1748,-4.2864,-4.3416,-4.2657,-4.2296,-4.1909,-4.1355,-4.0971,-4.0561,-4.0289,-4.0275,-4.0237,-4.0262,-3.9998,-3.9735,-3.9633,-3.9594,-3.9542,-3.9322,-3.901,-3.8684,-4.588,-4.588,-4.588,-4.588,-4.588,-4.588,-4.5561,-4.514,-4.5605,-4.5503,-4.4937,-4.4951,-4.4705,-4.4211,-4.4168,-4.44,-4.4864,-4.4791,-4.5096,-4.5676,-4.5793,-4.5822,-4.588,-4.588,-4.588,-4.588,-4.588,-4.588,-4.588,-4.588,-4.588,-4.588,-4.588,-4.588,-4.588,-4.588,-4.588,-4.588,-4.588,-4.588,-4.588,-4.588,-4.5745,-4.5504,-4.4702,-4.3868,-4.2937,-4.2074,-4.1201,-4.0351,-4.0173,-4.002,-3.9788,-3.9685,-3.9697,-3.9697,-3.9697,-3.9697,-3.9697,-3.9697,-3.9697,-3.9697,-3.9697,-3.991,-4.0375,-4.0862,-4.0802,-4.0099,-4.0237,-4.0388,-3.9898,-4.0639,-4.1053,-4.0915,-4.1593,-4.2238,-4.2363,-4.2728,-4.3004,-4.2979,-4.2456,-4.1923,-4.1408,-4.1182,-4.0968,-4.0541,-4.0543,-4.0471,-4.0209,-4.0185,-4.021,-4.0453,-4.1348,-4.2054,-4.2091,-4.3079,-4.3576,-4.3512,-4.2633,-4.1963,-4.1527,-4.0711,-3.9849,-4.0138,-3.9848,-3.9848,-3.9823,-3.971,-3.9606,-3.9413,-3.9322,-3.9154,-3.8671,-3.8514,-3.8421,-4.588,-4.588,-4.588,-4.588,-4.588,-4.588,-4.5735,-4.5518,-4.575,-4.5503,-4.4937,-4.4879,-4.4966,-4.5097,-4.5111,-4.5256,-4.5474,-4.5474,-4.5619,-4.5866,-4.588,-4.588,-4.588,-4.588,-4.588,-4.588,-4.588,-4.588,-4.588,-4.588,-4.588,-4.588,-4.588,-4.588,-4.588,-4.588,-4.588,-4.588,-4.588,-4.588,-4.588,-4.5745,-4.5321,-4.4648,-4.4153,-4.3239,-4.2075,-4.1581,-4.0995,-4.0173,-4.0083,-3.9981,-3.9685,-3.9697,-3.9697,-3.9697,-3.9697,-3.9697,-3.9697,-3.9697,-3.9697,-3.9697,-3.9697,-3.9936,-4.045,-4.0727,-4.0699,-4.0777,-4.1166,-4.1266,-4.0764,-4.0789,-4.0824,-4.1015,-4.1417,-4.1794,-4.22,-4.2703,-4.2986,-4.2936,-4.2552,-4.2137,-4.1831,-4.1543,-4.1213,-4.0974,-4.0937,-4.083,-4.0431,-4.0331,-4.0331,-4.0471,-4.1117,-4.1423,-4.1463,-4.2464,-4.3072,-4.2933,-4.2486,-4.2061,-4.1859,-4.1021,-4.0199,-4.0174,-3.9885,-3.971,-3.9722,-3.953,-3.9426,-3.9258,-3.905,-3.8841,-3.8473,-3.8409,-3.8356,-4.604,-4.5895,-4.588,-4.588,-4.588,-4.588,-4.5779,-4.5648,-4.5808,-4.5548,-4.4937,-4.5068,-4.5416,-4.5793,-4.5532,-4.5445,-4.559,-4.5619,-4.5721,-4.5866,-4.588,-4.588,-4.588,-4.588,-4.588,-4.588,-4.588,-4.588,-4.588,-4.588,-4.588,-4.588,-4.588,-4.588,-4.588,-4.588,-4.588,-4.588,-4.588,-4.588,-4.588,-4.57,-4.5124,-4.4181,-4.3539,-4.2625,-4.1358,-4.1108,-4.0668,-4.0032,-4.0032,-3.9981,-3.9697,-3.9697,-3.9697,-3.9697,-3.9697,-3.9697,-3.9697,-3.9697,-3.9697,-3.9697,-3.9697,-3.9998,-4.0576,-4.0739,-4.1078,-4.1718,-4.2158,-4.2095,-4.1392,-4.1116,-4.1116,-4.1288,-4.1442,-4.1743,-4.2175,-4.2703,-4.2986,-4.2936,-4.2715,-4.2439,-4.2363,-4.1944,-4.1593,-4.1568,-4.1555,-4.1367,-4.0902,-4.0752,-4.0739,-4.0764,-4.1216,-4.1392,-4.1141,-4.2125,-4.2635,-4.2577,-4.2338,-4.2099,-4.2011,-4.1053,-4.0526,-4.0312,-3.9921,-3.9744,-3.974,-3.9598,-3.9102,-3.8998,-3.8841,-3.8514,-3.8303,-3.8303,-3.8198,-4.6432,-4.5909,-4.588,-4.588,-4.588,-4.588,-4.5532,-4.5126,-4.5619,-4.5518,-4.5068,-4.5532,-4.5851,-4.5808,-4.4792,-4.4443,-4.4922,-4.5039,-4.5358,-4.5851,-4.588,-4.588,-4.588,-4.588,-4.588,-4.588,-4.588,-4.588,-4.588,-4.588,-4.588,-4.588,-4.588,-4.588,-4.588,-4.588,-4.588,-4.588,-4.588,-4.588,-4.588,-4.5835,-4.5321,-4.4261,-4.3143,-4.2186,-4.1309,-4.058,-4.0019,-3.9749,-3.9981,-3.9981,-3.9749,-3.9697,-3.9697,-3.9697,-3.9697,-3.9697,-3.9697,-3.9697,-3.9697,-3.9697,-3.9697,-4.0136,-4.1037,-4.1163,-4.1681,-4.276,-4.2823,-4.2472,-4.1681,-4.1743,-4.1769,-4.148,-4.1819,-4.2137,-4.22,-4.269,-4.2949,-4.2986,-4.2911,-4.2848,-4.2886,-4.2514,-4.2225,-4.2162,-4.2162,-4.1894,-4.1442,-4.1304,-4.12,-4.1379,-4.1706,-4.215,-4.2187,-4.2509,-4.2861,-4.2798,-4.2502,-4.2095,-4.1467,-4.0953,-4.0739,-4.0358,-3.9902,-3.971,-3.9804,-3.9495,-3.8899,-3.8566,-3.8356,-3.8092,-3.8133,-3.8027,-3.8027,-4.6098,-4.588,-4.588,-4.588,-4.588,-4.588,-4.575,-4.5547,-4.5764,-4.575,-4.559,-4.5779,-4.588,-4.5851,-4.5416,-4.5329,-4.5518,-4.5532,-4.5663,-4.588,-4.588,-4.588,-4.588,-4.588,-4.588,-4.588,-4.588,-4.588,-4.588,-4.588,-4.588,-4.588,-4.588,-4.588,-4.588,-4.588,-4.588,-4.588,-4.588,-4.564,-4.5187,-4.5018,-4.4415,-4.3266,-4.3047,-4.2222,-4.0846,-4.0491,-4.0236,-3.9981,-4.0019,-3.9981,-3.9749,-3.9697,-3.9697,-3.9697,-3.9697,-3.9697,-3.9697,-3.9697,-3.9697,-3.9697,-3.9697,-4.0149,-4.1025,-4.1313,-4.1794,-4.2685,-4.2974,-4.2735,-4.2497,-4.2326,-4.2082,-4.1932,-4.2032,-4.2238,-4.2313,-4.269,-4.2986,-4.2986,-4.2986,-4.2986,-4.2936,-4.2841,-4.274,-4.2703,-4.2439,-4.2082,-4.1869,-4.1593,-4.1413,-4.1794,-4.2087,-4.2338,-4.2728,-4.2798,-4.2974,-4.2949,-4.276,-4.2549,-4.2068,-4.1714,-4.1463,-4.086,-4.0244,-3.9584,-3.9639,-3.9177,-3.8595,-3.825,-3.8027,-3.8027,-3.7974,-3.7974,-3.7974,-4.6069,-4.5895,-4.588,-4.588,-4.588,-4.588,-4.588,-4.588,-4.588,-4.588,-4.588,-4.588,-4.588,-4.588,-4.588,-4.588,-4.588,-4.588,-4.588,-4.588,-4.588,-4.588,-4.588,-4.588,-4.588,-4.588,-4.588,-4.588,-4.588,-4.588,-4.588,-4.588,-4.588,-4.588,-4.588,-4.588,-4.588,-4.588,-4.588,-4.5535,-4.4805,-4.448,-4.3729,-4.2577,-4.255,-4.2075,-4.0694,-4.0453,-4.03,-4.0134,-4.0032,-3.9878,-3.9749,-3.9697,-3.9697,-3.9697,-3.9697,-3.9697,-3.9697,-3.9697,-3.9697,-3.9697,-3.971,-4.0111,-4.0924,-4.1175,-4.1794,-4.2484,-4.2911,-4.2986,-4.2911,-4.2635,-4.2476,-4.2476,-4.2476,-4.2476,-4.2502,-4.2816,-4.2949,-4.2986,-4.2986,-4.2986,-4.2986,-4.2974,-4.2916,-4.2803,-4.2414,-4.2238,-4.215,-4.1882,-4.1794,-4.2351,-4.2476,-4.2665,-4.2823,-4.2936,-4.2974,-4.2949,-4.288,-4.2781,-4.2451,-4.2188,-4.1908,-4.1323,-4.0598,-3.9807,-3.9193,-3.8798,-3.8415,-3.8087,-3.7974,-3.7974,-3.7974,-3.7974,-3.7974,-4.6446,-4.5909,-4.588,-4.588,-4.588,-4.588,-4.588,-4.588,-4.588,-4.588,-4.588,-4.588,-4.588,-4.588,-4.588,-4.588,-4.588,-4.588,-4.588,-4.588,-4.588,-4.588,-4.588,-4.588,-4.588,-4.588,-4.588,-4.588,-4.588,-4.588,-4.588,-4.588,-4.588,-4.588,-4.588,-4.588,-4.588,-4.579,-4.573,-4.5353,-4.4727,-4.4233,-4.3355,-4.2075,-4.1766,-4.1395,-4.0833,-4.0377,-4.0121,-4.0083,-3.989,-3.9697,-3.9697,-3.9697,-3.9697,-3.9697,-3.9697,-3.9697,-3.9697,-3.9697,-3.9697,-3.9697,-3.9697,-3.9961,-4.0551,-4.0949,-4.153,-4.2225,-4.2678,-4.2924,-4.2961,-4.2924,-4.2886,-4.2949,-4.2886,-4.2886,-4.2924,-4.2961,-4.2986,-4.2986,-4.2986,-4.2986,-4.2986,-4.2986,-4.2836,-4.2484,-4.2246,-4.2208,-4.2203,-4.209,-4.2414,-4.2748,-4.2836,-4.2861,-4.2936,-4.2986,-4.2974,-4.2961,-4.2893,-4.2768,-4.2196,-4.1843,-4.1768,-4.1249,-4.0306,-3.9466,-3.8708,-3.8338,-3.8386,-3.8106,-3.8058,-3.7974,-3.7974,-3.7974,-3.7838,-4.6461,-4.5909,-4.588,-4.588,-4.588,-4.588,-4.588,-4.588,-4.588,-4.588,-4.588,-4.588,-4.588,-4.588,-4.588,-4.588,-4.588,-4.588,-4.588,-4.588,-4.588,-4.588,-4.588,-4.588,-4.588,-4.588,-4.588,-4.588,-4.588,-4.588,-4.588,-4.588,-4.588,-4.588,-4.588,-4.588,-4.5685,-4.5124,-4.4911,-4.4186,-4.295,-4.2585,-4.1963,-4.1121,-4.0883,-4.0732,-4.0593,-4.044,-4.0287,-4.0134,-4.0032,-3.9878,-3.9736,-3.9697,-3.9697,-3.9697,-3.9697,-3.9697,-3.9697,-3.9697,-3.9697,-3.9697,-3.9697,-3.9961,-4.0413,-4.0664,-4.1191,-4.2024,-4.2389,-4.259,-4.2886,-4.2986,-4.2986,-4.2986,-4.2986,-4.2986,-4.2986,-4.2986,-4.2986,-4.2986,-4.2986,-4.2986,-4.2986,-4.2986,-4.283,-4.2438,-4.2261,-4.2191,-4.2171,-4.2168,-4.2273,-4.2625,-4.2799,-4.293,-4.2918,-4.2806,-4.275,-4.2694,-4.2681,-4.25,-4.1984,-4.1692,-4.156,-4.105,-4.0055,-3.9256,-3.8436,-3.813,-3.8226,-3.813,-3.801,-3.7974,-3.7974,-3.7933,-3.7797,-4.6461,-4.5895,-4.588,-4.588,-4.588,-4.588,-4.588,-4.588,-4.588,-4.588,-4.588,-4.588,-4.588,-4.588,-4.588,-4.588,-4.588,-4.588,-4.588,-4.588,-4.588,-4.588,-4.588,-4.588,-4.588,-4.588,-4.588,-4.588,-4.588,-4.588,-4.588,-4.588,-4.588,-4.588,-4.588,-4.588,-4.5504,-4.4787,-4.442,-4.3545,-4.2257,-4.1617,-4.1095,-4.044,-4.0249,-4.0211,-4.0198,-4.0198,-4.0198,-4.0083,-4.0019,-3.989,-3.9749,-3.9697,-3.9697,-3.9697,-3.9697,-3.9697,-3.9697,-3.9697,-3.9697,-3.9697,-3.9697,-3.9823,-4.0187,-4.035,-4.0953,-4.1668,-4.2112,-4.2439,-4.2904,-4.2986,-4.2986,-4.2986,-4.2986,-4.2986,-4.2986,-4.2986,-4.2986,-4.2986,-4.2986,-4.293,-4.2862,-4.2974,-4.2762,-4.2351,-4.2108,-4.2098,-4.2035,-4.1929,-4.2183,-4.2407,-4.2557,-4.2694,-4.275,-4.2638,-4.2481,-4.2413,-4.24,-4.2174,-4.1781,-4.1687,-4.1574,-4.0801,-3.9857,-3.931,-3.8527,-3.8431,-3.8431,-3.8226,-3.7974,-3.7974,-3.7974,-3.7838,-3.7691,-4.6461,-4.5909,-4.588,-4.588,-4.588,-4.588,-4.588,-4.588,-4.588,-4.588,-4.588,-4.588,-4.588,-4.588,-4.588,-4.588,-4.588,-4.588,-4.588,-4.588,-4.588,-4.588,-4.588,-4.588,-4.588,-4.588,-4.588,-4.588,-4.588,-4.588,-4.588,-4.588,-4.588,-4.588,-4.588,-4.588,-4.5353,-4.4587,-4.4172,-4.3211,-4.1891,-4.1332,-4.0794,-4.0083,-3.989,-3.98,-3.98,-3.98,-3.9839,-3.9968,-3.9839,-3.9749,-3.9697,-3.9697,-3.9697,-3.9697,-3.9697,-3.9697,-3.9697,-3.9697,-3.9697,-3.9697,-3.9697,-3.9697,-3.9823,-4.0162,-4.0614,-4.1175,-4.1743,-4.2338,-4.2735,-4.2961,-4.2961,-4.2986,-4.2986,-4.2986,-4.2986,-4.2986,-4.2986,-4.2986,-4.2986,-4.293,-4.2625,-4.2806,-4.2538,-4.2152,-4.1867,-4.204,-4.204,-4.2071,-4.209,-4.2221,-4.24,-4.2425,-4.2538,-4.2425,-4.2268,-4.2061,-4.2061,-4.1891,-4.159,-4.1485,-4.1173,-4.0427,-3.9765,-3.9188,-3.8731,-3.8491,-3.8322,-3.8106,-3.7986,-3.7974,-3.7933,-3.7838,-3.7584,-4.6461,-4.5895,-4.588,-4.588,-4.588,-4.588,-4.588,-4.588,-4.588,-4.588,-4.588,-4.588,-4.588,-4.588,-4.588,-4.588,-4.588,-4.588,-4.588,-4.588,-4.588,-4.588,-4.588,-4.588,-4.588,-4.588,-4.588,-4.588,-4.588,-4.588,-4.588,-4.588,-4.588,-4.588,-4.5835,-4.5338,-4.462,-4.3823,-4.2778,-4.1963,-4.1071,-4.0427,-4.0032,-3.9839,-3.9749,-3.9697,-3.9697,-3.9697,-3.9736,-3.9775,-3.9736,-3.9697,-3.9697,-3.9697,-3.9697,-3.9697,-3.9697,-3.9697,-3.9697,-3.9697,-3.9697,-3.9697,-3.9697,-3.9697,-3.9697,-3.9823,-4.0187,-4.0636,-4.1229,-4.1794,-4.2308,-4.2748,-4.2936,-4.2986,-4.2986,-4.2986,-4.2986,-4.2986,-4.2986,-4.2986,-4.2986,-4.2918,-4.2806,-4.2681,-4.2575,-4.2314,-4.2196,-4.214,-4.2103,-4.2227,-4.2214,-4.222,-4.2312,-4.2268,-4.2268,-4.2167,-4.2041,-4.1777,-4.1663,-4.1618,-4.129,-4.1006,-4.0503,-3.9838,-3.9429,-3.8912,-3.8455,-3.8106,-3.7998,-3.7998,-3.7986,-3.7974,-3.7933,-3.7797,-3.7465,-4.6214,-4.588,-4.588,-4.588,-4.588,-4.588,-4.588,-4.588,-4.588,-4.588,-4.588,-4.588,-4.588,-4.588,-4.588,-4.588,-4.588,-4.588,-4.588,-4.588,-4.588,-4.588,-4.588,-4.588,-4.588,-4.588,-4.588,-4.588,-4.588,-4.588,-4.588,-4.588,-4.588,-4.588,-4.5835,-4.5095,-4.434,-4.3539,-4.2306,-4.1232,-4.0555,-3.9993,-3.9749,-3.9697,-3.9697,-3.9697,-3.9697,-3.9697,-3.9697,-3.9697,-3.9697,-3.9697,-3.9697,-3.9697,-3.9697,-3.9697,-3.9697,-3.9697,-3.9697,-3.9697,-3.9697,-3.9697,-3.9697,-3.9697,-3.9697,-3.9697,-3.9923,-4.0501,-4.1015,-4.1555,-4.2162,-4.2703,-4.2936,-4.2986,-4.2986,-4.2986,-4.2986,-4.2986,-4.2986,-4.2986,-4.2974,-4.2918,-4.2806,-4.2638,-4.2469,-4.2287,-4.2069,-4.2093,-4.2118,-4.2256,-4.23,-4.2199,-4.1972,-4.1915,-4.1859,-4.1814,-4.1769,-4.1504,-4.1435,-4.139,-4.1175,-4.0751,-4.0222,-3.9705,-3.9176,-3.8683,-3.8262,-3.7974,-3.7974,-3.7974,-3.7974,-3.7933,-3.7838,-3.7679,-3.7358,-4.588,-4.588,-4.588,-4.588,-4.588,-4.588,-4.588,-4.588,-4.588,-4.588,-4.588,-4.588,-4.588,-4.588,-4.588,-4.588,-4.588,-4.588,-4.588,-4.588,-4.588,-4.588,-4.588,-4.588,-4.588,-4.588,-4.588,-4.588,-4.588,-4.588,-4.588,-4.588,-4.588,-4.588,-4.564,-4.5003,-4.4247,-4.3396,-4.2061,-4.1095,-4.0491,-3.9993,-3.9697,-3.9697,-3.9697,-3.9697,-3.9697,-3.9697,-3.9697,-3.9697,-3.9697,-3.9697,-3.9697,-3.9697,-3.9697,-3.9697,-3.9697,-3.9697,-3.9697,-3.9697,-3.9697,-3.9697,-3.9697,-3.9697,-3.9697,-3.971,-3.9873,-4.0287,-4.0912,-4.1605,-4.2246,-4.2791,-4.2936,-4.2986,-4.2986,-4.2986,-4.2986,-4.2986,-4.2986,-4.2986,-4.2986,-4.2862,-4.2638,-4.2469,-4.2413,-4.2356,-4.2118,-4.196,-4.1984,-4.2041,-4.2086,-4.2029,-4.1745,-4.1402,-4.1402,-4.1402,-4.1357,-4.1287,-4.1287,-4.1218,-4.1179,-4.0751,-4.0222,-3.9693,-3.9176,-3.8635,-3.813,-3.7974,-3.7974,-3.7974,-3.7974,-3.7838,-3.7702,-3.7411,-3.7131,-4.588,-4.588,-4.588,-4.588,-4.588,-4.588,-4.588,-4.588,-4.588,-4.588,-4.588,-4.588,-4.588,-4.588,-4.588,-4.588,-4.588,-4.588,-4.588,-4.588,-4.588,-4.588,-4.588,-4.588,-4.588,-4.588,-4.588,-4.588,-4.588,-4.588,-4.588,-4.588,-4.588,-4.579,-4.5504,-4.4602,-4.3695,-4.3074,-4.1706,-4.0833,-4.0491,-4.0044,-3.9749,-3.9685,-3.9697,-3.9697,-3.9697,-3.9697,-3.9697,-3.9697,-3.9697,-3.9697,-3.9697,-3.9697,-3.9697,-3.9697,-3.9697,-3.9697,-3.9697,-3.9697,-3.9697,-3.9697,-3.9697,-3.9697,-3.9697,-3.9697,-3.9747,-4.0049,-4.0752,-4.1643,-4.2522,-4.2861,-4.2974,-4.2986,-4.2986,-4.2986,-4.2986,-4.2986,-4.2862,-4.275,-4.2806,-4.2862,-4.2513,-4.2256,-4.2256,-4.23,-4.2073,-4.1846,-4.1802,-4.1814,-4.1814,-4.1745,-4.1631,-4.1332,-4.1287,-4.1287,-4.1242,-4.1184,-4.1184,-4.104,-4.0944,-4.0751,-4.0222,-3.9693,-3.9176,-3.8623,-3.8034,-3.7974,-3.7986,-3.7974,-3.7921,-3.7732,-3.753,-3.7239,-3.697,-4.588,-4.588,-4.588,-4.588,-4.588,-4.588,-4.588,-4.588,-4.588,-4.588,-4.588,-4.588,-4.588,-4.588,-4.588,-4.588,-4.588,-4.588,-4.588,-4.588,-4.588,-4.588,-4.588,-4.588,-4.588,-4.588,-4.588,-4.588,-4.588,-4.588,-4.588,-4.588,-4.588,-4.5835,-4.5595,-4.4648,-4.3946,-4.3314,-4.2235,-4.1322,-4.0593,-4.0402,-3.9993,-3.9788,-3.9697,-3.9697,-3.9697,-3.9697,-3.9697,-3.9697,-3.9697,-3.9697,-3.9697,-3.9697,-3.9697,-3.9697,-3.9697,-3.9697,-3.9697,-3.9697,-3.9697,-3.9697,-3.9697,-3.9697,-3.9697,-3.9697,-3.9697,-3.986,-4.0475,-4.1379,-4.2502,-4.2942,-4.2949,-4.2986,-4.2986,-4.2986,-4.2986,-4.2874,-4.275,-4.2525,-4.2525,-4.2581,-4.2369,-4.2086,-4.2029,-4.2073,-4.1745,-4.1459,-4.1459,-4.1471,-4.1471,-4.1459,-4.139,-4.1332,-4.1242,-4.1242,-4.1242,-4.1184,-4.1184,-4.0944,-4.0715,-4.0499,-4.0222,-3.9645,-3.9044,-3.8491,-3.8063,-3.7998,-3.7945,-3.7785,-3.7679,-3.7518,-3.7304,-3.7024,-3.6754,-4.5925,-4.588,-4.588,-4.588,-4.588,-4.588,-4.588,-4.588,-4.588,-4.588,-4.588,-4.588,-4.588,-4.588,-4.588,-4.588,-4.588,-4.588,-4.588,-4.588,-4.588,-4.588,-4.588,-4.588,-4.588,-4.588,-4.588,-4.588,-4.588,-4.588,-4.588,-4.588,-4.588,-4.5835,-4.5654,-4.5078,-4.4355,-4.3681,-4.2744,-4.1878,-4.082,-4.063,-4.0185,-3.9852,-3.9697,-3.9697,-3.9697,-3.9697,-3.9697,-3.9697,-3.9697,-3.9697,-3.9697,-3.9697,-3.9697,-3.9697,-3.9697,-3.9697,-3.9697,-3.9697,-3.9697,-3.9697,-3.9697,-3.9697,-3.9697,-3.9697,-3.9697,-3.9923,-4.04,-4.1191,-4.2112,-4.2728,-4.2936,-4.2986,-4.2986,-4.2986,-4.293,-4.2694,-4.2469,-4.2425,-4.2312,-4.2256,-4.213,-4.1903,-4.1903,-4.1859,-4.1471,-4.1184,-4.1184,-4.1184,-4.1242,-4.1287,-4.1287,-4.1287,-4.1242,-4.1136,-4.1136,-4.0968,-4.1004,-4.0703,-4.0355,-3.9958,-3.9645,-3.9393,-3.8864,-3.8371,-3.8005,-3.7904,-3.7744,-3.7596,-3.7423,-3.7304,-3.7024,-3.6754,-3.6538,-4.606,-4.588,-4.588,-4.588,-4.588,-4.588,-4.588,-4.588,-4.588,-4.588,-4.588,-4.588,-4.588,-4.588,-4.588,-4.588,-4.588,-4.588,-4.588,-4.588,-4.588,-4.588,-4.588,-4.588,-4.588,-4.588,-4.588,-4.588,-4.588,-4.588,-4.588,-4.588,-4.588,-4.5835,-4.5504,-4.4972,-4.4587,-4.3932,-4.2889,-4.1914,-4.1196,-4.0427,-3.9942,-3.9697,-3.9697,-3.9697,-3.9697,-3.9697,-3.9697,-3.9697,-3.9697,-3.9697,-3.9697,-3.9697,-3.9697,-3.9697,-3.9697,-3.9697,-3.9697,-3.9697,-3.9697,-3.9697,-3.9697,-3.9697,-3.9697,-3.9697,-3.9697,-3.9948,-4.0576,-4.1455,-4.2137,-4.2635,-4.2936,-4.2986,-4.2986,-4.2986,-4.293,-4.2594,-4.2256,-4.2211,-4.2155,-4.2029,-4.196,-4.1834,-4.1846,-4.1789,-4.1504,-4.1287,-4.1184,-4.1184,-4.1242,-4.1242,-4.1242,-4.1242,-4.1184,-4.1112,-4.1028,-4.0667,-4.0523,-4.0222,-3.9838,-3.932,-3.8984,-3.8827,-3.8677,-3.8293,-3.8012,-3.7792,-3.753,-3.7262,-3.7143,-3.7078,-3.6808,-3.6592,-3.6538,-4.6135,-4.606,-4.5925,-4.588,-4.588,-4.588,-4.588,-4.588,-4.588,-4.588,-4.588,-4.588,-4.588,-4.588,-4.588,-4.588,-4.588,-4.588,-4.588,-4.588,-4.588,-4.588,-4.588,-4.588,-4.588,-4.588,-4.588,-4.588,-4.588,-4.588,-4.588,-4.588,-4.588,-4.5835,-4.5685,-4.5504,-4.4787,-4.4026,-4.3191,-4.2124,-4.1095,-4.0083,-3.9749,-3.9697,-3.9697,-3.9697,-3.9697,-3.9697,-3.9697,-3.9697,-3.9697,-3.9697,-3.9697,-3.9697,-3.9697,-3.9697,-3.9697,-3.9697,-3.9697,-3.9697,-3.9697,-3.9697,-3.9697,-3.9697,-3.9697,-3.9697,-3.9697,-3.9936,-4.0598,-4.1376,-4.1706,-4.2472,-4.2911,-4.2986,-4.2986,-4.2986,-4.293,-4.2538,-4.23,-4.2061,-4.1765,-4.1708,-4.1972,-4.1846,-4.1777,-4.1663,-4.1549,-4.139,-4.1242,-4.1184,-4.1184,-4.1184,-4.1172,-4.1124,-4.1064,-4.092,-4.0679,-4.0331,-4.003,-3.9729,-3.9405,-3.8936,-3.8611,-3.8395,-3.8215,-3.8078,-3.7852,-3.753,-3.7251,-3.6982,-3.6916,-3.6808,-3.6592,-3.6483,-3.6429,-4.6299,-4.6165,-4.6046,-4.5925,-4.588,-4.588,-4.588,-4.588,-4.588,-4.588,-4.588,-4.588,-4.588,-4.588,-4.588,-4.588,-4.588,-4.588,-4.588,-4.588,-4.588,-4.588,-4.588,-4.588,-4.588,-4.588,-4.588,-4.588,-4.588,-4.588,-4.588,-4.588,-4.588,-4.588,-4.5835,-4.5549,-4.4801,-4.4214,-4.3444,-4.2382,-4.0732,-3.9955,-3.9697,-3.9697,-3.9697,-3.9697,-3.9697,-3.9697,-3.9697,-3.9697,-3.9697,-3.9697,-3.9697,-3.9697,-3.9697,-3.9697,-3.9697,-3.9697,-3.9697,-3.9697,-3.9697,-3.9697,-3.9697,-3.9697,-3.9697,-3.9697,-3.971,-3.9873,-4.0501,-4.1163,-4.1492,-4.2233,-4.276,-4.2986,-4.2986,-4.2986,-4.2918,-4.2656,-4.2276,-4.1938,-4.1452,-4.1452,-4.1692,-4.1846,-4.172,-4.1789,-4.1675,-4.1549,-4.1402,-4.1242,-4.1184,-4.1184,-4.1148,-4.1064,-4.0908,-4.0643,-4.0282,-3.9789,-3.9513,-3.9248,-3.8936,-3.8599,-3.8346,-3.813,-3.7917,-3.7768,-3.7512,-3.7262,-3.6982,-3.6754,-3.6646,-3.6538,-3.6429,-3.6375,-3.632,-4.6565,-4.621,-4.618,-4.609,-4.5925,-4.588,-4.588,-4.588,-4.588,-4.588,-4.588,-4.588,-4.588,-4.588,-4.588,-4.588,-4.588,-4.588,-4.588,-4.588,-4.588,-4.588,-4.588,-4.588,-4.588,-4.588,-4.588,-4.588,-4.588,-4.588,-4.588,-4.588,-4.588,-4.588,-4.5835,-4.5307,-4.4773,-4.4266,-4.2813,-4.1232,-4.0083,-3.9749,-3.9697,-3.9697,-3.9697,-3.9697,-3.9697,-3.9697,-3.9697,-3.9697,-3.9697,-3.9697,-3.9697,-3.9697,-3.9697,-3.9697,-3.9697,-3.9697,-3.9697,-3.9697,-3.9697,-3.9697,-3.9697,-3.9697,-3.9697,-3.9697,-3.9697,-3.9722,-4.0312,-4.0814,-4.1254,-4.1894,-4.2489,-4.2828,-4.2936,-4.2961,-4.2974,-4.2624,-4.2258,-4.1836,-4.1316,-4.1342,-4.1452,-4.1598,-4.172,-4.1789,-4.1859,-4.1663,-4.1504,-4.1287,-4.1184,-4.1184,-4.0992,-4.0872,-4.0571,-4.0331,-3.9874,-3.9308,-3.9008,-3.8767,-3.8539,-3.8298,-3.8178,-3.7969,-3.7691,-3.7489,-3.7316,-3.7036,-3.67,-3.6538,-3.6483,-3.6375,-3.632,-3.6266,-3.6266,-4.6844,-4.6403,-4.6254,-4.609,-4.594,-4.588,-4.588,-4.588,-4.588,-4.588,-4.588,-4.588,-4.588,-4.588,-4.588,-4.588,-4.588,-4.588,-4.588,-4.588,-4.588,-4.588,-4.588,-4.588,-4.588,-4.588,-4.588,-4.588,-4.588,-4.588,-4.588,-4.588,-4.588,-4.588,-4.573,-4.511,-4.4434,-4.3464,-4.1914,-4.0453,-3.989,-3.9697,-3.9697,-3.9697,-3.9697,-3.9697,-3.9697,-3.9697,-3.9697,-3.9697,-3.9697,-3.9697,-3.9697,-3.9697,-3.9697,-3.9697,-3.9697,-3.9697,-3.9697,-3.9697,-3.9697,-3.9697,-3.9697,-3.9697,-3.9697,-3.9697,-3.9697,-3.971,-4.0199,-4.0626,-4.1003,-4.1668,-4.2175,-4.2552,-4.2828,-4.2886,-4.2836,-4.2504,-4.2125,-4.1668,-4.1237,-4.1084,-4.1052,-4.1186,-4.1475,-4.1862,-4.1862,-4.168,-4.1501,-4.1344,-4.1242,-4.1184,-4.0908,-4.0619,-4.0234,-3.9898,-3.9429,-3.8924,-3.8539,-3.8322,-3.8178,-3.7998,-3.7974,-3.7814,-3.756,-3.7346,-3.7131,-3.6862,-3.6592,-3.6429,-3.632,-3.6266,-3.6266,-3.6211,-3.6102,-4.7048,-4.6668,-4.6388,-4.6165,-4.597,-4.5925,-4.5925,-4.597,-4.5925,-4.588,-4.588,-4.588,-4.588,-4.588,-4.588,-4.588,-4.588,-4.588,-4.588,-4.588,-4.588,-4.588,-4.588,-4.588,-4.588,-4.588,-4.588,-4.588,-4.588,-4.588,-4.588,-4.588,-4.588,-4.573,-4.5384,-4.462,-4.3701,-4.2195,-4.0945,-4.0083,-3.9749,-3.9697,-3.9697,-3.9697,-3.9697,-3.9697,-3.9697,-3.9697,-3.9697,-3.9697,-3.9697,-3.9697,-3.9697,-3.9697,-3.9697,-3.9697,-3.9697,-3.9697,-3.9697,-3.9697,-3.9697,-3.9697,-3.9697,-3.9697,-3.9697,-3.9697,-3.9697,-3.9697,-3.9973,-4.03,-4.0676,-4.1404,-4.1882,-4.2275,-4.2564,-4.266,-4.2685,-4.2178,-4.1685,-4.1172,-4.0757,-4.0437,-4.0488,-4.0709,-4.1102,-4.1749,-4.1864,-4.1658,-4.1351,-4.1055,-4.0925,-4.0772,-4.0463,-4.0102,-3.9705,-3.932,-3.8888,-3.8599,-3.8226,-3.8034,-3.7986,-3.7974,-3.7974,-3.7761,-3.7495,-3.7334,-3.7185,-3.6862,-3.6549,-3.6375,-3.6266,-3.6266,-3.6266,-3.6157,-3.5653,-4.7121,-4.6887,-4.6683,-4.6403,-4.6165,-4.597,-4.6001,-4.6135,-4.597,-4.588,-4.588,-4.588,-4.588,-4.588,-4.588,-4.588,-4.588,-4.588,-4.588,-4.588,-4.588,-4.588,-4.588,-4.588,-4.588,-4.588,-4.588,-4.588,-4.588,-4.588,-4.588,-4.588,-4.5835,-4.5429,-4.4805,-4.3984,-4.2598,-4.1246,-4.0275,-3.9981,-3.9736,-3.9697,-3.9697,-3.9697,-3.9697,-3.9697,-3.9697,-3.9697,-3.9697,-3.9697,-3.9697,-3.9697,-3.9697,-3.9697,-3.9697,-3.9697,-3.9697,-3.9697,-3.9697,-3.9697,-3.9697,-3.9697,-3.9697,-3.9697,-3.9697,-3.9697,-3.9697,-3.9697,-3.986,-4.0036,-4.0463,-4.1028,-4.1505,-4.1781,-4.1982,-4.2145,-4.2057,-4.1681,-4.1134,-4.063,-4.0283,-3.9993,-3.9997,-4.0244,-4.0653,-4.1299,-4.1423,-4.1287,-4.0694,-4.0366,-4.0282,-4.0117,-3.9813,-3.9489,-3.9068,-3.8731,-3.8527,-3.8359,-3.8094,-3.7998,-3.7974,-3.7974,-3.7974,-3.7868,-3.7655,-3.7441,-3.7173,-3.6808,-3.6495,-3.6375,-3.6211,-3.5872,-3.5532,-3.5256,-3.4647,-4.7149,-4.6887,-4.68,-4.6668,-4.6403,-4.606,-4.6001,-4.6135,-4.597,-4.588,-4.588,-4.588,-4.588,-4.588,-4.588,-4.588,-4.588,-4.588,-4.588,-4.588,-4.588,-4.588,-4.588,-4.588,-4.588,-4.588,-4.588,-4.588,-4.588,-4.588,-4.588,-4.588,-4.573,-4.5549,-4.4819,-4.3559,-4.2075,-4.1058,-4.0224,-3.9775,-3.9736,-3.9697,-3.9697,-3.9697,-3.9697,-3.9697,-3.9697,-3.9697,-3.9697,-3.9697,-3.9697,-3.9697,-3.9697,-3.9697,-3.9697,-3.9697,-3.9697,-3.9697,-3.9697,-3.9697,-3.9697,-3.9697,-3.9697,-3.9697,-3.9697,-3.9697,-3.9697,-3.9697,-3.9697,-3.9873,-3.9998,-4.0488,-4.0927,-4.1178,-4.1404,-4.1593,-4.1467,-4.1116,-4.0786,-4.0358,-3.9912,-3.9528,-3.9637,-3.977,-4.0298,-4.0799,-4.0861,-4.0764,-4.0154,-3.983,-3.9726,-3.9527,-3.9236,-3.9128,-3.8743,-3.8479,-3.825,-3.8106,-3.7974,-3.7974,-3.7974,-3.7974,-3.7974,-3.7921,-3.7761,-3.7507,-3.7131,-3.6712,-3.644,-3.6266,-3.5763,-3.5135,-3.4803,-3.4368,-3.3695,-4.7294,-4.7091,-4.696,-4.6844,-4.6624,-4.618,-4.6135,-4.6225,-4.6001,-4.588,-4.588,-4.588,-4.588,-4.588,-4.588,-4.588,-4.588,-4.588,-4.588,-4.588,-4.588,-4.588,-4.588,-4.588,-4.588,-4.588,-4.588,-4.588,-4.588,-4.588,-4.588,-4.579,-4.5549,-4.5321,-4.468,-4.343,-4.2039,-4.1172,-4.058,-3.9839,-3.98,-3.9697,-3.9697,-3.9697,-3.9697,-3.9697,-3.9697,-3.9697,-3.9697,-3.9697,-3.9697,-3.9697,-3.9697,-3.9697,-3.9697,-3.9697,-3.9697,-3.9697,-3.9697,-3.9697,-3.9697,-3.9697,-3.9697,-3.9697,-3.9697,-3.9697,-3.9697,-3.9697,-3.9697,-3.9697,-3.9735,-4.0237,-4.0576,-4.0852,-4.094,-4.1078,-4.0915,-4.0626,-4.0425,-4.0109,-3.9715,-3.9332,-3.9407,-3.9566,-3.995,-4.048,-4.076,-4.0412,-3.9447,-3.9255,-3.9401,-3.9111,-3.8707,-3.8623,-3.8527,-3.8298,-3.8118,-3.8082,-3.7974,-3.7974,-3.7974,-3.7974,-3.7974,-3.7986,-3.7773,-3.7518,-3.7089,-3.6657,-3.6375,-3.6157,-3.5367,-3.4469,-3.3628,-3.3187,-3.2732,-4.7581,-4.7553,-4.7091,-4.6916,-4.6844,-4.6388,-4.6314,-4.6462,-4.609,-4.588,-4.588,-4.588,-4.588,-4.588,-4.588,-4.588,-4.588,-4.588,-4.588,-4.588,-4.588,-4.588,-4.588,-4.588,-4.588,-4.588,-4.588,-4.588,-4.588,-4.588,-4.588,-4.57,-4.5321,-4.4894,-4.4355,-4.317,-4.1967,-4.1084,-4.0883,-4.0249,-3.9852,-3.9697,-3.9697,-3.9697,-3.9697,-3.9697,-3.9697,-3.9697,-3.9697,-3.9697,-3.9697,-3.9697,-3.9697,-3.9697,-3.9697,-3.9697,-3.9697,-3.9697,-3.9697,-3.9697,-3.9697,-3.9697,-3.9697,-3.9697,-3.9697,-3.9697,-3.9697,-3.9697,-3.9697,-3.9697,-3.9873,-4.0099,-4.0312,-4.0425,-4.0501,-4.0501,-4.0337,-4.0249,-4.0049,-3.9909,-3.9615,-3.9322,-3.9322,-3.9422,-3.9658,-4.0106,-4.0575,-4.0133,-3.905,-3.8752,-3.897,-3.8736,-3.8346,-3.8298,-3.825,-3.8118,-3.7986,-3.7974,-3.7974,-3.7974,-3.7974,-3.7974,-3.7974,-3.7986,-3.7613,-3.7185,-3.6862,-3.6592,-3.5806,-3.4914,-3.4525,-3.3685,-3.2846,-3.217,-3.1835,-4.7525,-4.7381,-4.7366,-4.7279,-4.7062,-4.6491,-4.6254,-4.6269,-4.6046,-4.588,-4.588,-4.588,-4.588,-4.588,-4.588,-4.588,-4.588,-4.588,-4.588,-4.588,-4.588,-4.588,-4.588,-4.588,-4.588,-4.588,-4.588,-4.588,-4.588,-4.588,-4.588,-4.57,-4.494,-4.4415,-4.3993,-4.3026,-4.1904,-4.1458,-4.0769,-3.9942,-3.9749,-3.9697,-3.9697,-3.9697,-3.9697,-3.9697,-3.9697,-3.9697,-3.9697,-3.9697,-3.9697,-3.9697,-3.9697,-3.9697,-3.9697,-3.9697,-3.9697,-3.9697,-3.9697,-3.9697,-3.9697,-3.9697,-3.9697,-3.9697,-3.9697,-3.9697,-3.9697,-3.9697,-3.9697,-3.9697,-3.9785,-3.9823,-3.9936,-3.9936,-3.9973,-3.9973,-3.9885,-3.9848,-3.976,-3.9721,-3.9478,-3.9374,-3.9322,-3.9426,-3.9665,-3.9663,-4.0059,-3.9689,-3.8721,-3.8489,-3.8534,-3.835,-3.807,-3.8034,-3.7974,-3.7974,-3.7974,-3.7974,-3.7974,-3.7974,-3.7974,-3.7974,-3.7974,-3.7974,-3.74,-3.6808,-3.6309,-3.5642,-3.4346,-3.3515,-3.3233,-3.2799,-3.195,-3.145,-3.1286,-4.7596,-4.7439,-4.7467,-4.7381,-4.7077,-4.658,-4.6269,-4.609,-4.597,-4.588,-4.588,-4.588,-4.588,-4.588,-4.588,-4.588,-4.588,-4.588,-4.588,-4.588,-4.588,-4.588,-4.588,-4.588,-4.588,-4.588,-4.588,-4.588,-4.588,-4.588,-4.564,-4.517,-4.4448,-4.3946,-4.341,-4.2528,-4.1842,-4.1408,-4.063,-4.0096,-3.9852,-3.9697,-3.9697,-3.9697,-3.9697,-3.9697,-3.9697,-3.9697,-3.9697,-3.9697,-3.9697,-3.9697,-3.9697,-3.9697,-3.9697,-3.9697,-3.9697,-3.9697,-3.9697,-3.9697,-3.9697,-3.9697,-3.9697,-3.9697,-3.9697,-3.9697,-3.9697,-3.9697,-3.9697,-3.9697,-3.9697,-3.9697,-3.9697,-3.971,-3.971,-3.9722,-3.9722,-3.9697,-3.9697,-3.9633,-3.9581,-3.9478,-3.9426,-3.953,-3.9708,-3.9631,-3.9528,-3.905,-3.8619,-3.8461,-3.8303,-3.8133,-3.8027,-3.7974,-3.7974,-3.7974,-3.7974,-3.7974,-3.7974,-3.7974,-3.7974,-3.7974,-3.7974,-3.7868,-3.7227,-3.6472,-3.5532,-3.458,-3.3515,-3.2732,-3.2285,-3.173,-3.1005,-3.0898,-3.0898,-4.7837,-4.7581,-4.7396,-4.7207,-4.6931,-4.6712,-4.6328,-4.5925,-4.5925,-4.5925,-4.588,-4.588,-4.588,-4.588,-4.588,-4.588,-4.588,-4.588,-4.588,-4.588,-4.588,-4.588,-4.588,-4.588,-4.588,-4.588,-4.588,-4.588,-4.588,-4.5671,-4.5201,-4.4541,-4.3871,-4.3252,-4.2528,-4.1904,-4.1408,-4.1021,-4.063,-4.0134,-3.9788,-3.9697,-3.9697,-3.9697,-3.9697,-3.9697,-3.9697,-3.9697,-3.9697,-3.9697,-3.9697,-3.9697,-3.9697,-3.9697,-3.9697,-3.9697,-3.9697,-3.9697,-3.9697,-3.9697,-3.9697,-3.9697,-3.9697,-3.9697,-3.9697,-3.9697,-3.9697,-3.9697,-3.9697,-3.9697,-3.9697,-3.9697,-3.9697,-3.9697,-3.9697,-3.9697,-3.9697,-3.9697,-3.9697,-3.9697,-3.9697,-3.9645,-3.9645,-3.9697,-3.9697,-3.9645,-3.953,-3.931,-3.8893,-3.8514,-3.8356,-3.8198,-3.8092,-3.8027,-3.7974,-3.7974,-3.7974,-3.7974,-3.7974,-3.7974,-3.7974,-3.7921,-3.7814,-3.7548,-3.6958,-3.6025,-3.4525,-3.3572,-3.2846,-3.218,-3.173,-3.145,-3.0947,-3.0898,-3.0898,-4.7895,-4.7424,-4.7681,-4.7538,-4.7164,-4.6946,-4.6462,-4.597,-4.606,-4.6046,-4.588,-4.588,-4.588,-4.588,-4.588,-4.588,-4.588,-4.588,-4.588,-4.588,-4.588,-4.588,-4.588,-4.588,-4.588,-4.588,-4.588,-4.588,-4.573,-4.5475,-4.4957,-4.4355,-4.3129,-4.2257,-4.1544,-4.082,-4.0769,-4.0681,-4.0338,-4.0044,-3.9788,-3.9697,-3.9697,-3.9749,-3.9697,-3.9697,-3.9749,-3.9749,-3.9749,-3.9697,-3.9697,-3.9697,-3.9697,-3.9697,-3.9697,-3.9697,-3.9697,-3.9697,-3.9697,-3.9697,-3.9697,-3.9697,-3.9697,-3.9697,-3.9697,-3.9697,-3.9697,-3.9697,-3.9697,-3.9697,-3.9697,-3.9697,-3.9697,-3.9697,-3.9697,-3.9697,-3.9697,-3.9697,-3.9697,-3.9697,-3.9697,-3.9697,-3.9697,-3.9697,-3.9697,-3.9697,-3.9594,-3.9426,-3.9102,-3.8736,-3.8409,-3.825,-3.8092,-3.8027,-3.7974,-3.7974,-3.7974,-3.7974,-3.7974,-3.7974,-3.7974,-3.7868,-3.7655,-3.7173,-3.646,-3.4914,-3.313,-3.2524,-3.2399,-3.1787,-3.1334,-3.1112,-3.0947,-3.0947,-3.0898,-4.7964,-4.751,-4.7724,-4.7553,-4.7077,-4.7062,-4.6639,-4.6015,-4.609,-4.609,-4.5925,-4.588,-4.588,-4.588,-4.588,-4.588,-4.588,-4.588,-4.588,-4.588,-4.588,-4.588,-4.588,-4.588,-4.588,-4.588,-4.588,-4.588,-4.564,-4.5049,-4.4494,-4.343,-4.2097,-4.1531,-4.092,-4.0351,-4.0083,-4.0096,-3.9993,-3.9749,-3.9697,-3.9697,-3.9749,-3.9839,-3.9775,-3.9736,-3.9839,-3.9839,-3.9839,-3.9749,-3.9749,-3.9788,-3.9749,-3.9697,-3.9697,-3.9697,-3.9697,-3.9697,-3.9697,-3.9697,-3.9697,-3.9697,-3.9697,-3.9697,-3.9697,-3.9697,-3.9697,-3.9697,-3.9697,-3.9697,-3.9697,-3.9697,-3.9697,-3.9697,-3.9697,-3.9697,-3.9697,-3.9697,-3.9697,-3.9697,-3.9697,-3.9697,-3.9697,-3.9697,-3.9697,-3.9697,-3.9697,-3.9594,-3.9322,-3.8945,-3.8631,-3.8356,-3.8145,-3.7974,-3.7974,-3.7974,-3.7974,-3.7974,-3.7974,-3.7974,-3.7974,-3.7868,-3.7601,-3.6839,-3.5916,-3.4525,-3.3243,-3.2571,-3.2238,-3.1672,-3.117,-3.1005,-3.0947,-3.0947,-3.0898,-4.8049,-4.7581,-4.7581,-4.7251,-4.6785,-4.7121,-4.6771,-4.6015,-4.618,-4.609,-4.5925,-4.588,-4.588,-4.588,-4.588,-4.588,-4.588,-4.588,-4.588,-4.588,-4.588,-4.588,-4.588,-4.588,-4.588,-4.588,-4.573,-4.5444,-4.5398,-4.4773,-4.3762,-4.2452,-4.19,-4.1332,-4.0593,-4.0044,-3.9788,-3.98,-3.98,-3.9697,-3.9697,-3.9749,-3.9839,-3.9968,-3.9929,-3.9826,-4.0083,-4.0083,-4.0032,-3.9942,-3.989,-3.9942,-3.9788,-3.9697,-3.9697,-3.9697,-3.9697,-3.9697,-3.9697,-3.9697,-3.9697,-3.9697,-3.9697,-3.9697,-3.9697,-3.9697,-3.9697,-3.9697,-3.9697,-3.9697,-3.9697,-3.9697,-3.9697,-3.9697,-3.9697,-3.9697,-3.9697,-3.9697,-3.9697,-3.9697,-3.9697,-3.9697,-3.9697,-3.9697,-3.9645,-3.9645,-3.9645,-3.9594,-3.9426,-3.9062,-3.8788,-3.8461,-3.8303,-3.808,-3.7974,-3.7974,-3.7974,-3.7974,-3.7974,-3.7974,-3.7974,-3.7814,-3.7548,-3.6677,-3.5751,-3.5024,-3.4078,-3.313,-3.2295,-3.1787,-3.1392,-3.1064,-3.0947,-3.0947,-3.0898,-4.816,-4.7581,-4.7424,-4.7251,-4.7164,-4.7266,-4.7005,-4.6462,-4.6447,-4.6269,-4.597,-4.588,-4.588,-4.588,-4.588,-4.588,-4.588,-4.588,-4.588,-4.588,-4.588,-4.588,-4.588,-4.588,-4.588,-4.5685,-4.5338,-4.4911,-4.4415,-4.3932,-4.3457,-4.2493,-4.1828,-4.1145,-4.0504,-4.0006,-3.9697,-3.9697,-3.9697,-3.9697,-3.9697,-3.9736,-3.9826,-3.9981,-4.0032,-4.0134,-4.0287,-4.0389,-4.0236,-4.0083,-4.0083,-3.9942,-3.9749,-3.9697,-3.9697,-3.9697,-3.9697,-3.9697,-3.9697,-3.9697,-3.9697,-3.9697,-3.9697,-3.9697,-3.9697,-3.9697,-3.9697,-3.9697,-3.9697,-3.9697,-3.9697,-3.9697,-3.9697,-3.9697,-3.9697,-3.9697,-3.9697,-3.9697,-3.9697,-3.9697,-3.9697,-3.9697,-3.9633,-3.9633,-3.9594,-3.9478,-3.9426,-3.9362,-3.931,-3.905,-3.8905,-3.8631,-3.8409,-3.825,-3.808,-3.7974,-3.7974,-3.7974,-3.7974,-3.7974,-3.7974,-3.7708,-3.7388,-3.646,-3.563,-3.4969,-3.419,-3.313,-3.2352,-3.1903,-3.1566,-3.1228,-3.1005,-3.0947,-3.0947,-4.8328,-4.788,-4.7538,-4.7294,-4.7149,-4.7266,-4.699,-4.6491,-4.655,-4.6328,-4.5925,-4.588,-4.588,-4.588,-4.588,-4.588,-4.588,-4.588,-4.588,-4.588,-4.588,-4.588,-4.588,-4.588,-4.588,-4.573,-4.5444,-4.4865,-4.3743,-4.3505,-4.317,-4.2115,-4.1408,-4.0958,-4.0453,-4.0006,-3.9697,-3.9697,-3.9697,-3.9697,-3.9697,-3.9736,-3.9839,-4.0032,-4.0134,-4.03,-4.0453,-4.0555,-4.044,-4.0173,-3.9981,-3.989,-3.9749,-3.9697,-3.9697,-3.9697,-3.9697,-3.9697,-3.9697,-3.9697,-3.9697,-3.9697,-3.9697,-3.9697,-3.9697,-3.9697,-3.9697,-3.9697,-3.9697,-3.9697,-3.9697,-3.9697,-3.9697,-3.9697,-3.9697,-3.9697,-3.9697,-3.9697,-3.9697,-3.9697,-3.9697,-3.9697,-3.9697,-3.9633,-3.9581,-3.949,-3.9374,-3.9362,-3.9258,-3.9102,-3.8945,-3.8736,-3.8473,-3.825,-3.808,-3.7974,-3.7974,-3.7974,-3.7974,-3.7974,-3.7974,-3.7601,-3.7173,-3.646,-3.5751,-3.5091,-3.4201,-3.3187,-3.241,-3.1903,-3.1672,-3.145,-3.1228,-3.1064,-3.1054,-4.8453,-4.8202,-4.7794,-4.7366,-4.7004,-4.7207,-4.6902,-4.6343,-4.6506,-4.6328,-4.5925,-4.588,-4.588,-4.588,-4.588,-4.588,-4.588,-4.588,-4.588,-4.588,-4.588,-4.588,-4.5821,-4.573,-4.5535,-4.5261,-4.4972,-4.4261,-4.3362,-4.3266,-4.2736,-4.1498,-4.101,-4.0694,-4.0453,-4.0096,-3.9788,-3.9788,-3.9736,-3.9697,-3.9697,-3.9697,-3.989,-4.0032,-4.0134,-4.03,-4.0542,-4.0694,-4.063,-4.0377,-4.0032,-3.9942,-3.9839,-3.9788,-3.9749,-3.9749,-3.9697,-3.9697,-3.9697,-3.9697,-3.9697,-3.9697,-3.9697,-3.9697,-3.9697,-3.9697,-3.9697,-3.9697,-3.9697,-3.9697,-3.9697,-3.9697,-3.9697,-3.9697,-3.9697,-3.9697,-3.9697,-3.9697,-3.9697,-3.9697,-3.9697,-3.9697,-3.9697,-3.9685,-3.9581,-3.9426,-3.9374,-3.9426,-3.9362,-3.9206,-3.905,-3.8736,-3.8421,-3.8198,-3.8027,-3.7974,-3.7974,-3.7974,-3.7974,-3.7974,-3.7921,-3.7761,-3.7388,-3.6754,-3.6036,-3.5146,-3.4312,-3.3356,-3.2628,-3.196,-3.1903,-3.174,-3.1508,-3.1334,-3.1276,-4.837,-4.8049,-4.7709,-4.7467,-4.7251,-4.7266,-4.699,-4.6594,-4.655,-4.6328,-4.6015,-4.588,-4.588,-4.588,-4.588,-4.588,-4.588,-4.588,-4.588,-4.588,-4.588,-4.588,-4.5776,-4.5535,-4.468,-4.4387,-4.4059,-4.3095,-4.3122,-4.3026,-4.2457,-4.1361,-4.1904,-4.1508,-4.0744,-4.0389,-4.0032,-3.9981,-3.989,-3.9788,-3.9749,-3.9788,-3.989,-4.0096,-4.03,-4.0542,-4.0846,-4.1097,-4.0997,-4.0795,-4.044,-4.0198,-4.0044,-3.9929,-3.989,-3.9749,-3.9697,-3.9697,-3.9697,-3.9697,-3.9697,-3.9697,-3.9697,-3.9697,-3.9697,-3.9697,-3.9697,-3.9697,-3.9697,-3.9697,-3.9697,-3.9697,-3.9697,-3.9697,-3.9697,-3.9697,-3.9697,-3.9697,-3.9697,-3.9697,-3.9697,-3.9697,-3.9697,-3.9633,-3.953,-3.9426,-3.9426,-3.9413,-3.9374,-3.9206,-3.9102,-3.8788,-3.8421,-3.8198,-3.8027,-3.8027,-3.7974,-3.7974,-3.7974,-3.7868,-3.7868,-3.7974,-3.7548,-3.6352,-3.5708,-3.498,-3.4145,-3.3197,-3.281,-3.2258,-3.2248,-3.2086,-3.1787,-3.1556,-3.1441]},{"header":{"parameterUnit":"m.s-1","parameterCategory":1,"la1":31.0,"la2":29.5877,"lo1":-88.7671,"lo2":-86.6584,"dy":0.0162,"dx":0.0185,"nx":115,"ny":88,"refTime":"2024-07-06T06:00:00:Z","depth":0,"parameterNumber":3,"parameterNumberName":"V-component_of_WINDS"},"data":[0.0,0.0,0.0,0.0,0.0,0.0,0.0,0.0,0.0,0.0,0.0,0.0,0.0,0.0,0.0,0.0,0.0,0.0,0.0,0.0,0.0,0.0,0.0,0.0,0.0,0.0,0.0,0.0,0.0,0.0,0.0,0.0,0.0,0.0,0.0,0.0,0.0,0.0,0.0,0.0,0.0,0.0,0.0,0.0,0.0,0.0,0.0,0.0,0.0,0.0,0.0,0.0,0.0,0.0,0.0,0.0,0.0,0.0,0.0,0.0,0.0,0.0,0.0,0.0,0.0,0.0,0.0,0.0,0.0,0.0,0.0,0.0,0.0,0.0,0.0,0.0,0.0,0.0,0.0,0.0,0.0,0.0,0.0,0.0,0.0,0.0,0.0,0.0,0.0,0.0,0.0,0.0,0.0,0.0,0.0,0.0,0.0,0.0,0.0,0.0,0.0,0.0,0.0,0.0,0.0,0.0,0.0,0.0,0.0,0.0,0.0,0.0,0.0,0.0,0.0,0.0,0.0,0.0,0.0,0.0,0.0,0.0,0.0,0.0,0.0,0.0,0.0,0.0,0.0,0.0,0.0,0.0,0.0,0.0,0.0,0.0,0.0,0.0,0.0,0.0,0.0,0.0,0.0,0.0,0.0,0.0,0.0,0.0,0.0,0.0,0.0,0.0,0.0,0.0,0.0,0.0,0.0,0.0,0.0,0.0,0.0,0.0,0.0,0.0,0.0,0.0,0.0,0.0,0.0,0.0,0.0,0.0,0.0,0.0,0.0,0.0,0.0,0.0,0.0,0.0,0.0,0.0,0.0,0.0,0.0,0.0,0.0,0.0,0.0,0.0,0.0,0.0,0.0,0.0,0.0,0.0,0.0,0.0,0.0,0.0,0.0,0.0,0.0,0.0,0.0,0.0,0.0,0.0,0.0,0.0,0.0,0.0,0.0,0.0,0.0,0.0,0.0,0.0,0.0,0.0,0.0,0.0,0.0,0.0,0.0,0.0,0.0,0.0,0.0,0.0,0.0,0.0,0.0,0.0,0.0,0.0,0.0,0.0,0.0,0.0,0.0,0.0,0.0,0.0,0.0,0.0,0.0,0.0,0.0,0.0,0.0,0.0,0.0,0.0,0.0,0.0,0.0,0.0,0.0,0.0,0.0,0.0,0.0,0.0,0.0,0.0,0.0,0.0,0.0,0.0,0.0,0.0,0.0,0.0,0.0,0.0,0.0,0.0,0.0,0.0,0.0,0.0,0.0,0.0,0.0,0.0,0.0,0.0,0.0,0.0,0.0,0.0,0.0,0.0,0.0,0.0,0.0,0.0,0.0,0.0,0.0,0.0,0.0,0.0,0.0,0.0,0.0,0.0,0.0,0.0,0.0,0.0,0.0,0.0,0.0,0.0,0.0,0.0,0.0,0.0,0.0,0.0,0.0,0.0,0.0,0.0,0.0,0.0,0.0,0.0,0.0,0.0,0.0,0.0,0.0,0.0,0.0,0.0,0.0,0.0,0.0,0.0,0.0,0.0,0.0,0.0,0.0,0.0,0.0,0.0,0.0,0.0,0.0,0.0,0.0,0.0,0.0,0.0,0.0,0.0,0.0,0.0,0.0,0.0,0.0,0.0,0.0,0.0,0.0,0.0,0.0,0.0,0.0,0.0,0.0,0.0,0.0,0.0,0.0,0.0,0.0,0.0,0.0,0.0,0.0,0.0,0.0,0.0,0.0,0.0,0.0,0.0,0.0,0.0,0.0,0.0,0.0,0.0,0.0,0.0,0.0,0.0,0.0,0.0,0.0,0.0,0.0,0.0,0.0,0.0,0.0,0.0,0.0,0.0,0.0,0.0,0.0,0.0,0.0,0.0,0.0,0.0,0.0,0.0,0.0,0.0,0.0,0.0,0.0,0.0,0.0,0.0,0.0,0.0,0.0,0.0,0.0,0.0,0.0,0.0,0.0,0.0,0.0,0.0,0.0,0.0,0.0,0.0,0.0,0.0,0.0,0.0,0.0,0.0,0.0,0.0,0.0,0.0,0.0,0.0,0.0,0.0,0.0,0.0,0.0,0.0,0.0,0.0,0.0,0.0,0.0,0.0,0.0,0.0,0.0,0.0,0.0,0.0,0.0,0.0,0.0,0.0,0.0,0.0,0.0,0.0,0.0,0.0,0.0,0.0,0.0,0.0,0.0,0.0,0.0,0.0,0.0,0.0,0.0,0.0,0.0,0.0,0.0,0.0,0.0,0.0,0.0,0.0,0.0,0.0,0.0,0.0,0.0,0.0,0.0,0.0,0.0,0.0,0.0,0.0,0.0,0.0,0.0,0.0,0.0,0.0,0.0,0.0,0.0,0.0,0.0,0.0,0.0,0.0,0.0,0.0,0.0,0.0,0.0,0.0,0.0,0.0,0.0,0.0,0.0,0.0,0.0,0.0,0.0,0.0,0.0,0.0,0.0,0.0,0.0,0.0,0.0,0.0,0.0,0.0,0.0,0.0,0.0,0.0,0.0,0.0,0.0,0.0,0.0,0.0,0.0,0.0,0.0,0.0,0.0,0.0,0.0,0.0,0.0,0.0,0.0,0.0,0.0,0.0,0.0,0.0,0.0,0.0,0.0,0.0,0.0,0.0,0.0,0.0,0.0,0.0,0.0,0.0,0.0,0.0,0.0,0.0,0.0,0.0,0.0,0.0,0.0,0.0,0.0,0.0,0.0,0.0,0.0,0.0,0.0,0.0,0.0,0.0,0.0,0.0,0.0,0.0,0.0,0.0,0.0,0.0,0.0,0.0,0.0,0.0,0.0,0.0,0.0,0.0,0.0,0.0,0.0,0.0,0.0,0.0,0.0,0.0,0.0,0.0,0.0,0.0,0.0,0.0,0.0,0.0,0.0,0.0,0.0,0.0,0.0,0.0,0.0,0.0,0.0,0.0,0.0,0.0,0.0,0.0,0.0,0.0,0.0,0.0,0.0,0.0,0.0,0.0,0.0,0.0,0.0,0.0,0.0,0.0,0.0,0.0,0.0,0.0,0.0,0.0,0.0,0.0,0.0,0.0,0.0,0.0,0.0,0.0,0.0,0.0,0.0,0.0,0.0,0.0,0.0,0.0,0.0,0.0,0.0,0.0,0.0,0.0,0.0,0.0,0.0,0.0,0.0,0.0,0.0,0.0,0.0,0.0,0.0,0.0,0.0,0.0,0.0,0.0,0.0,0.0,0.0,0.0,0.0,0.0,0.0,0.0,0.0,0.0,0.0,0.0,0.0,0.0,0.0,0.0,0.0,0.0,0.0,0.0,0.0,0.0,0.0,0.0,0.0,0.0,0.0,0.0,0.0,0.0,0.0,0.0,0.0,0.0,0.0,0.0,0.0,0.0,0.0,0.0,0.0,0.0,0.0,0.0,0.0,0.0,0.0,0.0,0.0,0.0,0.0,0.0,0.0,0.0,0.0,0.0,0.0,0.0,0.0,0.0,0.0,0.0,0.0,0.0,0.0,0.0,0.0,0.0,0.0,0.0,0.0,0.0,0.0,0.0,0.0,0.0,0.0,0.0,0.0,0.0,0.0,0.0,0.0,0.0,0.0,0.0,0.0,0.0,0.0,0.0,0.0,0.0,0.0,0.0,0.0,0.0,0.0,0.0,0.0,0.0,0.0,0.0,0.0,0.0,0.0,0.0,0.0,0.0,0.0,0.0,0.0,0.0,0.0,0.0,0.0,0.0,0.0,0.0,0.0,0.0,0.0,0.0,0.0,0.0,0.0,0.0,0.0,0.0,0.0,0.0,0.0,0.0,0.0,0.0,0.0,0.0,0.0,0.0,0.0,0.0,0.0,0.0,0.0,0.0,0.0,0.0,0.0,0.0,0.0,0.0,0.0,0.0,0.0,0.0,0.0,0.0,0.0,0.0,0.0,0.0,0.0,0.0,0.0,0.0,0.0,0.0,0.0,0.0,0.0,0.0,0.0,0.0,0.0,0.0,0.0,0.0,0.0,0.0,0.0,0.0,0.0,0.0,0.0,0.0,0.0,0.0,0.0,0.0,0.0,0.0,0.0,0.0,0.0,0.0,0.0,0.0,0.0,0.0,0.0,0.0,0.0,0.0,0.0,0.0,0.0,0.0,0.0,0.0,0.0,0.0,0.0,0.0,0.0,0.0,0.0,0.0,0.0,0.0,0.0,0.0,0.0,0.0,0.0,0.0,0.0,0.0,0.0,0.0,0.0,0.0,0.0,0.0,0.0,0.0,0.0,0.0,0.0,0.0,0.0,0.0,0.0,0.0,0.0,0.0,-2.5598,0.0,0.0,0.0,0.0,0.0,0.0,0.0,0.0,0.0,0.0,0.0,0.0,0.0,0.0,0.0,0.0,0.0,0.0,0.0,0.0,0.0,0.0,0.0,0.0,0.0,0.0,0.0,0.0,0.0,0.0,0.0,0.0,0.0,0.0,0.0,0.0,0.0,0.0,0.0,0.0,0.0,0.0,0.0,0.0,0.0,0.0,0.0,0.0,0.0,0.0,0.0,0.0,0.0,0.0,0.0,0.0,0.0,0.0,0.0,0.0,0.0,0.0,0.0,0.0,0.0,0.0,0.0,0.0,0.0,0.0,0.0,0.0,0.0,0.0,0.0,0.0,0.0,0.0,0.0,0.0,0.0,0.0,0.0,0.0,0.0,0.0,0.0,0.0,0.0,0.0,0.0,0.0,0.0,0.0,0.0,0.0,0.0,0.0,0.0,0.0,0.0,0.0,0.0,0.0,0.0,0.0,0.0,0.0,0.0,0.0,-2.7888,-2.7406,-2.7392,-2.687,-2.5822,0.0,0.0,0.0,0.0,0.0,0.0,0.0,0.0,0.0,0.0,0.0,0.0,0.0,0.0,0.0,0.0,0.0,0.0,0.0,0.0,0.0,0.0,0.0,0.0,0.0,0.0,0.0,0.0,0.0,0.0,0.0,0.0,0.0,0.0,0.0,0.0,0.0,0.0,0.0,0.0,0.0,0.0,0.0,0.0,0.0,0.0,0.0,0.0,0.0,0.0,0.0,0.0,0.0,0.0,0.0,0.0,0.0,0.0,0.0,0.0,0.0,0.0,0.0,0.0,0.0,0.0,0.0,0.0,0.0,0.0,0.0,0.0,0.0,0.0,0.0,0.0,0.0,0.0,0.0,0.0,0.0,0.0,0.0,0.0,0.0,0.0,0.0,0.0,0.0,0.0,0.0,0.0,0.0,0.0,0.0,0.0,0.0,0.0,0.0,0.0,0.0,0.0,0.0,0.0,0.0,0.0,0.0,0.0,0.0,0.0,0.0,0.0,-2.7708,-2.7113,-2.6356,0.0,0.0,0.0,0.0,0.0,0.0,0.0,0.0,0.0,0.0,0.0,0.0,0.0,0.0,0.0,0.0,0.0,0.0,0.0,0.0,0.0,0.0,0.0,0.0,0.0,0.0,0.0,0.0,0.0,0.0,0.0,0.0,0.0,0.0,0.0,0.0,0.0,0.0,0.0,0.0,0.0,0.0,0.0,0.0,0.0,0.0,0.0,0.0,0.0,0.0,0.0,0.0,0.0,0.0,0.0,0.0,0.0,0.0,0.0,0.0,0.0,0.0,0.0,0.0,0.0,0.0,0.0,0.0,0.0,0.0,0.0,0.0,0.0,0.0,0.0,0.0,0.0,0.0,0.0,0.0,0.0,0.0,0.0,0.0,0.0,0.0,0.0,0.0,0.0,0.0,0.0,0.0,0.0,0.0,0.0,0.0,0.0,0.0,0.0,0.0,0.0,0.0,0.0,0.0,0.0,0.0,0.0,0.0,0.0,0.0,-2.7507,-2.9031,-2.8318,0.0,-2.7085,0.0,0.0,0.0,0.0,0.0,0.0,0.0,0.0,0.0,0.0,0.0,0.0,0.0,0.0,0.0,0.0,0.0,0.0,0.0,0.0,0.0,0.0,0.0,0.0,0.0,0.0,0.0,0.0,0.0,0.0,0.0,0.0,0.0,0.0,0.0,0.0,0.0,0.0,0.0,0.0,0.0,0.0,0.0,0.0,0.0,0.0,0.0,0.0,0.0,0.0,0.0,0.0,0.0,0.0,0.0,0.0,0.0,0.0,0.0,0.0,0.0,0.0,0.0,0.0,0.0,0.0,0.0,0.0,0.0,0.0,0.0,0.0,0.0,0.0,0.0,0.0,0.0,0.0,0.0,0.0,0.0,0.0,0.0,0.0,0.0,0.0,0.0,0.0,0.0,0.0,0.0,0.0,0.0,0.0,0.0,0.0,0.0,0.0,0.0,0.0,0.0,0.0,0.0,0.0,0.0,0.0,0.0,0.0,0.0,0.0,-2.7666,-2.9336,-2.8399,-2.7382,0.0,0.0,0.0,0.0,0.0,0.0,0.0,0.0,0.0,0.0,0.0,0.0,0.0,0.0,0.0,0.0,0.0,0.0,0.0,0.0,0.0,0.0,0.0,0.0,0.0,0.0,0.0,0.0,0.0,0.0,0.0,0.0,0.0,0.0,0.0,0.0,0.0,0.0,0.0,0.0,0.0,0.0,0.0,0.0,0.0,0.0,0.0,0.0,0.0,0.0,0.0,0.0,0.0,0.0,0.0,0.0,0.0,0.0,0.0,0.0,0.0,0.0,0.0,0.0,0.0,0.0,0.0,0.0,0.0,0.0,0.0,0.0,0.0,0.0,0.0,0.0,0.0,0.0,0.0,0.0,0.0,0.0,0.0,0.0,0.0,0.0,0.0,0.0,0.0,0.0,0.0,0.0,0.0,0.0,0.0,0.0,0.0,0.0,0.0,0.0,0.0,0.0,0.0,0.0,0.0,0.0,0.0,0.0,0.0,0.0,-2.7511,-2.7921,-2.9389,-2.8418,-2.7352,-2.6317,0.0,0.0,0.0,0.0,0.0,0.0,0.0,0.0,0.0,0.0,0.0,0.0,0.0,0.0,0.0,0.0,0.0,0.0,0.0,0.0,0.0,0.0,0.0,0.0,0.0,0.0,0.0,0.0,0.0,0.0,0.0,0.0,0.0,0.0,0.0,0.0,0.0,0.0,0.0,0.0,0.0,0.0,0.0,0.0,0.0,0.0,0.0,0.0,0.0,0.0,0.0,0.0,0.0,0.0,0.0,0.0,0.0,0.0,0.0,0.0,0.0,0.0,0.0,0.0,0.0,0.0,0.0,0.0,0.0,0.0,0.0,0.0,0.0,0.0,0.0,0.0,0.0,0.0,0.0,0.0,0.0,0.0,0.0,0.0,0.0,0.0,0.0,0.0,0.0,0.0,0.0,0.0,0.0,0.0,0.0,0.0,0.0,0.0,0.0,0.0,0.0,0.0,0.0,0.0,0.0,0.0,0.0,0.0,-3.0094,-2.8436,-2.8195,-2.9583,-2.8527,-2.783,0.0,0.0,0.0,0.0,0.0,0.0,0.0,0.0,0.0,0.0,0.0,0.0,0.0,0.0,0.0,0.0,0.0,0.0,0.0,0.0,0.0,0.0,0.0,0.0,0.0,0.0,0.0,0.0,0.0,0.0,0.0,0.0,0.0,0.0,0.0,0.0,0.0,0.0,0.0,0.0,0.0,0.0,0.0,0.0,0.0,0.0,0.0,0.0,0.0,0.0,0.0,0.0,0.0,0.0,0.0,0.0,0.0,0.0,0.0,0.0,0.0,0.0,0.0,0.0,0.0,0.0,0.0,0.0,0.0,0.0,0.0,0.0,0.0,0.0,0.0,0.0,0.0,0.0,0.0,0.0,0.0,0.0,0.0,0.0,0.0,0.0,0.0,0.0,0.0,0.0,0.0,0.0,0.0,0.0,0.0,0.0,0.0,0.0,0.0,0.0,0.0,0.0,0.0,0.0,0.0,0.0,0.0,0.0,0.0,-2.7631,-2.805,-2.8427,-2.8821,-2.8165,-2.7605,0.0,0.0,0.0,0.0,0.0,0.0,0.0,0.0,0.0,0.0,0.0,0.0,0.0,0.0,0.0,0.0,0.0,0.0,0.0,0.0,0.0,0.0,0.0,0.0,0.0,0.0,0.0,0.0,0.0,0.0,0.0,0.0,0.0,0.0,0.0,0.0,0.0,0.0,0.0,0.0,0.0,0.0,0.0,0.0,0.0,0.0,0.0,0.0,0.0,0.0,0.0,0.0,0.0,0.0,0.0,0.0,0.0,0.0,0.0,0.0,0.0,0.0,0.0,0.0,0.0,0.0,0.0,0.0,0.0,0.0,0.0,0.0,0.0,0.0,0.0,0.0,0.0,0.0,0.0,0.0,0.0,0.0,0.0,0.0,0.0,0.0,0.0,0.0,0.0,0.0,0.0,0.0,0.0,0.0,0.0,0.0,0.0,0.0,0.0,0.0,0.0,0.0,0.0,0.0,0.0,0.0,0.0,0.0,0.0,-2.6902,0.0,-2.8746,-2.8561,-2.8106,-2.7396,0.0,0.0,0.0,0.0,0.0,0.0,0.0,0.0,0.0,0.0,0.0,0.0,0.0,0.0,0.0,0.0,0.0,0.0,0.0,0.0,0.0,0.0,0.0,0.0,0.0,0.0,0.0,0.0,0.0,0.0,0.0,0.0,0.0,0.0,0.0,0.0,0.0,0.0,0.0,0.0,0.0,0.0,0.0,0.0,0.0,0.0,0.0,0.0,0.0,0.0,0.0,0.0,0.0,0.0,0.0,0.0,0.0,0.0,0.0,0.0,0.0,0.0,0.0,0.0,0.0,0.0,0.0,0.0,0.0,0.0,0.0,0.0,0.0,0.0,0.0,0.0,0.0,0.0,0.0,0.0,0.0,0.0,0.0,0.0,0.0,0.0,0.0,0.0,0.0,0.0,0.0,0.0,0.0,0.0,0.0,0.0,0.0,0.0,0.0,0.0,0.0,0.0,0.0,0.0,0.0,0.0,0.0,0.0,-2.6321,-2.8334,-2.9006,-2.919,-2.8869,-2.8361,-2.721,0.0,0.0,0.0,0.0,0.0,0.0,0.0,0.0,0.0,0.0,0.0,0.0,0.0,0.0,0.0,0.0,0.0,0.0,0.0,0.0,0.0,0.0,0.0,0.0,0.0,0.0,0.0,0.0,0.0,0.0,0.0,0.0,0.0,0.0,0.0,0.0,0.0,0.0,0.0,0.0,0.0,0.0,0.0,0.0,0.0,0.0,0.0,0.0,0.0,0.0,0.0,0.0,0.0,0.0,0.0,0.0,0.0,0.0,0.0,0.0,0.0,0.0,0.0,0.0,0.0,0.0,0.0,0.0,0.0,0.0,0.0,0.0,0.0,0.0,0.0,0.0,0.0,0.0,0.0,0.0,0.0,0.0,0.0,0.0,0.0,0.0,0.0,0.0,0.0,0.0,0.0,0.0,0.0,0.0,0.0,0.0,0.0,0.0,0.0,0.0,0.0,0.0,0.0,0.0,0.0,0.0,0.0,0.0,0.0,-2.6528,-2.7916,-2.8632,-2.8603,-2.7528,-2.6973,0.0,0.0,0.0,0.0,0.0,0.0,0.0,0.0,0.0,0.0,0.0,0.0,0.0,0.0,0.0,0.0,0.0,0.0,0.0,0.0,0.0,0.0,0.0,0.0,0.0,0.0,0.0,0.0,0.0,0.0,0.0,0.0,0.0,0.0,0.0,0.0,0.0,0.0,0.0,0.0,0.0,0.0,0.0,0.0,0.0,0.0,0.0,0.0,0.0,0.0,0.0,0.0,0.0,0.0,0.0,0.0,0.0,0.0,0.0,0.0,0.0,0.0,0.0,0.0,0.0,0.0,0.0,0.0,0.0,0.0,0.0,0.0,0.0,0.0,0.0,0.0,0.0,0.0,0.0,0.0,0.0,0.0,0.0,0.0,0.0,0.0,0.0,0.0,0.0,0.0,0.0,0.0,0.0,0.0,0.0,0.0,0.0,0.0,0.0,0.0,0.0,0.0,0.0,0.0,0.0,0.0,0.0,0.0,0.0,-2.6759,-2.8265,-2.903,-2.8868,-2.7798,-2.7352,-2.751,0.0,0.0,0.0,0.0,0.0,0.0,0.0,0.0,0.0,0.0,0.0,0.0,0.0,0.0,0.0,0.0,0.0,0.0,0.0,0.0,0.0,0.0,0.0,0.0,0.0,0.0,0.0,0.0,0.0,0.0,0.0,0.0,0.0,0.0,0.0,0.0,0.0,0.0,0.0,0.0,0.0,0.0,0.0,0.0,0.0,0.0,0.0,0.0,0.0,0.0,0.0,0.0,0.0,0.0,0.0,0.0,0.0,0.0,0.0,0.0,0.0,0.0,0.0,0.0,0.0,0.0,0.0,0.0,0.0,0.0,0.0,0.0,0.0,0.0,0.0,0.0,0.0,0.0,0.0,0.0,0.0,0.0,0.0,0.0,0.0,0.0,0.0,0.0,0.0,0.0,0.0,0.0,0.0,0.0,0.0,0.0,0.0,0.0,0.0,0.0,0.0,0.0,0.0,0.0,0.0,0.0,0.0,0.0,-2.8486,-2.9718,-3.0063,-2.9459,-2.8918,-2.815,0.0,0.0,0.0,0.0,0.0,0.0,0.0,0.0,0.0,0.0,0.0,0.0,0.0,0.0,0.0,0.0,0.0,0.0,0.0,0.0,0.0,0.0,0.0,0.0,0.0,0.0,0.0,0.0,0.0,0.0,0.0,0.0,0.0,0.0,0.0,0.0,0.0,0.0,0.0,0.0,0.0,0.0,0.0,0.0,0.0,0.0,0.0,0.0,0.0,0.0,0.0,0.0,0.0,0.0,0.0,0.0,0.0,0.0,0.0,0.0,0.0,0.0,0.0,0.0,0.0,0.0,0.0,0.0,0.0,0.0,0.0,0.0,0.0,0.0,0.0,0.0,0.0,0.0,0.0,0.0,0.0,0.0,0.0,0.0,0.0,0.0,0.0,0.0,0.0,0.0,0.0,0.0,0.0,0.0,0.0,0.0,0.0,0.0,0.0,0.0,0.0,0.0,0.0,0.0,0.0,0.0,0.0,0.0,0.0,-2.8603,-2.9586,-3.0037,-2.9797,-2.8688,-2.8033,0.0,0.0,0.0,0.0,0.0,0.0,0.0,0.0,0.0,0.0,0.0,0.0,0.0,0.0,0.0,0.0,0.0,0.0,0.0,0.0,0.0,0.0,0.0,0.0,0.0,0.0,0.0,0.0,0.0,0.0,0.0,0.0,0.0,0.0,0.0,0.0,0.0,0.0,0.0,0.0,0.0,0.0,0.0,0.0,0.0,0.0,0.0,0.0,0.0,0.0,0.0,0.0,0.0,0.0,0.0,0.0,0.0,0.0,0.0,0.0,0.0,0.0,0.0,0.0,0.0,0.0,0.0,0.0,0.0,0.0,0.0,0.0,0.0,0.0,0.0,0.0,0.0,0.0,0.0,0.0,0.0,0.0,0.0,0.0,0.0,0.0,0.0,0.0,0.0,0.0,0.0,0.0,0.0,0.0,0.0,0.0,0.0,0.0,0.0,0.0,0.0,0.0,0.0,0.0,0.0,0.0,0.0,0.0,-2.8239,-2.9174,-2.9745,-2.9994,-2.9994,-2.8968,-2.8442,0.0,0.0,0.0,0.0,0.0,0.0,0.0,0.0,0.0,0.0,0.0,0.0,0.0,0.0,0.0,0.0,0.0,0.0,0.0,0.0,0.0,0.0,0.0,0.0,0.0,0.0,0.0,0.0,0.0,0.0,0.0,0.0,0.0,0.0,0.0,0.0,0.0,0.0,0.0,0.0,0.0,0.0,0.0,0.0,0.0,0.0,0.0,0.0,0.0,0.0,0.0,0.0,0.0,0.0,0.0,0.0,0.0,0.0,0.0,0.0,0.0,0.0,0.0,0.0,0.0,0.0,0.0,0.0,0.0,0.0,0.0,0.0,0.0,0.0,0.0,0.0,0.0,0.0,0.0,0.0,0.0,0.0,0.0,0.0,0.0,0.0,0.0,0.0,0.0,0.0,0.0,0.0,0.0,0.0,0.0,0.0,0.0,0.0,0.0,0.0,0.0,0.0,0.0,0.0,0.0,0.0,0.0,0.0,-2.8514,-2.986,-2.9973,-2.9994,-2.9973,-2.957,-2.9044,0.0,0.0,0.0,0.0,0.0,0.0,0.0,0.0,0.0,0.0,0.0,0.0,0.0,0.0,0.0,0.0,0.0,0.0,0.0,0.0,0.0,0.0,0.0,0.0,0.0,0.0,0.0,0.0,0.0,0.0,0.0,0.0,0.0,0.0,0.0,0.0,0.0,0.0,0.0,0.0,0.0,0.0,0.0,0.0,0.0,0.0,0.0,0.0,0.0,0.0,0.0,0.0,0.0,0.0,0.0,0.0,0.0,0.0,0.0,0.0,0.0,0.0,0.0,0.0,0.0,0.0,0.0,0.0,0.0,0.0,0.0,0.0,0.0,0.0,0.0,0.0,0.0,0.0,0.0,0.0,0.0,0.0,0.0,0.0,0.0,0.0,0.0,0.0,0.0,0.0,0.0,0.0,0.0,0.0,0.0,0.0,0.0,0.0,0.0,0.0,0.0,0.0,0.0,0.0,0.0,0.0,0.0,0.0,-2.8599,-2.9466,-2.9808,-2.9994,-2.9984,-2.957,-2.8901,0.0,0.0,0.0,0.0,0.0,0.0,0.0,0.0,0.0,0.0,0.0,0.0,0.0,0.0,0.0,0.0,0.0,0.0,0.0,0.0,0.0,0.0,0.0,0.0,0.0,0.0,0.0,0.0,0.0,0.0,0.0,0.0,0.0,0.0,0.0,0.0,0.0,0.0,0.0,0.0,0.0,0.0,0.0,0.0,0.0,0.0,0.0,0.0,-3.1004,0.0,0.0,0.0,0.0,0.0,0.0,0.0,0.0,0.0,0.0,0.0,0.0,0.0,0.0,0.0,0.0,0.0,0.0,0.0,0.0,0.0,0.0,0.0,0.0,0.0,0.0,0.0,0.0,0.0,0.0,0.0,0.0,0.0,0.0,0.0,0.0,0.0,0.0,0.0,0.0,0.0,0.0,0.0,0.0,0.0,0.0,0.0,0.0,0.0,0.0,0.0,0.0,0.0,0.0,0.0,0.0,0.0,0.0,0.0,-2.9067,-2.9591,-2.987,-2.9994,-2.9973,-2.9724,-2.916,0.0,0.0,0.0,0.0,0.0,0.0,0.0,0.0,0.0,0.0,0.0,0.0,0.0,0.0,0.0,0.0,0.0,0.0,0.0,0.0,0.0,0.0,0.0,0.0,0.0,0.0,0.0,0.0,0.0,0.0,0.0,0.0,0.0,0.0,0.0,0.0,0.0,0.0,0.0,0.0,0.0,0.0,0.0,0.0,0.0,0.0,0.0,0.0,0.0,0.0,0.0,0.0,0.0,0.0,0.0,0.0,0.0,0.0,0.0,0.0,0.0,0.0,0.0,0.0,0.0,0.0,0.0,0.0,0.0,0.0,0.0,0.0,0.0,0.0,0.0,0.0,0.0,0.0,0.0,0.0,0.0,0.0,0.0,0.0,0.0,0.0,0.0,0.0,0.0,0.0,0.0,0.0,0.0,0.0,0.0,0.0,0.0,0.0,0.0,0.0,0.0,0.0,0.0,0.0,0.0,0.0,0.0,-2.8522,-2.9368,-2.9995,-2.9994,-2.9994,-2.9994,-3.0047,-2.9565,-2.8564,0.0,0.0,0.0,0.0,0.0,0.0,0.0,0.0,0.0,0.0,0.0,0.0,0.0,0.0,0.0,0.0,0.0,0.0,0.0,0.0,0.0,0.0,0.0,0.0,0.0,0.0,0.0,0.0,0.0,0.0,0.0,0.0,0.0,0.0,0.0,0.0,0.0,0.0,-3.0734,-3.1759,0.0,0.0,0.0,0.0,0.0,0.0,0.0,0.0,-3.1842,0.0,0.0,0.0,0.0,0.0,0.0,0.0,0.0,0.0,0.0,0.0,0.0,0.0,0.0,0.0,0.0,0.0,0.0,0.0,0.0,0.0,0.0,0.0,0.0,0.0,0.0,0.0,0.0,0.0,0.0,0.0,0.0,0.0,0.0,0.0,0.0,0.0,0.0,0.0,0.0,0.0,0.0,0.0,0.0,0.0,0.0,0.0,0.0,0.0,0.0,0.0,0.0,0.0,0.0,0.0,0.0,-2.7951,-2.7856,-2.8486,-2.9932,-2.9994,-2.9994,-2.9994,-3.0193,-2.9751,-2.8621,0.0,0.0,0.0,0.0,0.0,0.0,0.0,0.0,0.0,0.0,0.0,0.0,0.0,0.0,0.0,0.0,0.0,0.0,0.0,0.0,0.0,0.0,0.0,0.0,0.0,0.0,0.0,0.0,0.0,0.0,0.0,0.0,0.0,0.0,0.0,0.0,0.0,0.0,0.0,-3.281,-3.2902,0.0,0.0,0.0,0.0,0.0,0.0,0.0,0.0,-3.2973,0.0,0.0,0.0,0.0,0.0,0.0,0.0,0.0,0.0,0.0,0.0,0.0,0.0,0.0,0.0,0.0,0.0,0.0,0.0,0.0,0.0,0.0,0.0,0.0,0.0,0.0,0.0,0.0,0.0,0.0,0.0,0.0,0.0,0.0,0.0,0.0,0.0,0.0,0.0,0.0,0.0,0.0,0.0,0.0,0.0,0.0,0.0,0.0,0.0,0.0,0.0,0.0,0.0,0.0,0.0,-2.771,-2.8428,-2.9178,-2.9953,-2.9994,-3.0047,-3.0183,-2.994,-2.9622,0.0,0.0,0.0,0.0,0.0,0.0,0.0,0.0,0.0,0.0,0.0,0.0,0.0,0.0,0.0,0.0,0.0,0.0,0.0,0.0,0.0,0.0,0.0,0.0,0.0,0.0,0.0,0.0,0.0,0.0,0.0,0.0,0.0,0.0,0.0,0.0,0.0,0.0,0.0,0.0,-3.3708,-3.4027,-3.4115,0.0,0.0,0.0,0.0,0.0,0.0,-3.295,-3.2769,0.0,0.0,0.0,0.0,0.0,0.0,0.0,0.0,0.0,0.0,0.0,0.0,0.0,0.0,0.0,0.0,0.0,0.0,0.0,0.0,0.0,0.0,0.0,0.0,0.0,0.0,0.0,0.0,0.0,0.0,0.0,0.0,0.0,0.0,0.0,0.0,0.0,0.0,0.0,0.0,0.0,0.0,0.0,0.0,0.0,0.0,0.0,0.0,0.0,0.0,0.0,0.0,0.0,0.0,0.0,-2.7547,-2.8996,-2.987,-3.0068,-3.0099,-3.0193,-3.0484,-2.9862,-2.9532,0.0,0.0,0.0,0.0,0.0,0.0,0.0,0.0,0.0,0.0,0.0,0.0,0.0,0.0,0.0,0.0,0.0,0.0,0.0,0.0,0.0,0.0,0.0,0.0,0.0,0.0,0.0,0.0,0.0,0.0,0.0,0.0,0.0,0.0,0.0,0.0,0.0,0.0,0.0,0.0,0.0,-3.5012,-3.4843,-3.4944,0.0,0.0,0.0,0.0,-3.384,-3.342,0.0,0.0,0.0,0.0,0.0,0.0,0.0,0.0,0.0,0.0,0.0,0.0,0.0,0.0,0.0,0.0,0.0,0.0,0.0,0.0,0.0,0.0,0.0,0.0,0.0,0.0,0.0,0.0,0.0,0.0,0.0,0.0,0.0,0.0,0.0,0.0,0.0,0.0,0.0,0.0,0.0,0.0,0.0,0.0,0.0,0.0,0.0,0.0,0.0,0.0,0.0,0.0,0.0,0.0,0.0,0.0,-2.77,-2.8607,-2.9551,-3.0328,-3.0339,-3.0505,-3.0765,-3.0452,-2.9883,0.0,0.0,0.0,0.0,0.0,0.0,0.0,0.0,0.0,0.0,0.0,0.0,0.0,0.0,0.0,0.0,0.0,0.0,0.0,0.0,0.0,0.0,0.0,0.0,0.0,0.0,0.0,0.0,0.0,0.0,0.0,0.0,0.0,0.0,0.0,0.0,0.0,0.0,0.0,0.0,0.0,-3.5374,-3.5201,-3.5728,-3.6166,0.0,0.0,-3.547,-3.6546,-3.6245,0.0,0.0,0.0,0.0,0.0,0.0,0.0,0.0,0.0,0.0,0.0,0.0,0.0,0.0,0.0,0.0,0.0,0.0,0.0,0.0,0.0,0.0,0.0,0.0,0.0,0.0,0.0,0.0,0.0,0.0,0.0,0.0,0.0,0.0,0.0,0.0,0.0,0.0,0.0,0.0,0.0,0.0,0.0,0.0,0.0,0.0,0.0,0.0,0.0,0.0,0.0,0.0,0.0,0.0,0.0,-2.8263,-2.8139,-2.9352,-3.02,-3.0588,-3.062,-3.0961,-3.1669,-3.0737,-3.0158,0.0,0.0,0.0,0.0,0.0,0.0,0.0,0.0,0.0,0.0,0.0,0.0,0.0,0.0,0.0,0.0,0.0,0.0,0.0,0.0,0.0,0.0,0.0,0.0,0.0,0.0,0.0,0.0,0.0,0.0,0.0,0.0,0.0,0.0,0.0,0.0,0.0,0.0,0.0,0.0,0.0,0.0,-3.5677,-3.6616,0.0,0.0,0.0,-3.6533,-3.6709,0.0,0.0,0.0,0.0,0.0,0.0,0.0,0.0,0.0,0.0,0.0,0.0,0.0,0.0,0.0,0.0,0.0,0.0,0.0,0.0,0.0,0.0,0.0,0.0,0.0,0.0,0.0,0.0,0.0,0.0,0.0,0.0,0.0,0.0,0.0,0.0,0.0,0.0,0.0,0.0,0.0,0.0,0.0,0.0,0.0,0.0,0.0,0.0,0.0,0.0,0.0,0.0,0.0,0.0,0.0,0.0,0.0,-2.8432,-2.9948,-3.0762,-3.0879,-3.1075,-3.1629,-3.2437,-3.1317,0.0,0.0,0.0,0.0,0.0,0.0,0.0,0.0,0.0,0.0,0.0,0.0,0.0,0.0,0.0,0.0,0.0,0.0,0.0,0.0,0.0,0.0,0.0,0.0,0.0,0.0,0.0,-3.1158,0.0,0.0,0.0,0.0,0.0,0.0,0.0,0.0,0.0,0.0,0.0,0.0,0.0,0.0,-3.5966,-3.5918,-3.7105,-3.8103,0.0,0.0,-3.7349,-3.7262,-3.7437,-3.7324,0.0,0.0,0.0,0.0,0.0,0.0,0.0,0.0,0.0,0.0,0.0,0.0,0.0,0.0,0.0,0.0,0.0,0.0,0.0,0.0,0.0,0.0,0.0,0.0,0.0,0.0,0.0,0.0,0.0,0.0,0.0,0.0,0.0,0.0,0.0,0.0,0.0,0.0,0.0,0.0,0.0,0.0,0.0,0.0,0.0,0.0,0.0,0.0,0.0,0.0,0.0,0.0,0.0,0.0,-2.8754,-2.8455,-2.9803,-3.0788,-3.1157,-3.1913,-3.2471,-3.2739,-3.2617,-3.2028,0.0,0.0,0.0,0.0,0.0,0.0,0.0,0.0,0.0,0.0,0.0,0.0,0.0,0.0,0.0,0.0,0.0,0.0,0.0,0.0,0.0,0.0,0.0,0.0,0.0,0.0,0.0,0.0,0.0,0.0,0.0,0.0,0.0,0.0,0.0,0.0,0.0,0.0,0.0,0.0,0.0,-3.5918,-3.5656,-3.6971,-3.8279,0.0,-3.8504,-3.8304,-3.932,-3.9044,-3.873,-3.8693,0.0,0.0,0.0,0.0,0.0,0.0,0.0,0.0,0.0,0.0,0.0,0.0,0.0,0.0,0.0,0.0,0.0,0.0,0.0,0.0,0.0,0.0,0.0,0.0,0.0,0.0,0.0,0.0,0.0,0.0,0.0,0.0,0.0,0.0,0.0,0.0,0.0,0.0,0.0,0.0,0.0,0.0,0.0,0.0,0.0,0.0,0.0,0.0,0.0,0.0,0.0,0.0,0.0,-3.0127,-3.0286,-3.1817,-3.2757,-3.2951,-3.3201,-3.3747,-3.4532,-3.3652,-3.2947,0.0,0.0,0.0,0.0,0.0,0.0,0.0,0.0,0.0,0.0,0.0,0.0,0.0,0.0,0.0,0.0,0.0,0.0,0.0,0.0,0.0,0.0,0.0,0.0,0.0,0.0,0.0,0.0,-3.3706,-3.3074,-3.1914,0.0,0.0,0.0,0.0,0.0,0.0,0.0,0.0,0.0,0.0,-3.6214,-3.6812,-3.8141,0.0,0.0,-3.9269,-3.9195,-3.9622,-3.9509,-3.9132,-3.8454,-3.7801,0.0,0.0,0.0,0.0,0.0,0.0,0.0,0.0,0.0,0.0,0.0,0.0,0.0,0.0,0.0,0.0,0.0,0.0,0.0,0.0,0.0,0.0,0.0,0.0,0.0,0.0,0.0,0.0,0.0,0.0,0.0,0.0,0.0,0.0,0.0,0.0,0.0,0.0,0.0,0.0,0.0,0.0,0.0,0.0,0.0,0.0,0.0,0.0,0.0,0.0,0.0,0.0,-3.0868,-3.1388,-3.2993,-3.3852,-3.3993,-3.4239,-3.4775,-3.5534,-3.4719,-3.4096,0.0,0.0,0.0,0.0,0.0,0.0,0.0,0.0,0.0,0.0,0.0,0.0,0.0,0.0,0.0,0.0,0.0,0.0,0.0,0.0,0.0,0.0,0.0,0.0,0.0,0.0,0.0,0.0,-3.4719,-3.3847,-3.2909,0.0,0.0,0.0,0.0,0.0,0.0,0.0,0.0,0.0,0.0,-3.6748,-3.7481,-3.8778,-3.9697,-3.9581,-3.9645,-3.9697,-3.9697,-3.9697,-3.9433,-3.8642,0.0,0.0,0.0,0.0,0.0,0.0,0.0,0.0,0.0,0.0,0.0,0.0,0.0,0.0,0.0,0.0,0.0,0.0,0.0,0.0,0.0,0.0,0.0,0.0,0.0,0.0,0.0,-3.1631,0.0,0.0,-2.9457,0.0,0.0,0.0,0.0,0.0,0.0,0.0,0.0,0.0,0.0,0.0,0.0,0.0,0.0,0.0,0.0,0.0,0.0,0.0,0.0,0.0,0.0,-3.0606,-3.14,-3.2753,-3.3571,-3.4019,-3.4775,-3.5319,-3.5642,-3.6012,-3.5607,-3.4272,0.0,0.0,0.0,0.0,0.0,0.0,0.0,0.0,0.0,0.0,0.0,0.0,0.0,0.0,0.0,0.0,0.0,0.0,0.0,0.0,0.0,0.0,0.0,0.0,0.0,0.0,-3.5978,-3.5418,-3.503,0.0,0.0,0.0,0.0,0.0,0.0,0.0,0.0,0.0,-3.3313,-3.5784,-3.7606,-3.7406,-3.8677,-3.9633,-3.9362,-3.953,-3.9685,-3.9672,-3.9672,-3.9685,0.0,0.0,0.0,0.0,0.0,0.0,0.0,0.0,0.0,0.0,0.0,0.0,0.0,0.0,0.0,0.0,0.0,0.0,0.0,0.0,0.0,0.0,0.0,0.0,0.0,0.0,0.0,-3.2562,-3.2457,0.0,0.0,0.0,0.0,0.0,0.0,0.0,0.0,0.0,0.0,0.0,-3.4324,-3.4345,0.0,0.0,0.0,0.0,0.0,0.0,0.0,0.0,0.0,0.0,0.0,0.0,-3.2234,-3.2958,-3.4541,-3.5447,-3.5619,-3.5858,-3.6203,-3.6581,-3.6373,-3.5554,-3.4011,0.0,0.0,0.0,0.0,0.0,0.0,0.0,0.0,0.0,0.0,0.0,0.0,0.0,0.0,0.0,0.0,0.0,0.0,0.0,0.0,0.0,0.0,0.0,0.0,0.0,-3.7319,0.0,0.0,0.0,0.0,0.0,0.0,0.0,0.0,0.0,0.0,0.0,-3.5219,-3.6233,-3.7279,-3.8129,-3.8816,-3.9356,-3.9685,0.0,0.0,0.0,0.0,0.0,0.0,0.0,0.0,0.0,0.0,0.0,0.0,0.0,0.0,-3.9766,-3.9662,-3.9515,-3.9348,-3.9122,0.0,0.0,0.0,0.0,0.0,0.0,0.0,0.0,0.0,0.0,0.0,0.0,0.0,0.0,-3.379,0.0,-3.2478,0.0,0.0,0.0,0.0,0.0,0.0,0.0,0.0,-3.5114,-3.591,-3.6507,-3.6485,-3.6279,0.0,-3.5613,-3.3923,0.0,0.0,0.0,0.0,0.0,0.0,0.0,0.0,-3.3091,-3.3756,-3.5469,-3.6417,-3.6417,-3.6452,-3.6687,-3.7049,-3.674,-3.5833,-3.4367,-3.3595,-3.2651,0.0,0.0,0.0,0.0,0.0,0.0,0.0,0.0,0.0,0.0,0.0,0.0,0.0,0.0,0.0,0.0,0.0,0.0,0.0,0.0,0.0,0.0,0.0,-3.8203,0.0,0.0,0.0,0.0,0.0,0.0,0.0,0.0,0.0,-3.5021,-3.5798,-3.6872,-3.814,-3.8479,-3.8856,-3.9597,0.0,0.0,0.0,0.0,0.0,0.0,0.0,-3.8289,-3.7972,-3.8282,-3.8933,-3.9894,-4.1151,-4.2568,-4.41,0.0,0.0,-4.1994,-4.1381,-4.1015,-4.1071,-4.1691,-4.2325,-4.2392,-4.2718,-4.3,0.0,0.0,0.0,0.0,0.0,0.0,0.0,0.0,-3.5561,-3.525,0.0,-3.4242,0.0,0.0,0.0,0.0,0.0,-3.514,0.0,0.0,-3.7926,-3.8476,-3.8227,-3.8529,-3.8148,-3.7116,-3.6845,-3.5856,-3.4266,-3.3383,0.0,0.0,0.0,0.0,0.0,0.0,-3.3129,-3.3807,-3.5494,-3.6405,-3.6405,-3.6581,-3.6815,-3.7095,-3.7027,-3.6462,-3.5365,-3.4931,-3.4057,-3.2571,-3.2519,0.0,0.0,0.0,0.0,0.0,0.0,0.0,0.0,0.0,0.0,0.0,0.0,0.0,0.0,0.0,0.0,0.0,0.0,0.0,0.0,-3.8597,0.0,0.0,0.0,0.0,0.0,0.0,0.0,0.0,0.0,0.0,-3.5788,-3.6966,-3.8191,-3.8755,0.0,0.0,0.0,0.0,-3.8416,-3.814,-3.7891,-3.778,-3.8102,-3.9137,-3.9988,-3.9988,0.0,0.0,-4.3019,-4.3416,-4.3871,-4.469,-4.5324,-4.5488,-4.4269,-4.2782,-4.1877,-4.221,-4.238,-4.2376,-4.2553,-4.3045,-4.319,-3.6266,0.0,0.0,0.0,0.0,-3.5872,-3.6075,-3.6004,-3.5574,-3.5789,-3.6312,-3.4781,0.0,0.0,0.0,0.0,0.0,0.0,-3.6101,-3.6524,-3.7332,-3.8004,-3.8581,-3.9076,-3.9181,-3.8833,-3.8842,-3.8415,-3.7692,-3.651,-3.4812,-3.2576,0.0,0.0,0.0,0.0,-3.4237,-3.4673,-3.5827,-3.6439,-3.6628,-3.6662,-3.6909,-3.7353,-3.7118,-3.6645,-3.59,-3.5761,-3.5279,-3.4366,-3.4564,0.0,0.0,0.0,0.0,0.0,0.0,0.0,0.0,0.0,0.0,0.0,0.0,0.0,0.0,0.0,0.0,0.0,0.0,0.0,-3.9174,-3.9246,-3.9056,0.0,0.0,0.0,0.0,0.0,0.0,0.0,0.0,0.0,-3.9157,-3.8161,-3.7626,0.0,0.0,-3.8492,-3.8492,-3.8642,-3.8944,-3.9352,-3.9351,0.0,-3.9927,-3.9996,-3.9996,-3.9983,-4.1443,-4.2702,-4.3064,-4.3953,-4.4801,-4.523,-4.5458,-4.5645,-4.5815,-4.5493,-4.5026,-4.4924,-4.5171,-4.5517,-4.5603,-4.5817,-4.5958,-3.7753,-3.7257,-3.6748,-3.6379,-3.6096,-3.6887,-3.724,-3.7192,-3.7056,-3.7268,-3.7683,-3.6562,-3.6074,-3.6056,-3.5668,0.0,0.0,0.0,-3.7611,-3.8326,-3.8338,-3.8807,-3.9585,-3.9816,-3.9819,-3.9612,-3.9554,-3.9327,-3.8835,-3.7838,-3.651,-3.493,0.0,0.0,-3.3762,-3.4817,-3.5366,-3.5395,-3.626,-3.6679,-3.6593,-3.6769,-3.7108,-3.7657,-3.7456,-3.7121,-3.6634,-3.6506,-3.6262,-3.5831,-3.5614,-3.541,0.0,0.0,0.0,0.0,0.0,0.0,0.0,0.0,0.0,0.0,0.0,-3.8454,-3.7925,0.0,0.0,0.0,-3.9461,-4.0086,-4.0008,-3.992,0.0,0.0,0.0,0.0,0.0,0.0,0.0,-4.0711,-4.1105,-4.1507,-4.1861,-4.0511,-3.9686,-4.0255,-4.0102,-3.9895,-3.9601,0.0,-3.9777,-4.0118,-4.0079,-4.0175,-4.0739,-4.0978,-4.1295,-4.1901,-4.2911,-4.3686,-4.3899,-4.4684,-4.5293,-4.5504,-4.573,-4.6046,-4.6358,-4.6668,-4.6771,-4.6417,-4.6535,-4.68,-4.6887,-4.7019,-4.7164,-3.9272,-3.8679,-3.7457,-3.6917,-3.6896,-3.8081,-3.8609,-3.8749,-3.9272,-3.9272,-3.8854,-3.9049,-3.851,-3.7443,-3.7608,0.0,-3.8912,-3.9037,-3.9738,-4.1039,-4.0309,-4.0249,-4.0791,-4.0553,-4.0195,-3.9669,-3.946,-3.9131,-3.8597,-3.7977,-3.7587,-3.7521,-3.6557,-3.5595,-3.4747,-3.5968,-3.6396,-3.5915,-3.6726,-3.6933,-3.6528,-3.6947,-3.7413,-3.7854,-3.79,-3.7762,-3.7421,-3.7185,-3.7056,-3.6927,-3.5972,-3.5805,-3.6543,0.0,0.0,0.0,0.0,0.0,0.0,0.0,0.0,0.0,0.0,0.0,0.0,0.0,0.0,-4.0752,-4.0992,0.0,-4.0937,-4.0775,0.0,0.0,0.0,-4.1483,-4.2107,-4.3272,-4.3891,-4.3617,0.0,0.0,-4.4038,-4.3588,-4.3454,-4.3969,-4.3376,-4.2648,-4.2088,-4.1258,-4.0789,-4.0683,-4.0461,-4.0521,-4.1354,-4.2268,-4.3403,-4.4574,-4.5124,-4.5081,-4.5127,-4.5338,-4.5504,-4.5549,-4.6105,-4.655,-4.6314,-4.68,-4.7207,-4.696,-4.6815,-4.6712,-4.6916,-4.6975,-4.7062,-3.9534,-3.9324,-3.8555,-3.7985,-3.7723,-3.8838,-3.9092,-3.8736,-3.8867,-3.9324,-3.9978,-3.9634,-3.9079,-3.8398,-3.8385,-3.8306,-3.8155,-3.862,-3.8979,-3.9337,-3.9555,-3.979,-3.9933,-4.0239,-4.0356,-4.0203,-4.0194,-4.0235,-4.0256,-3.9331,-3.8519,-3.7824,-3.753,-3.69,-3.5839,-3.6139,-3.6187,-3.5889,-3.6514,-3.7042,-3.7546,-3.7645,-3.7762,-3.79,-3.79,-3.773,-3.7421,-3.7746,-3.7674,-3.7182,-3.6876,-3.6797,-3.6808,-3.598,0.0,0.0,0.0,0.0,0.0,0.0,0.0,0.0,0.0,-3.9639,-3.9134,0.0,-4.0494,0.0,-4.1125,-4.1781,-4.2896,-4.25,0.0,0.0,-4.2582,-4.2965,-4.3414,-4.4317,-4.4741,-4.4343,-4.4894,-4.552,-4.5986,-4.5884,-4.5934,-4.6167,-4.3794,-4.1954,-4.1745,-4.1384,-4.1394,-4.207,-4.2512,-4.3064,-4.3831,-4.4309,-4.4755,-4.5293,-4.5398,-4.5458,-4.564,-4.573,-4.579,-4.5835,-4.6225,-4.655,-4.6506,-4.6946,-4.7266,-4.7222,-4.7164,-4.7135,-4.7207,-4.7207,-4.7222,-4.0069,-3.9599,-3.9507,-3.8901,-3.8077,-3.8888,-3.9168,-3.9115,-3.9115,-3.9324,-3.9651,-3.9625,-3.956,-3.9494,-3.9743,-3.9716,-3.9455,-3.9743,-3.9873,-3.9886,-4.0054,-4.0148,-4.0174,-4.0374,-4.0324,-4.0029,-4.0053,-4.0041,-3.9947,-3.9354,-3.8832,-3.8303,-3.829,-3.7855,-3.6998,-3.6742,-3.6407,-3.6027,-3.6607,-3.733,-3.8274,-3.8178,-3.8102,-3.8024,-3.7762,-3.7535,-3.7333,-3.7542,-3.7702,-3.7724,-3.7466,-3.7536,-3.7986,-3.7307,-3.7056,0.0,0.0,0.0,0.0,0.0,0.0,0.0,0.0,0.0,0.0,0.0,-4.1774,-4.2065,-4.2578,-4.3131,-4.3778,-4.3498,-4.3372,-4.3661,-4.4034,-4.4563,-4.5286,-4.6163,-4.6577,-4.6042,-4.6618,-4.7128,-4.7215,-4.7167,-4.7215,-4.7295,-4.5322,-4.3676,-4.3272,-4.3028,-4.3169,-4.3724,-4.4097,-4.4448,-4.517,-4.5367,-4.5518,-4.564,-4.57,-4.5745,-4.588,-4.588,-4.5925,-4.6001,-4.6328,-4.6639,-4.6712,-4.7033,-4.7309,-4.7309,-4.7309,-4.7309,-4.7309,-4.7309,-4.7309,-4.0736,-3.9886,-4.0265,-3.9629,-3.849,-3.866,-3.8966,-3.938,-3.9367,-3.911,-3.8809,-3.9429,-3.9939,-4.0357,-4.0932,-4.1167,-4.1102,-4.1167,-4.1154,-4.1052,-4.0891,-4.0791,-4.0713,-4.0488,-4.0117,-3.9629,-3.9567,-3.9323,-3.8887,-3.8874,-3.881,-3.8682,-3.8733,-3.8438,-3.7796,-3.7386,-3.689,-3.6404,-3.6878,-3.7668,-3.873,-3.8385,-3.8148,-3.8034,-3.7532,-3.7263,-3.7228,-3.7174,-3.7489,-3.8228,-3.7852,-3.8161,-3.9314,-3.899,-3.9025,0.0,-3.9753,0.0,0.0,0.0,0.0,0.0,0.0,0.0,0.0,-4.3284,-4.3504,-4.3936,-4.4484,-4.4712,-4.4515,-4.4414,-4.4603,-4.5302,-4.5529,-4.6111,-4.7172,-4.8024,-4.8304,-4.784,-4.8275,-4.8377,-4.7869,-4.7782,-4.7782,-4.7546,-4.6864,-4.5938,-4.533,-4.5003,-4.4929,-4.5124,-4.517,-4.5261,-4.5504,-4.5745,-4.5924,-4.5982,-4.6055,-4.6011,-4.604,-4.6085,-4.6132,-4.6194,-4.6447,-4.6668,-4.6887,-4.7106,-4.7309,-4.7309,-4.7309,-4.7309,-4.7309,-4.7309,-4.7309,-4.118,-4.0958,-4.0566,-4.0226,-3.9922,-3.9063,-3.8484,-3.805,-3.8063,-3.8423,-3.9083,-3.9904,-4.0082,-3.9821,-4.0344,-4.0331,-3.9965,-4.0383,-4.0344,-3.9952,-4.0334,-4.0246,-3.9842,-3.978,-3.9741,-3.9624,-3.9356,-3.9353,-3.9468,-3.9249,-3.8748,-3.8067,-3.853,-3.8171,-3.7267,0.0,0.0,0.0,-3.7348,-3.7829,-3.8553,-3.7494,-3.7008,-3.728,-3.7203,0.0,-3.7414,-3.7443,-3.748,-3.7671,-3.8086,0.0,0.0,0.0,0.0,0.0,0.0,0.0,0.0,0.0,0.0,0.0,-4.3783,-4.3618,-4.3394,-4.4128,-4.4882,-4.5478,-4.547,-4.5929,-4.7052,-4.6521,-4.6609,-4.7698,-4.7005,-4.6828,-4.785,-4.7744,-4.7564,-4.78,-4.7883,-4.7912,-4.7753,-4.7782,-4.7564,-4.7085,-4.6865,-4.6485,-4.5832,-4.5367,-4.5216,-4.5353,-4.5609,-4.5759,-4.5805,-4.5879,-4.6171,-4.649,-4.6618,-4.6621,-4.6592,-4.6758,-4.6705,-4.6371,-4.6565,-4.6858,-4.6946,-4.7106,-4.7309,-4.7309,-4.7309,-4.7309,-4.7309,-4.7309,-4.7337,-4.1311,0.0,-4.0671,-4.0314,0.0,-3.9231,-3.8596,-3.8105,-3.7907,-3.8201,-3.8989,-3.9961,-4.0278,-4.003,-4.0402,-4.0473,-4.0224,-4.0307,-4.0294,-4.0224,-4.0451,-4.0533,-4.0461,-4.0448,-4.0292,-4.0017,-3.9845,-3.9715,-3.9625,-3.9455,-3.9168,-3.8749,-3.9011,-3.8903,-3.8488,-3.9094,-3.906,-3.8346,-3.8441,-3.8938,-3.9657,-3.8901,-3.8431,-3.8472,-3.7932,0.0,0.0,0.0,0.0,0.0,0.0,0.0,0.0,0.0,0.0,-4.2836,-4.3449,-4.3958,-4.4287,-4.4646,-4.511,-4.5738,-4.5783,-4.5529,-4.49,-4.5654,-4.6271,-4.6584,-4.6528,-4.6842,-4.7763,-4.7466,-4.7629,-4.8577,-4.8307,-4.8319,-4.8879,-4.8948,-4.86,-4.8106,-4.8016,-4.7765,-4.7095,-4.7022,-4.6905,-4.6585,-4.6632,-4.6529,-4.5998,-4.57,-4.5564,-4.5714,-4.6094,-4.6359,-4.6374,-4.665,-4.6751,-4.6807,-4.6778,-4.6679,-4.6539,-4.6894,-4.7118,-4.708,-4.7229,-4.7451,-4.7568,-4.7446,-4.7309,-4.7309,-4.7309,-4.7309,-4.7309,-4.7309,-4.7337,-4.1311,-4.1272,-4.0788,-4.035,-3.9943,-3.9517,-3.9071,-3.8686,0.0,0.0,0.0,-3.9913,-4.0409,-4.0422,-4.0749,-4.0899,-4.086,-4.0579,-4.0566,-4.0728,-4.0741,-4.0841,-4.101,-4.0974,-4.0762,-4.0278,-4.0265,-4.0056,-3.9625,-3.9625,-3.9625,-3.9625,-3.9703,-3.9897,-4.0234,-4.0713,-4.053,-3.9635,-3.9607,-3.9959,-4.0683,-4.0269,-3.9935,-3.9712,-3.8806,-3.8562,-3.9069,-3.8399,-3.8988,-4.1057,-4.1258,-4.1846,-4.3133,-4.412,-4.4676,-4.4706,-4.5289,-4.5903,-4.6456,-4.6474,-4.6726,-4.7264,-4.7309,-4.7085,-4.6531,-4.6995,-4.7309,-4.7309,-4.7309,-4.7491,-4.7941,-4.7986,-4.8298,-4.9042,-4.9334,-4.9569,-4.9825,-5.0041,-4.9601,-4.8515,-4.8146,-4.7706,-4.6664,-4.6416,-4.6254,-4.6314,-4.6461,-4.6447,-4.606,-4.5925,-4.5835,-4.5924,-4.6359,-4.6749,-4.685,-4.7317,-4.7564,-4.7256,-4.7129,-4.6887,-4.6705,-4.6988,-4.7419,-4.754,-4.7763,-4.7822,-4.7998,-4.7638,-4.7324,-4.7309,-4.7309,-4.7309,-4.7309,-4.7337,-4.7424,-4.1311,-4.1311,-4.1219,-4.0853,-4.034,-4.0262,-3.9908,-3.9406,-3.9089,-3.9011,-3.9096,-4.0022,-4.0409,-4.0435,-4.1008,-4.123,-4.123,-4.1201,-4.089,-4.0471,-4.0471,-4.0213,-3.9847,-3.9847,-3.9808,-3.973,-3.973,-3.969,-3.9625,-3.9625,-3.9625,-3.969,-4.0069,-4.0543,-4.1104,-4.1222,-4.1182,-4.1013,-4.006,-3.9738,-4.0,-3.9057,-3.8667,-3.8938,-3.8818,-3.9087,-3.9807,-3.986,-4.0519,-4.1868,-4.2636,-4.3369,-4.409,-4.5323,-4.5995,-4.6082,-4.6651,-4.707,-4.716,-4.716,-4.7219,-4.7294,-4.7309,-4.7264,-4.7189,-4.7264,-4.7309,-4.7309,-4.7324,-4.7563,-4.8148,-4.8237,-4.8701,-4.9746,-4.9582,-4.9492,-4.9874,-4.9545,-4.9095,-4.866,-4.8024,-4.7715,-4.7405,-4.6874,-4.655,-4.655,-4.6594,-4.6506,-4.6225,-4.6015,-4.5925,-4.5967,-4.6417,-4.6734,-4.6942,-4.7375,-4.7974,-4.842,-4.8086,-4.7817,-4.7704,-4.7684,-4.7629,-4.7155,-4.736,-4.7461,-4.7519,-4.7384,-4.7309,-4.7309,-4.7309,-4.7309,-4.7309,-4.7424,-4.7624,-4.1311,-4.1311,-4.1311,-4.1154,-4.0906,-4.0906,-4.0762,-4.0514,-4.035,-4.0097,-3.9887,-4.0589,-4.0906,-4.0893,-4.0965,-4.1038,-4.1025,-4.0856,-4.0689,-4.0631,-4.0631,-4.0559,-4.054,-4.0527,-4.0527,-4.054,-4.054,-4.054,-4.0527,-4.054,-4.054,-4.0553,-4.0788,-4.105,-4.1298,-4.1311,-4.1311,-4.1298,-4.0801,-4.0589,-4.0625,-4.0281,-4.0195,-4.0372,-4.0221,-4.0614,-4.17,-4.1217,-4.1878,-4.3878,-4.4109,-4.4655,-4.5665,-4.6431,-4.6845,-4.686,-4.713,-4.7309,-4.7309,-4.7309,-4.7309,-4.7309,-4.7309,-4.7309,-4.7309,-4.7638,-4.7683,-4.7354,-4.7608,-4.7952,-4.8267,-4.8297,-4.8805,-5.0061,-4.9957,-5.0016,-5.0476,-5.034,-4.9936,-4.9364,-4.871,-4.8177,-4.7807,-4.72,-4.6771,-4.6771,-4.6683,-4.6594,-4.658,-4.6403,-4.6225,-4.6178,-4.6891,-4.7391,-4.7305,-4.8436,-4.8978,-4.8726,-4.8439,-4.8225,-4.8083,-4.7941,-4.7837,-4.7717,-4.7759,-4.7833,-4.7803,-4.7534,-4.7369,-4.7309,-4.7309,-4.7309,-4.7337,-4.7553,-4.788,-4.1311,-4.1311,-4.1311,-4.1311,-4.1311,-4.1311,-4.1246,-4.1128,-4.1246,-4.0971,-4.0527,-4.0919,-4.1036,-4.088,-4.0644,-4.061,-4.0649,-4.046,-4.0517,-4.0899,-4.089,-4.1041,-4.1285,-4.1311,-4.1311,-4.1311,-4.1311,-4.1311,-4.1311,-4.1311,-4.1311,-4.1311,-4.1311,-4.1311,-4.1311,-4.1311,-4.1311,-4.1311,-4.1311,-4.1311,-4.1311,-4.1498,-4.1647,-4.1657,-4.1626,-4.2179,-4.3327,-4.2782,-4.3448,-4.56,-4.5536,-4.583,-4.6887,-4.7164,-4.7309,-4.7309,-4.7309,-4.7309,-4.7309,-4.7309,-4.7309,-4.7309,-4.7309,-4.7369,-4.7563,-4.8132,-4.8147,-4.7519,-4.7893,-4.8207,-4.8117,-4.8371,-4.8865,-4.9718,-5.0046,-5.0345,-5.0838,-5.1078,-5.0956,-5.0279,-4.9608,-4.8953,-4.8313,-4.7777,-4.7465,-4.7287,-4.7066,-4.7036,-4.6932,-4.6756,-4.658,-4.6697,-4.7473,-4.806,-4.792,-4.9201,-4.9834,-4.9071,-4.8763,-4.853,-4.8207,-4.7971,-4.7807,-4.7909,-4.7997,-4.7952,-4.7982,-4.7668,-4.7354,-4.7337,-4.7396,-4.7439,-4.7596,-4.7852,-4.8091,-4.1311,-4.1311,-4.1311,-4.1311,-4.1311,-4.1311,-4.1023,-4.0644,-4.1063,-4.0971,-4.0461,-4.0474,-4.0252,-3.9808,-3.9769,-4.0066,-4.0484,-4.0419,-4.0694,-4.1217,-4.1232,-4.1259,-4.1311,-4.1311,-4.1311,-4.1311,-4.1311,-4.1311,-4.1311,-4.1311,-4.1311,-4.1311,-4.1311,-4.1311,-4.1311,-4.1311,-4.1311,-4.1311,-4.1311,-4.1311,-4.1311,-4.1311,-4.1461,-4.1696,-4.2328,-4.3109,-4.4172,-4.4726,-4.5558,-4.6624,-4.6726,-4.6857,-4.7207,-4.7294,-4.7309,-4.7309,-4.7309,-4.7309,-4.7309,-4.7309,-4.7309,-4.7309,-4.7309,-4.7563,-4.8117,-4.8805,-4.8626,-4.7788,-4.7952,-4.8132,-4.7549,-4.8431,-4.8925,-4.876,-4.9568,-5.0226,-5.0375,-5.0808,-5.1137,-5.1107,-5.0374,-4.9852,-4.9239,-4.897,-4.8716,-4.8208,-4.8104,-4.7806,-4.7183,-4.705,-4.6976,-4.7052,-4.7775,-4.8378,-4.8527,-4.9557,-5.0239,-5.0165,-4.9478,-4.9024,-4.8729,-4.8089,-4.7385,-4.7729,-4.7489,-4.7489,-4.7459,-4.7324,-4.7411,-4.7495,-4.7596,-4.7709,-4.8076,-4.8202,-4.8301,-4.1311,-4.1311,-4.1311,-4.1311,-4.1311,-4.1311,-4.118,-4.0984,-4.1193,-4.0971,-4.0461,-4.0409,-4.0488,-4.0605,-4.0618,-4.0749,-4.0945,-4.0945,-4.1076,-4.1298,-4.1311,-4.1311,-4.1311,-4.1311,-4.1311,-4.1311,-4.1311,-4.1311,-4.1311,-4.1311,-4.1311,-4.1311,-4.1311,-4.1311,-4.1311,-4.1311,-4.1311,-4.1311,-4.1311,-4.1311,-4.1311,-4.1461,-4.1895,-4.2555,-4.3012,-4.3904,-4.5021,-4.5477,-4.6032,-4.6829,-4.6931,-4.7019,-4.7294,-4.7309,-4.7309,-4.7309,-4.7309,-4.7309,-4.7309,-4.7309,-4.7309,-4.7309,-4.7309,-4.7593,-4.8207,-4.8536,-4.861,-4.8596,-4.906,-4.9179,-4.8581,-4.8611,-4.876,-4.888,-4.9359,-4.9808,-5.0181,-5.0779,-5.1229,-5.1169,-5.0599,-5.0106,-4.9853,-4.9508,-4.9224,-4.894,-4.8895,-4.8551,-4.7865,-4.7746,-4.7746,-4.7806,-4.8462,-4.8715,-4.8655,-4.9829,-5.0543,-5.0379,-4.9965,-4.9685,-4.9446,-4.8671,-4.7908,-4.7878,-4.7534,-4.7324,-4.7339,-4.7424,-4.751,-4.7624,-4.7794,-4.7964,-4.826,-4.8286,-4.8328,-4.1455,-4.1324,-4.1311,-4.1311,-4.1311,-4.1311,-4.1219,-4.1102,-4.1246,-4.0921,-4.0461,-4.0579,-4.0893,-4.1232,-4.0997,-4.0919,-4.105,-4.1076,-4.1167,-4.1298,-4.1311,-4.1311,-4.1311,-4.1311,-4.1311,-4.1311,-4.1311,-4.1311,-4.1311,-4.1311,-4.1311,-4.1311,-4.1311,-4.1311,-4.1311,-4.1311,-4.1311,-4.1311,-4.1311,-4.1311,-4.1311,-4.1511,-4.2079,-4.3039,-4.3634,-4.4527,-4.5732,-4.5957,-4.6373,-4.6975,-4.6975,-4.7019,-4.7309,-4.7309,-4.7309,-4.7309,-4.7309,-4.7309,-4.7309,-4.7309,-4.7309,-4.7309,-4.7309,-4.7668,-4.8356,-4.8551,-4.8955,-4.9718,-5.0242,-5.0167,-4.9329,-4.9,-4.9,-4.9314,-4.9389,-4.9748,-5.0151,-5.0779,-5.1229,-5.1169,-5.0794,-5.0465,-5.0375,-4.9987,-4.9568,-4.9538,-4.9523,-4.9299,-4.8745,-4.8566,-4.8551,-4.8581,-4.9119,-4.9329,-4.903,-5.0091,-5.081,-5.0629,-5.0345,-5.0061,-4.9956,-4.8925,-4.8297,-4.8042,-4.7682,-4.7575,-4.7782,-4.7824,-4.7752,-4.7837,-4.7964,-4.8202,-4.837,-4.837,-4.8453,-4.1808,-4.1337,-4.1311,-4.1311,-4.1311,-4.1311,-4.0997,-4.0631,-4.1076,-4.0984,-4.0579,-4.0997,-4.1285,-4.1246,-4.0331,-4.0017,-4.0448,-4.0553,-4.084,-4.1285,-4.1311,-4.1311,-4.1311,-4.1311,-4.1311,-4.1311,-4.1311,-4.1311,-4.1311,-4.1311,-4.1311,-4.1311,-4.1311,-4.1311,-4.1311,-4.1311,-4.1311,-4.1311,-4.1311,-4.1311,-4.1311,-4.1361,-4.1895,-4.2929,-4.3998,-4.4943,-4.5777,-4.6476,-4.696,-4.7266,-4.7019,-4.7019,-4.7266,-4.7309,-4.7309,-4.7309,-4.7309,-4.7309,-4.7309,-4.7309,-4.7309,-4.7309,-4.7309,-4.7833,-4.9015,-4.9164,-4.9673,-5.096,-5.1035,-5.0616,-4.9673,-4.9748,-4.9778,-4.9434,-4.9838,-5.0106,-5.0181,-5.0764,-5.1184,-5.1229,-5.1139,-5.1065,-5.1109,-5.0554,-5.0211,-5.0136,-5.0136,-4.9927,-4.9389,-4.9224,-4.9209,-4.9314,-4.9703,-5.0121,-5.0166,-5.0661,-5.1079,-5.1005,-5.0539,-5.0167,-4.9419,-4.8805,-4.8551,-4.831,-4.7977,-4.7959,-4.8287,-4.8339,-4.8143,-4.816,-4.8328,-4.8537,-4.848,-4.8563,-4.8563,-4.1507,-4.1311,-4.1311,-4.1311,-4.1311,-4.1311,-4.1193,-4.101,-4.1206,-4.1193,-4.105,-4.1219,-4.1311,-4.1285,-4.0893,-4.0814,-4.0984,-4.0997,-4.1115,-4.1311,-4.1311,-4.1311,-4.1311,-4.1311,-4.1311,-4.1311,-4.1311,-4.1311,-4.1311,-4.1311,-4.1311,-4.1311,-4.1311,-4.1311,-4.1311,-4.1311,-4.1311,-4.1311,-4.1311,-4.1547,-4.1954,-4.2164,-4.2798,-4.3932,-4.4092,-4.4883,-4.6269,-4.658,-4.68,-4.7019,-4.696,-4.7019,-4.7266,-4.7309,-4.7309,-4.7309,-4.7309,-4.7309,-4.7309,-4.7309,-4.7309,-4.7309,-4.7309,-4.7848,-4.9,-4.9344,-4.9808,-5.087,-5.1214,-5.093,-5.0646,-5.033,-5.0152,-4.9972,-5.0092,-5.0226,-5.0315,-5.0764,-5.1229,-5.1229,-5.1229,-5.1229,-5.1169,-5.0943,-5.0823,-5.0779,-5.0465,-5.0152,-4.9898,-4.9568,-4.9464,-4.9808,-5.0046,-5.0345,-5.0808,-5.1005,-5.1214,-5.1184,-5.096,-5.0933,-5.0469,-4.9823,-4.9524,-4.9568,-4.9038,-4.8341,-4.8624,-4.8596,-4.8412,-4.8412,-4.8563,-4.8563,-4.8604,-4.8604,-4.8604,-4.1481,-4.1324,-4.1311,-4.1311,-4.1311,-4.1311,-4.1311,-4.1311,-4.1311,-4.1311,-4.1311,-4.1311,-4.1311,-4.1311,-4.1311,-4.1311,-4.1311,-4.1311,-4.1311,-4.1311,-4.1311,-4.1311,-4.1311,-4.1311,-4.1311,-4.1311,-4.1311,-4.1311,-4.1311,-4.1311,-4.1311,-4.1311,-4.1311,-4.1311,-4.1311,-4.1311,-4.1311,-4.1311,-4.1311,-4.1634,-4.2333,-4.2674,-4.3444,-4.4573,-4.4545,-4.5021,-4.6403,-4.6639,-4.6771,-4.6887,-4.6975,-4.7106,-4.7266,-4.7309,-4.7309,-4.7309,-4.7309,-4.7309,-4.7309,-4.7309,-4.7309,-4.7309,-4.7324,-4.7803,-4.888,-4.9179,-4.9808,-5.0631,-5.1139,-5.1229,-5.1139,-5.081,-5.051,-5.051,-5.051,-5.051,-5.0539,-5.0913,-5.1184,-5.1229,-5.1229,-5.1229,-5.1229,-5.1214,-5.1033,-5.0898,-5.0435,-5.0226,-5.0121,-4.9912,-4.9808,-5.036,-5.051,-5.0734,-5.1035,-5.1169,-5.1214,-5.1184,-5.1216,-5.1324,-5.1269,-5.0725,-5.0501,-5.0577,-5.0135,-4.9268,-4.8834,-4.8775,-4.8729,-4.864,-4.8604,-4.8604,-4.8604,-4.8604,-4.8604,-4.1821,-4.1337,-4.1311,-4.1311,-4.1311,-4.1311,-4.1311,-4.1311,-4.1311,-4.1311,-4.1311,-4.1311,-4.1311,-4.1311,-4.1311,-4.1311,-4.1311,-4.1311,-4.1311,-4.1311,-4.1311,-4.1311,-4.1311,-4.1311,-4.1311,-4.1311,-4.1311,-4.1311,-4.1311,-4.1311,-4.1311,-4.1311,-4.1311,-4.1311,-4.1311,-4.1311,-4.1311,-4.1411,-4.1448,-4.1832,-4.2444,-4.2902,-4.3735,-4.5021,-4.5281,-4.5673,-4.6254,-4.6653,-4.6873,-4.6931,-4.7121,-4.7309,-4.7309,-4.7309,-4.7309,-4.7309,-4.7309,-4.7309,-4.7309,-4.7309,-4.7309,-4.7309,-4.7309,-4.7623,-4.8327,-4.891,-4.9494,-5.0211,-5.0749,-5.1154,-5.1199,-5.1154,-5.1109,-5.1184,-5.1109,-5.1109,-5.1154,-5.1199,-5.1229,-5.1229,-5.1229,-5.1229,-5.1229,-5.1229,-5.105,-5.0631,-5.0346,-5.0301,-5.0407,-5.0273,-5.0435,-5.0945,-5.105,-5.1079,-5.1169,-5.1229,-5.1214,-5.1199,-5.1231,-5.1309,-5.1302,-5.0985,-5.1122,-5.1166,-5.0445,-4.9616,-4.8772,-4.8741,-4.8802,-4.8773,-4.8712,-4.8604,-4.8604,-4.8604,-4.8759,-4.1834,-4.1337,-4.1311,-4.1311,-4.1311,-4.1311,-4.1311,-4.1311,-4.1311,-4.1311,-4.1311,-4.1311,-4.1311,-4.1311,-4.1311,-4.1311,-4.1311,-4.1311,-4.1311,-4.1311,-4.1311,-4.1311,-4.1311,-4.1311,-4.1311,-4.1311,-4.1311,-4.1311,-4.1311,-4.1311,-4.1311,-4.1311,-4.1311,-4.1311,-4.1311,-4.1311,-4.1498,-4.2079,-4.2248,-4.295,-4.4186,-4.4485,-4.5098,-4.5972,-4.621,-4.6343,-4.6491,-4.6624,-4.6756,-4.6887,-4.6975,-4.7106,-4.7251,-4.7309,-4.7309,-4.7309,-4.7309,-4.7309,-4.7309,-4.7309,-4.7309,-4.7309,-4.7309,-4.7623,-4.8162,-4.8461,-4.909,-4.9971,-5.0405,-5.0644,-5.1109,-5.1229,-5.1229,-5.1229,-5.1229,-5.1229,-5.1229,-5.1229,-5.1229,-5.1229,-5.1229,-5.1229,-5.1229,-5.1229,-5.1156,-5.1026,-5.0588,-5.0392,-5.1044,-5.0589,-5.0603,-5.1251,-5.1233,-5.1276,-5.1261,-5.1354,-5.1401,-5.1448,-5.1433,-5.1557,-5.15,-5.1486,-5.1668,-5.1376,-5.0695,-4.9907,-4.9086,-4.8804,-4.8927,-4.8804,-4.865,-4.8604,-4.8604,-4.8661,-4.8816,-4.1834,-4.1324,-4.1311,-4.1311,-4.1311,-4.1311,-4.1311,-4.1311,-4.1311,-4.1311,-4.1311,-4.1311,-4.1311,-4.1311,-4.1311,-4.1311,-4.1311,-4.1311,-4.1311,-4.1311,-4.1311,-4.1311,-4.1311,-4.1311,-4.1311,-4.1311,-4.1311,-4.1311,-4.1311,-4.1311,-4.1311,-4.1311,-4.1311,-4.1311,-4.1311,-4.1311,-4.1696,-4.2409,-4.2709,-4.3545,-4.4823,-4.5417,-4.5943,-4.6624,-4.6815,-4.6873,-4.6858,-4.6858,-4.6858,-4.6931,-4.696,-4.7121,-4.7266,-4.7309,-4.7309,-4.7309,-4.7309,-4.7309,-4.7309,-4.7309,-4.7309,-4.7309,-4.7309,-4.7459,-4.7893,-4.8087,-4.8805,-4.9658,-5.0076,-5.0465,-5.1018,-5.1229,-5.1229,-5.1229,-5.1229,-5.1229,-5.1229,-5.1229,-5.1229,-5.1229,-5.1229,-5.1276,-5.1308,-5.1214,-5.1188,-5.1148,-5.0741,-5.0393,-5.1106,-5.0864,-5.1059,-5.133,-5.1511,-5.1448,-5.1401,-5.1494,-5.1649,-5.168,-5.1665,-5.1849,-5.1942,-5.1941,-5.2032,-5.1524,-5.09,-5.0088,-4.9312,-4.9189,-4.9189,-4.8927,-4.8604,-4.8604,-4.8604,-4.8759,-4.8898,-4.1834,-4.1337,-4.1311,-4.1311,-4.1311,-4.1311,-4.1311,-4.1311,-4.1311,-4.1311,-4.1311,-4.1311,-4.1311,-4.1311,-4.1311,-4.1311,-4.1311,-4.1311,-4.1311,-4.1311,-4.1311,-4.1311,-4.1311,-4.1311,-4.1311,-4.1311,-4.1311,-4.1311,-4.1311,-4.1311,-4.1311,-4.1311,-4.1311,-4.1311,-4.1311,-4.1311,-4.1832,-4.259,-4.2937,-4.3876,-4.5218,-4.5703,-4.6211,-4.6931,-4.7121,-4.7222,-4.7222,-4.7222,-4.7164,-4.7004,-4.7164,-4.7266,-4.7309,-4.7309,-4.7309,-4.7309,-4.7309,-4.7309,-4.7309,-4.7309,-4.7309,-4.7309,-4.7309,-4.7309,-4.7459,-4.7863,-4.8401,-4.9179,-4.9748,-5.0345,-5.093,-5.1199,-5.1199,-5.1229,-5.1229,-5.1229,-5.1229,-5.1229,-5.1229,-5.1229,-5.1229,-5.1276,-5.1479,-5.1354,-5.1146,-5.0908,-5.0788,-5.0772,-5.0772,-5.0923,-5.106,-5.1332,-5.1665,-5.1695,-5.1602,-5.1695,-5.1849,-5.1941,-5.1941,-5.2079,-5.2169,-5.2153,-5.1877,-5.1396,-5.0897,-5.0159,-4.9574,-4.9266,-4.905,-4.8773,-4.862,-4.8604,-4.8661,-4.8759,-4.898,-4.1834,-4.1324,-4.1311,-4.1311,-4.1311,-4.1311,-4.1311,-4.1311,-4.1311,-4.1311,-4.1311,-4.1311,-4.1311,-4.1311,-4.1311,-4.1311,-4.1311,-4.1311,-4.1311,-4.1311,-4.1311,-4.1311,-4.1311,-4.1311,-4.1311,-4.1311,-4.1311,-4.1311,-4.1311,-4.1311,-4.1311,-4.1311,-4.1311,-4.1311,-4.1361,-4.1819,-4.2528,-4.3348,-4.4298,-4.5098,-4.6016,-4.6609,-4.6975,-4.7164,-4.7266,-4.7309,-4.7309,-4.7309,-4.7251,-4.7193,-4.7251,-4.7309,-4.7309,-4.7309,-4.7309,-4.7309,-4.7309,-4.7309,-4.7309,-4.7309,-4.7309,-4.7309,-4.7309,-4.7309,-4.7309,-4.7459,-4.7893,-4.8535,-4.9134,-4.9808,-5.0421,-5.0945,-5.1169,-5.1229,-5.1229,-5.1229,-5.1229,-5.1229,-5.1229,-5.1229,-5.1229,-5.1261,-5.1354,-5.1433,-5.1419,-5.1331,-5.1302,-5.1348,-5.1302,-5.1226,-5.1438,-5.156,-5.1787,-5.1849,-5.1849,-5.1956,-5.2033,-5.217,-5.2261,-5.2322,-5.2258,-5.2133,-5.1609,-5.099,-5.0466,-4.9805,-4.922,-4.8773,-4.8635,-4.8635,-4.862,-4.8604,-4.8661,-4.8816,-4.9047,-4.1611,-4.1311,-4.1311,-4.1311,-4.1311,-4.1311,-4.1311,-4.1311,-4.1311,-4.1311,-4.1311,-4.1311,-4.1311,-4.1311,-4.1311,-4.1311,-4.1311,-4.1311,-4.1311,-4.1311,-4.1311,-4.1311,-4.1311,-4.1311,-4.1311,-4.1311,-4.1311,-4.1311,-4.1311,-4.1311,-4.1311,-4.1311,-4.1311,-4.1311,-4.1361,-4.2052,-4.2819,-4.3634,-4.4776,-4.5793,-4.655,-4.7033,-4.7266,-4.7309,-4.7309,-4.7309,-4.7309,-4.7309,-4.7309,-4.7309,-4.7309,-4.7309,-4.7309,-4.7309,-4.7309,-4.7309,-4.7309,-4.7309,-4.7309,-4.7309,-4.7309,-4.7309,-4.7309,-4.7309,-4.7309,-4.7309,-4.7578,-4.8267,-4.888,-4.9523,-5.0136,-5.0779,-5.1169,-5.1229,-5.1229,-5.1229,-5.1229,-5.1229,-5.1229,-5.1229,-5.1214,-5.1261,-5.1354,-5.1494,-5.1634,-5.1757,-5.1835,-5.1865,-5.1895,-5.1834,-5.1772,-5.188,-5.2063,-5.2109,-5.2155,-5.2216,-5.2276,-5.2412,-5.2442,-5.2503,-5.2348,-5.2159,-5.1482,-5.082,-5.0143,-4.9512,-4.8974,-4.8604,-4.8604,-4.8604,-4.8604,-4.8661,-4.8759,-4.8883,-4.9128,-4.1311,-4.1311,-4.1311,-4.1311,-4.1311,-4.1311,-4.1311,-4.1311,-4.1311,-4.1311,-4.1311,-4.1311,-4.1311,-4.1311,-4.1311,-4.1311,-4.1311,-4.1311,-4.1311,-4.1311,-4.1311,-4.1311,-4.1311,-4.1311,-4.1311,-4.1311,-4.1311,-4.1311,-4.1311,-4.1311,-4.1311,-4.1311,-4.1311,-4.1311,-4.1547,-4.215,-4.2916,-4.3776,-4.5007,-4.5943,-4.658,-4.7033,-4.7309,-4.7309,-4.7309,-4.7309,-4.7309,-4.7309,-4.7309,-4.7309,-4.7309,-4.7309,-4.7309,-4.7309,-4.7309,-4.7309,-4.7309,-4.7309,-4.7309,-4.7309,-4.7309,-4.7309,-4.7309,-4.7309,-4.7309,-4.7324,-4.7519,-4.8012,-4.8865,-4.9583,-5.0346,-5.0883,-5.1169,-5.1229,-5.1229,-5.1229,-5.1229,-5.1229,-5.1229,-5.1229,-5.1229,-5.1308,-5.1494,-5.1634,-5.168,-5.1726,-5.1895,-5.2048,-5.2078,-5.2033,-5.1972,-5.2017,-5.2246,-5.2518,-5.2518,-5.2518,-5.2578,-5.2608,-5.2608,-5.2638,-5.247,-5.2159,-5.1482,-5.0805,-5.0143,-4.9451,-4.8804,-4.8604,-4.8604,-4.8604,-4.8604,-4.8759,-4.8914,-4.9087,-4.9275,-4.1311,-4.1311,-4.1311,-4.1311,-4.1311,-4.1311,-4.1311,-4.1311,-4.1311,-4.1311,-4.1311,-4.1311,-4.1311,-4.1311,-4.1311,-4.1311,-4.1311,-4.1311,-4.1311,-4.1311,-4.1311,-4.1311,-4.1311,-4.1311,-4.1311,-4.1311,-4.1311,-4.1311,-4.1311,-4.1311,-4.1311,-4.1311,-4.1311,-4.1411,-4.1696,-4.2604,-4.3505,-4.412,-4.5415,-4.6254,-4.658,-4.699,-4.7266,-4.7294,-4.7309,-4.7309,-4.7309,-4.7309,-4.7309,-4.7309,-4.7309,-4.7309,-4.7309,-4.7309,-4.7309,-4.7309,-4.7309,-4.7309,-4.7309,-4.7309,-4.7309,-4.7309,-4.7309,-4.7309,-4.7309,-4.7309,-4.7369,-4.7728,-4.8566,-4.9628,-5.0676,-5.1079,-5.1214,-5.1229,-5.1229,-5.1229,-5.1229,-5.1229,-5.1308,-5.1401,-5.1354,-5.1308,-5.1572,-5.1834,-5.1834,-5.1772,-5.1956,-5.2139,-5.22,-5.2216,-5.2216,-5.2246,-5.2337,-5.2548,-5.2608,-5.2608,-5.2669,-5.2713,-5.2713,-5.2529,-5.2406,-5.2159,-5.1482,-5.0805,-5.0143,-4.9435,-4.8681,-4.8604,-4.862,-4.8604,-4.8646,-4.8841,-4.9021,-4.9194,-4.9396,-4.1311,-4.1311,-4.1311,-4.1311,-4.1311,-4.1311,-4.1311,-4.1311,-4.1311,-4.1311,-4.1311,-4.1311,-4.1311,-4.1311,-4.1311,-4.1311,-4.1311,-4.1311,-4.1311,-4.1311,-4.1311,-4.1311,-4.1311,-4.1311,-4.1311,-4.1311,-4.1311,-4.1311,-4.1311,-4.1311,-4.1311,-4.1311,-4.1311,-4.1361,-4.1597,-4.2555,-4.328,-4.3885,-4.4897,-4.5792,-4.6491,-4.6683,-4.7033,-4.7207,-4.7309,-4.7309,-4.7309,-4.7309,-4.7309,-4.7309,-4.7309,-4.7309,-4.7309,-4.7309,-4.7309,-4.7309,-4.7309,-4.7309,-4.7309,-4.7309,-4.7309,-4.7309,-4.7309,-4.7309,-4.7309,-4.7309,-4.7309,-4.7504,-4.8237,-4.9314,-5.0539,-5.1063,-5.1184,-5.1229,-5.1229,-5.1229,-5.1229,-5.1323,-5.1401,-5.1587,-5.1587,-5.1541,-5.1741,-5.1972,-5.2017,-5.1956,-5.2246,-5.2473,-5.2473,-5.2488,-5.2488,-5.2473,-5.2503,-5.2548,-5.2669,-5.2669,-5.2669,-5.2713,-5.2713,-5.2406,-5.2113,-5.1836,-5.1482,-5.0743,-4.9974,-4.9266,-4.8609,-4.8635,-4.8676,-4.88,-4.8883,-4.9006,-4.9169,-4.9356,-4.9557,-4.1261,-4.1311,-4.1311,-4.1311,-4.1311,-4.1311,-4.1311,-4.1311,-4.1311,-4.1311,-4.1311,-4.1311,-4.1311,-4.1311,-4.1311,-4.1311,-4.1311,-4.1311,-4.1311,-4.1311,-4.1311,-4.1311,-4.1311,-4.1311,-4.1311,-4.1311,-4.1311,-4.1311,-4.1311,-4.1311,-4.1311,-4.1311,-4.1311,-4.1361,-4.156,-4.2128,-4.2833,-4.3491,-4.4359,-4.5204,-4.624,-4.6432,-4.6844,-4.7179,-4.7309,-4.7309,-4.7309,-4.7309,-4.7309,-4.7309,-4.7309,-4.7309,-4.7309,-4.7309,-4.7309,-4.7309,-4.7309,-4.7309,-4.7309,-4.7309,-4.7309,-4.7309,-4.7309,-4.7309,-4.7309,-4.7309,-4.7309,-4.7578,-4.8147,-4.909,-5.0076,-5.0808,-5.1169,-5.1229,-5.1229,-5.1229,-5.1276,-5.1448,-5.1634,-5.1695,-5.1787,-5.1834,-5.191,-5.2094,-5.2094,-5.2155,-5.2488,-5.2713,-5.2713,-5.2713,-5.2669,-5.2608,-5.2608,-5.2608,-5.2669,-5.2652,-5.2652,-5.2436,-5.2483,-5.2098,-5.1652,-5.1144,-5.0743,-5.042,-4.9743,-4.9112,-4.8753,-4.8733,-4.8857,-4.8996,-4.9103,-4.9169,-4.9356,-4.9557,-4.9717,-4.111,-4.1311,-4.1311,-4.1311,-4.1311,-4.1311,-4.1311,-4.1311,-4.1311,-4.1311,-4.1311,-4.1311,-4.1311,-4.1311,-4.1311,-4.1311,-4.1311,-4.1311,-4.1311,-4.1311,-4.1311,-4.1311,-4.1311,-4.1311,-4.1311,-4.1311,-4.1311,-4.1311,-4.1311,-4.1311,-4.1311,-4.1311,-4.1311,-4.1361,-4.1696,-4.2213,-4.259,-4.3266,-4.4219,-4.5144,-4.5853,-4.6609,-4.7077,-4.7309,-4.7309,-4.7309,-4.7309,-4.7309,-4.7309,-4.7309,-4.7309,-4.7309,-4.7309,-4.7309,-4.7309,-4.7309,-4.7309,-4.7309,-4.7309,-4.7309,-4.7309,-4.7309,-4.7309,-4.7309,-4.7309,-4.7309,-4.7309,-4.7608,-4.8356,-4.9404,-5.0106,-5.081,-5.1169,-5.1229,-5.1229,-5.1229,-5.1276,-5.1556,-5.1834,-5.1895,-5.1941,-5.2017,-5.2048,-5.2124,-5.2139,-5.2185,-5.2412,-5.2608,-5.2713,-5.2713,-5.2669,-5.2669,-5.2669,-5.2669,-5.2713,-5.2621,-5.2513,-5.2052,-5.1867,-5.1482,-5.099,-5.0328,-4.9897,-4.9697,-4.9616,-4.9345,-4.9094,-4.8919,-4.9021,-4.9225,-4.9291,-4.9316,-4.9517,-4.9677,-4.9717,-4.0997,-4.111,-4.1261,-4.1311,-4.1311,-4.1311,-4.1311,-4.1311,-4.1311,-4.1311,-4.1311,-4.1311,-4.1311,-4.1311,-4.1311,-4.1311,-4.1311,-4.1311,-4.1311,-4.1311,-4.1311,-4.1311,-4.1311,-4.1311,-4.1311,-4.1311,-4.1311,-4.1311,-4.1311,-4.1311,-4.1311,-4.1311,-4.1311,-4.1361,-4.1498,-4.1696,-4.2409,-4.317,-4.3951,-4.4975,-4.5943,-4.6931,-4.7266,-4.7309,-4.7309,-4.7309,-4.7309,-4.7309,-4.7309,-4.7309,-4.7309,-4.7309,-4.7309,-4.7309,-4.7309,-4.7309,-4.7309,-4.7309,-4.7309,-4.7309,-4.7309,-4.7309,-4.7309,-4.7309,-4.7309,-4.7309,-4.7309,-4.7593,-4.8491,-4.9419,-4.9703,-5.0616,-5.1139,-5.1229,-5.1229,-5.1229,-5.1276,-5.1602,-5.1772,-5.1941,-5.2155,-5.22,-5.2063,-5.2139,-5.217,-5.2261,-5.2352,-5.2503,-5.2669,-5.2713,-5.2713,-5.2713,-5.2698,-5.2637,-5.256,-5.2375,-5.2067,-5.1621,-5.1236,-5.0851,-5.0436,-4.9835,-4.942,-4.9143,-4.9134,-4.929,-4.9218,-4.9021,-4.921,-4.9412,-4.9437,-4.9517,-4.9677,-4.9757,-4.9797,-4.0782,-4.0933,-4.1097,-4.1261,-4.1311,-4.1311,-4.1311,-4.1311,-4.1311,-4.1311,-4.1311,-4.1311,-4.1311,-4.1311,-4.1311,-4.1311,-4.1311,-4.1311,-4.1311,-4.1311,-4.1311,-4.1311,-4.1311,-4.1311,-4.1311,-4.1311,-4.1311,-4.1311,-4.1311,-4.1311,-4.1311,-4.1311,-4.1311,-4.1311,-4.1361,-4.1647,-4.2422,-4.2978,-4.3729,-4.4759,-4.6343,-4.7092,-4.7309,-4.7309,-4.7309,-4.7309,-4.7309,-4.7309,-4.7309,-4.7309,-4.7309,-4.7309,-4.7309,-4.7309,-4.7309,-4.7309,-4.7309,-4.7309,-4.7309,-4.7309,-4.7309,-4.7309,-4.7309,-4.7309,-4.7309,-4.7309,-4.7324,-4.7519,-4.8267,-4.9164,-4.9449,-5.0331,-5.096,-5.1229,-5.1229,-5.1229,-5.1261,-5.1403,-5.1514,-5.1789,-5.2229,-5.2229,-5.2063,-5.2139,-5.2215,-5.2185,-5.2276,-5.2352,-5.2518,-5.2669,-5.2713,-5.2713,-5.2667,-5.256,-5.2359,-5.2021,-5.1559,-5.0928,-5.0574,-5.0236,-4.9835,-4.9404,-4.9081,-4.8804,-4.897,-4.9109,-4.9109,-4.9225,-4.9412,-4.9557,-4.9637,-4.9717,-4.9797,-4.9836,-4.9876,-4.0478,-4.0883,-4.0946,-4.1047,-4.1261,-4.1311,-4.1311,-4.1311,-4.1311,-4.1311,-4.1311,-4.1311,-4.1311,-4.1311,-4.1311,-4.1311,-4.1311,-4.1311,-4.1311,-4.1311,-4.1311,-4.1311,-4.1311,-4.1311,-4.1311,-4.1311,-4.1311,-4.1311,-4.1311,-4.1311,-4.1311,-4.1311,-4.1311,-4.1311,-4.1361,-4.1881,-4.2395,-4.284,-4.4238,-4.5793,-4.6931,-4.7266,-4.7309,-4.7309,-4.7309,-4.7309,-4.7309,-4.7309,-4.7309,-4.7309,-4.7309,-4.7309,-4.7309,-4.7309,-4.7309,-4.7309,-4.7309,-4.7309,-4.7309,-4.7309,-4.7309,-4.7309,-4.7309,-4.7309,-4.7309,-4.7309,-4.7309,-4.7339,-4.8042,-4.8641,-4.9164,-4.9927,-5.0524,-5.0928,-5.1169,-5.1199,-5.1214,-5.1023,-5.1149,-5.1091,-5.1363,-5.1742,-5.188,-5.2063,-5.2215,-5.2185,-5.2155,-5.2261,-5.2412,-5.2608,-5.2713,-5.2713,-5.2467,-5.2313,-5.1929,-5.1621,-5.1036,-5.0313,-4.9928,-4.962,-4.9328,-4.902,-4.8866,-4.8707,-4.8898,-4.9078,-4.9184,-4.9372,-4.9597,-4.9717,-4.9757,-4.9836,-4.9876,-4.9916,-4.9916,-4.0185,-4.0694,-4.0833,-4.1047,-4.1274,-4.1311,-4.1311,-4.1311,-4.1311,-4.1311,-4.1311,-4.1311,-4.1311,-4.1311,-4.1311,-4.1311,-4.1311,-4.1311,-4.1311,-4.1311,-4.1311,-4.1311,-4.1311,-4.1311,-4.1311,-4.1311,-4.1311,-4.1311,-4.1311,-4.1311,-4.1311,-4.1311,-4.1311,-4.1311,-4.1448,-4.2065,-4.2722,-4.3654,-4.5144,-4.6535,-4.7121,-4.7309,-4.7309,-4.7309,-4.7309,-4.7309,-4.7309,-4.7309,-4.7309,-4.7309,-4.7309,-4.7309,-4.7309,-4.7309,-4.7309,-4.7309,-4.7309,-4.7309,-4.7309,-4.7309,-4.7309,-4.7309,-4.7309,-4.7309,-4.7309,-4.7309,-4.7309,-4.7324,-4.7908,-4.8416,-4.8865,-4.9658,-5.0151,-5.0599,-5.0928,-5.1109,-5.105,-5.0767,-5.065,-5.0547,-5.0472,-5.0848,-5.1149,-5.1317,-5.1561,-5.1926,-5.1926,-5.2048,-5.229,-5.2563,-5.2669,-5.2713,-5.2359,-5.199,-5.1498,-5.1067,-5.0466,-4.982,-4.9328,-4.905,-4.8866,-4.8635,-4.8604,-4.8728,-4.8949,-4.9113,-4.9275,-4.9477,-4.9677,-4.9797,-4.9876,-4.9916,-4.9916,-4.9955,-5.0034,-4.0006,-4.0389,-4.0681,-4.0933,-4.1211,-4.1261,-4.1261,-4.1211,-4.1261,-4.1311,-4.1311,-4.1311,-4.1311,-4.1311,-4.1311,-4.1311,-4.1311,-4.1311,-4.1311,-4.1311,-4.1311,-4.1311,-4.1311,-4.1311,-4.1311,-4.1311,-4.1311,-4.1311,-4.1311,-4.1311,-4.1311,-4.1311,-4.1311,-4.1448,-4.1769,-4.2528,-4.3416,-4.4854,-4.6077,-4.6931,-4.7266,-4.7309,-4.7309,-4.7309,-4.7309,-4.7309,-4.7309,-4.7309,-4.7309,-4.7309,-4.7309,-4.7309,-4.7309,-4.7309,-4.7309,-4.7309,-4.7309,-4.7309,-4.7309,-4.7309,-4.7309,-4.7309,-4.7309,-4.7309,-4.7309,-4.7309,-4.7309,-4.7309,-4.7638,-4.8027,-4.8476,-4.9344,-4.9912,-5.027,-5.0614,-5.084,-5.087,-5.0377,-4.9899,-4.9614,-4.9552,-4.9713,-4.9998,-5.0272,-5.0757,-5.144,-5.1698,-5.1789,-5.1985,-5.2195,-5.2147,-5.2069,-5.179,-5.1328,-5.082,-5.0328,-4.9774,-4.9404,-4.8927,-4.8681,-4.862,-4.8604,-4.8604,-4.8769,-4.8975,-4.9097,-4.9235,-4.9477,-4.9733,-4.9836,-4.9916,-4.9916,-4.9916,-4.9995,-5.0331,-3.989,-4.0134,-4.0402,-4.0694,-4.0933,-4.1211,-4.1147,-4.0997,-4.1211,-4.1311,-4.1311,-4.1311,-4.1311,-4.1311,-4.1311,-4.1311,-4.1311,-4.1311,-4.1311,-4.1311,-4.1311,-4.1311,-4.1311,-4.1311,-4.1311,-4.1311,-4.1311,-4.1311,-4.1311,-4.1311,-4.1311,-4.1311,-4.1361,-4.172,-4.2333,-4.3129,-4.4499,-4.5808,-4.6741,-4.7019,-4.7251,-4.7309,-4.7309,-4.7309,-4.7309,-4.7309,-4.7309,-4.7309,-4.7309,-4.7309,-4.7309,-4.7309,-4.7309,-4.7309,-4.7309,-4.7309,-4.7309,-4.7309,-4.7309,-4.7309,-4.7309,-4.7309,-4.7309,-4.7309,-4.7309,-4.7309,-4.7309,-4.7309,-4.7504,-4.7713,-4.8222,-4.8895,-4.9464,-4.9793,-5.0032,-5.0227,-5.0122,-4.9673,-4.9239,-4.8744,-4.8651,-4.884,-4.9063,-4.9366,-5.0091,-5.0773,-5.0925,-5.0985,-5.116,-5.132,-5.1212,-5.1118,-5.0959,-5.0543,-5.0005,-4.9574,-4.9312,-4.9097,-4.8758,-4.8635,-4.8604,-4.8604,-4.8604,-4.8687,-4.8852,-4.9015,-4.9219,-4.9517,-4.9773,-4.9836,-4.9955,-5.0175,-5.0393,-5.0586,-5.1005,-3.9826,-4.0134,-4.0236,-4.0389,-4.0694,-4.111,-4.1147,-4.0997,-4.1211,-4.1311,-4.1311,-4.1311,-4.1311,-4.1311,-4.1311,-4.1311,-4.1311,-4.1311,-4.1311,-4.1311,-4.1311,-4.1311,-4.1311,-4.1311,-4.1311,-4.1311,-4.1311,-4.1311,-4.1311,-4.1311,-4.1311,-4.1311,-4.1448,-4.1647,-4.2346,-4.3559,-4.5021,-4.6002,-4.6785,-4.7193,-4.7251,-4.7309,-4.7309,-4.7309,-4.7309,-4.7309,-4.7309,-4.7309,-4.7309,-4.7309,-4.7309,-4.7309,-4.7309,-4.7309,-4.7309,-4.7309,-4.7309,-4.7309,-4.7309,-4.7309,-4.7309,-4.7309,-4.7309,-4.7309,-4.7309,-4.7309,-4.7309,-4.7309,-4.7309,-4.7519,-4.7668,-4.8252,-4.8775,-4.9075,-4.9344,-4.9568,-4.9419,-4.9,-4.8715,-4.831,-4.8096,-4.8059,-4.8298,-4.8568,-4.9322,-5.0047,-5.0123,-5.0227,-5.0367,-5.0524,-5.0506,-5.0365,-5.022,-5.0082,-4.9589,-4.9251,-4.8958,-4.8773,-4.8604,-4.8604,-4.8604,-4.8604,-4.8604,-4.8646,-4.8769,-4.899,-4.9275,-4.9613,-4.9812,-4.9916,-5.0253,-5.0647,-5.0876,-5.1194,-5.1639,-3.9685,-3.9865,-4.0019,-4.0185,-4.044,-4.0946,-4.0997,-4.0896,-4.1147,-4.1311,-4.1311,-4.1311,-4.1311,-4.1311,-4.1311,-4.1311,-4.1311,-4.1311,-4.1311,-4.1311,-4.1311,-4.1311,-4.1311,-4.1311,-4.1311,-4.1311,-4.1311,-4.1311,-4.1311,-4.1311,-4.1311,-4.1411,-4.1647,-4.1895,-4.2493,-4.3715,-4.5081,-4.5927,-4.6476,-4.7164,-4.7222,-4.7309,-4.7309,-4.7309,-4.7309,-4.7309,-4.7309,-4.7309,-4.7309,-4.7309,-4.7309,-4.7309,-4.7309,-4.7309,-4.7309,-4.7309,-4.7309,-4.7309,-4.7309,-4.7309,-4.7309,-4.7309,-4.7309,-4.7309,-4.7309,-4.7309,-4.7309,-4.7309,-4.7309,-4.7309,-4.7354,-4.7952,-4.8356,-4.8686,-4.879,-4.8955,-4.876,-4.8416,-4.8177,-4.7906,-4.7752,-4.7714,-4.7804,-4.8104,-4.8571,-4.9325,-4.9777,-4.9683,-4.9481,-4.9684,-4.9868,-4.9723,-4.9543,-4.9435,-4.9312,-4.902,-4.8789,-4.8743,-4.8604,-4.8604,-4.8604,-4.8604,-4.8604,-4.862,-4.8785,-4.9006,-4.9331,-4.9653,-4.9836,-4.9995,-5.0509,-5.1102,-5.1659,-5.1967,-5.2255,-3.931,-3.9374,-3.9865,-4.007,-4.0185,-4.0681,-4.0795,-4.0656,-4.1047,-4.1311,-4.1311,-4.1311,-4.1311,-4.1311,-4.1311,-4.1311,-4.1311,-4.1311,-4.1311,-4.1311,-4.1311,-4.1311,-4.1311,-4.1311,-4.1311,-4.1311,-4.1311,-4.1311,-4.1311,-4.1311,-4.1311,-4.1511,-4.1895,-4.2324,-4.2833,-4.4026,-4.5201,-4.6031,-4.621,-4.6815,-4.7179,-4.7309,-4.7309,-4.7309,-4.7309,-4.7309,-4.7309,-4.7309,-4.7309,-4.7309,-4.7309,-4.7309,-4.7309,-4.7309,-4.7309,-4.7309,-4.7309,-4.7309,-4.7309,-4.7309,-4.7309,-4.7309,-4.7309,-4.7309,-4.7309,-4.7309,-4.7309,-4.7309,-4.7309,-4.7309,-4.7519,-4.7788,-4.8042,-4.8177,-4.8267,-4.8267,-4.8072,-4.7967,-4.7728,-4.7667,-4.7632,-4.7596,-4.7596,-4.7716,-4.8002,-4.8544,-4.9221,-4.923,-4.8874,-4.8936,-4.9212,-4.9247,-4.9081,-4.902,-4.8958,-4.8789,-4.862,-4.8604,-4.8604,-4.8604,-4.8604,-4.8604,-4.8604,-4.862,-4.8908,-4.9235,-4.9477,-4.9677,-5.0198,-5.08,-5.1065,-5.1623,-5.2183,-5.2626,-5.2852,-3.9438,-3.9581,-3.9569,-3.9672,-3.9929,-4.0593,-4.0833,-4.0846,-4.1097,-4.1311,-4.1311,-4.1311,-4.1311,-4.1311,-4.1311,-4.1311,-4.1311,-4.1311,-4.1311,-4.1311,-4.1311,-4.1311,-4.1311,-4.1311,-4.1311,-4.1311,-4.1311,-4.1311,-4.1311,-4.1311,-4.1311,-4.1511,-4.2275,-4.2798,-4.3232,-4.4167,-4.5233,-4.5642,-4.6284,-4.7077,-4.7266,-4.7309,-4.7309,-4.7309,-4.7309,-4.7309,-4.7309,-4.7309,-4.7309,-4.7309,-4.7309,-4.7309,-4.7309,-4.7309,-4.7309,-4.7309,-4.7309,-4.7309,-4.7309,-4.7309,-4.7309,-4.7309,-4.7309,-4.7309,-4.7309,-4.7309,-4.7309,-4.7309,-4.7309,-4.7309,-4.7414,-4.7459,-4.7593,-4.7593,-4.7638,-4.7638,-4.7534,-4.7489,-4.7384,-4.7442,-4.7467,-4.7553,-4.7596,-4.751,-4.7692,-4.7795,-4.838,-4.8685,-4.8462,-4.8496,-4.8661,-4.8756,-4.8727,-4.8681,-4.8604,-4.8604,-4.8604,-4.8604,-4.8604,-4.8604,-4.8604,-4.8604,-4.8604,-4.8604,-4.9072,-4.9517,-4.986,-5.0315,-5.1161,-5.1733,-5.1915,-5.2236,-5.2782,-5.3127,-5.3246,-3.9322,-3.9542,-3.9478,-3.9581,-3.9942,-4.0491,-4.0846,-4.1047,-4.1211,-4.1311,-4.1311,-4.1311,-4.1311,-4.1311,-4.1311,-4.1311,-4.1311,-4.1311,-4.1311,-4.1311,-4.1311,-4.1311,-4.1311,-4.1311,-4.1311,-4.1311,-4.1311,-4.1311,-4.1311,-4.1311,-4.1547,-4.2029,-4.2736,-4.328,-4.379,-4.462,-4.5264,-4.5687,-4.6432,-4.6946,-4.7179,-4.7309,-4.7309,-4.7309,-4.7309,-4.7309,-4.7309,-4.7309,-4.7309,-4.7309,-4.7309,-4.7309,-4.7309,-4.7309,-4.7309,-4.7309,-4.7309,-4.7309,-4.7309,-4.7309,-4.7309,-4.7309,-4.7309,-4.7309,-4.7309,-4.7309,-4.7309,-4.7309,-4.7309,-4.7309,-4.7309,-4.7309,-4.7309,-4.7324,-4.7324,-4.7339,-4.7339,-4.7309,-4.7309,-4.7337,-4.7381,-4.7467,-4.751,-4.7424,-4.7427,-4.7441,-4.7527,-4.7794,-4.8118,-4.8244,-4.837,-4.848,-4.8563,-4.8604,-4.8604,-4.8604,-4.8604,-4.8604,-4.8604,-4.8604,-4.8604,-4.8604,-4.8604,-4.8687,-4.9178,-4.9741,-5.0393,-5.1027,-5.1733,-5.2255,-5.2555,-5.2938,-5.3433,-5.3518,-5.3518,-3.8998,-3.931,-3.9594,-3.9788,-4.0083,-4.0338,-4.0808,-4.1261,-4.1261,-4.1261,-4.1311,-4.1311,-4.1311,-4.1311,-4.1311,-4.1311,-4.1311,-4.1311,-4.1311,-4.1311,-4.1311,-4.1311,-4.1311,-4.1311,-4.1311,-4.1311,-4.1311,-4.1311,-4.1311,-4.1484,-4.1967,-4.2639,-4.33,-4.3918,-4.462,-4.5233,-4.5687,-4.6061,-4.6432,-4.6887,-4.7207,-4.7309,-4.7309,-4.7309,-4.7309,-4.7309,-4.7309,-4.7309,-4.7309,-4.7309,-4.7309,-4.7309,-4.7309,-4.7309,-4.7309,-4.7309,-4.7309,-4.7309,-4.7309,-4.7309,-4.7309,-4.7309,-4.7309,-4.7309,-4.7309,-4.7309,-4.7309,-4.7309,-4.7309,-4.7309,-4.7309,-4.7309,-4.7309,-4.7309,-4.7309,-4.7309,-4.7309,-4.7309,-4.7309,-4.7309,-4.7309,-4.7352,-4.7352,-4.7309,-4.7309,-4.7352,-4.7424,-4.7581,-4.7922,-4.8202,-4.8328,-4.8453,-4.8537,-4.8563,-4.8604,-4.8604,-4.8604,-4.8604,-4.8604,-4.8604,-4.8604,-4.8646,-4.8728,-4.8934,-4.9381,-5.0042,-5.1065,-5.1696,-5.2183,-5.2642,-5.2938,-5.3127,-5.3467,-5.3518,-5.3518,-3.8958,-3.953,-3.9218,-3.9362,-3.9839,-4.0096,-4.0656,-4.1211,-4.111,-4.1097,-4.1311,-4.1311,-4.1311,-4.1311,-4.1311,-4.1311,-4.1311,-4.1311,-4.1311,-4.1311,-4.1311,-4.1311,-4.1311,-4.1311,-4.1311,-4.1311,-4.1311,-4.1311,-4.1448,-4.167,-4.2199,-4.2833,-4.3984,-4.4823,-4.5537,-4.624,-4.6284,-4.6388,-4.6712,-4.699,-4.7207,-4.7309,-4.7309,-4.7266,-4.7309,-4.7309,-4.7266,-4.7266,-4.7266,-4.7309,-4.7309,-4.7309,-4.7309,-4.7309,-4.7309,-4.7309,-4.7309,-4.7309,-4.7309,-4.7309,-4.7309,-4.7309,-4.7309,-4.7309,-4.7309,-4.7309,-4.7309,-4.7309,-4.7309,-4.7309,-4.7309,-4.7309,-4.7309,-4.7309,-4.7309,-4.7309,-4.7309,-4.7309,-4.7309,-4.7309,-4.7309,-4.7309,-4.7309,-4.7309,-4.7309,-4.7309,-4.7396,-4.751,-4.7752,-4.8049,-4.8286,-4.8412,-4.8537,-4.8563,-4.8604,-4.8604,-4.8604,-4.8604,-4.8604,-4.8604,-4.8604,-4.8687,-4.8852,-4.9219,-4.9725,-5.08,-5.2004,-5.243,-5.2485,-5.2903,-5.3195,-5.3348,-5.3467,-5.3467,-5.3518,-3.8841,-3.9426,-3.9166,-3.9374,-3.9942,-3.9929,-4.0453,-4.1161,-4.1047,-4.1047,-4.1261,-4.1311,-4.1311,-4.1311,-4.1311,-4.1311,-4.1311,-4.1311,-4.1311,-4.1311,-4.1311,-4.1311,-4.1311,-4.1311,-4.1311,-4.1311,-4.1311,-4.1311,-4.1547,-4.2101,-4.2687,-4.3715,-4.4946,-4.5522,-4.6151,-4.6727,-4.6931,-4.6946,-4.7033,-4.7266,-4.7309,-4.7309,-4.7266,-4.7164,-4.7193,-4.7251,-4.7164,-4.7164,-4.7164,-4.7266,-4.7266,-4.7207,-4.7266,-4.7309,-4.7309,-4.7309,-4.7309,-4.7309,-4.7309,-4.7309,-4.7309,-4.7309,-4.7309,-4.7309,-4.7309,-4.7309,-4.7309,-4.7309,-4.7309,-4.7309,-4.7309,-4.7309,-4.7309,-4.7309,-4.7309,-4.7309,-4.7309,-4.7309,-4.7309,-4.7309,-4.7309,-4.7309,-4.7309,-4.7309,-4.7309,-4.7309,-4.7309,-4.7396,-4.7596,-4.788,-4.8133,-4.8328,-4.8495,-4.8604,-4.8604,-4.8604,-4.8604,-4.8604,-4.8604,-4.8604,-4.8604,-4.8687,-4.8893,-4.9446,-5.012,-5.1065,-5.1931,-5.2378,-5.2607,-5.2972,-5.3314,-5.3433,-5.3467,-5.3467,-5.3518,-3.8736,-3.931,-3.931,-3.9736,-4.0313,-3.989,-4.03,-4.1161,-4.0946,-4.1047,-4.1261,-4.1311,-4.1311,-4.1311,-4.1311,-4.1311,-4.1311,-4.1311,-4.1311,-4.1311,-4.1311,-4.1311,-4.1311,-4.1311,-4.1311,-4.1311,-4.1448,-4.1733,-4.1782,-4.2395,-4.3382,-4.4638,-4.513,-4.5703,-4.6491,-4.699,-4.7207,-4.7222,-4.7222,-4.7309,-4.7309,-4.7266,-4.7164,-4.7004,-4.7062,-4.7149,-4.6931,-4.6931,-4.6975,-4.7077,-4.7121,-4.7077,-4.7207,-4.7309,-4.7309,-4.7309,-4.7309,-4.7309,-4.7309,-4.7309,-4.7309,-4.7309,-4.7309,-4.7309,-4.7309,-4.7309,-4.7309,-4.7309,-4.7309,-4.7309,-4.7309,-4.7309,-4.7309,-4.7309,-4.7309,-4.7309,-4.7309,-4.7309,-4.7309,-4.7309,-4.7309,-4.7309,-4.7309,-4.7309,-4.7352,-4.7352,-4.7352,-4.7396,-4.751,-4.781,-4.8007,-4.8244,-4.837,-4.8521,-4.8604,-4.8604,-4.8604,-4.8604,-4.8604,-4.8604,-4.8604,-4.8728,-4.8934,-4.9566,-5.0237,-5.0723,-5.1364,-5.2004,-5.2572,-5.2903,-5.3161,-5.3399,-5.3467,-5.3467,-5.3518,-3.8566,-3.931,-3.953,-3.9736,-3.9839,-3.9749,-4.0057,-4.0656,-4.0643,-4.0846,-4.1211,-4.1311,-4.1311,-4.1311,-4.1311,-4.1311,-4.1311,-4.1311,-4.1311,-4.1311,-4.1311,-4.1311,-4.1311,-4.1311,-4.1311,-4.1498,-4.1819,-4.2248,-4.2798,-4.3266,-4.3743,-4.468,-4.525,-4.5898,-4.6594,-4.7048,-4.7309,-4.7309,-4.7309,-4.7309,-4.7309,-4.7251,-4.7149,-4.7019,-4.6975,-4.6887,-4.6756,-4.6668,-4.68,-4.6931,-4.6931,-4.7077,-4.7266,-4.7309,-4.7309,-4.7309,-4.7309,-4.7309,-4.7309,-4.7309,-4.7309,-4.7309,-4.7309,-4.7309,-4.7309,-4.7309,-4.7309,-4.7309,-4.7309,-4.7309,-4.7309,-4.7309,-4.7309,-4.7309,-4.7309,-4.7309,-4.7309,-4.7309,-4.7309,-4.7309,-4.7309,-4.7309,-4.7337,-4.7337,-4.7396,-4.7467,-4.751,-4.7538,-4.7581,-4.7794,-4.7937,-4.8133,-4.8286,-4.8412,-4.8521,-4.8604,-4.8604,-4.8604,-4.8604,-4.8604,-4.8604,-4.8811,-4.9056,-4.9725,-5.0299,-5.0761,-5.129,-5.2004,-5.2537,-5.2834,-5.3058,-5.328,-5.3433,-5.3467,-5.3467,-3.8356,-3.8945,-3.9362,-3.9685,-3.9826,-3.9749,-4.0044,-4.0593,-4.0555,-4.0808,-4.1261,-4.1311,-4.1311,-4.1311,-4.1311,-4.1311,-4.1311,-4.1311,-4.1311,-4.1311,-4.1311,-4.1311,-4.1311,-4.1311,-4.1311,-4.1448,-4.1733,-4.2297,-4.3457,-4.3695,-4.4026,-4.5064,-4.5687,-4.6091,-4.6639,-4.7048,-4.7309,-4.7309,-4.7309,-4.7309,-4.7309,-4.7251,-4.7164,-4.6975,-4.6887,-4.6771,-4.6639,-4.655,-4.6624,-4.6829,-4.7019,-4.7121,-4.7266,-4.7309,-4.7309,-4.7309,-4.7309,-4.7309,-4.7309,-4.7309,-4.7309,-4.7309,-4.7309,-4.7309,-4.7309,-4.7309,-4.7309,-4.7309,-4.7309,-4.7309,-4.7309,-4.7309,-4.7309,-4.7309,-4.7309,-4.7309,-4.7309,-4.7309,-4.7309,-4.7309,-4.7309,-4.7309,-4.7309,-4.7337,-4.7381,-4.7482,-4.7553,-4.7538,-4.7624,-4.7752,-4.788,-4.8049,-4.826,-4.8412,-4.8521,-4.8604,-4.8604,-4.8604,-4.8604,-4.8604,-4.8604,-4.8893,-4.9219,-4.9725,-5.0237,-5.0701,-5.1306,-5.1967,-5.2501,-5.2834,-5.2972,-5.3127,-5.328,-5.3399,-5.3382,-3.8198,-3.8514,-3.905,-3.9569,-3.9968,-3.9788,-4.0147,-4.0732,-4.0605,-4.0808,-4.1261,-4.1311,-4.1311,-4.1311,-4.1311,-4.1311,-4.1311,-4.1311,-4.1311,-4.1311,-4.1311,-4.1311,-4.1348,-4.1448,-4.1634,-4.1931,-4.2213,-4.2929,-4.3837,-4.3932,-4.4448,-4.5685,-4.615,-4.6403,-4.6639,-4.6946,-4.7207,-4.7207,-4.7251,-4.7309,-4.7309,-4.7309,-4.7121,-4.6975,-4.6887,-4.6771,-4.6535,-4.6403,-4.6432,-4.6653,-4.6975,-4.7077,-4.7164,-4.7207,-4.7266,-4.7266,-4.7309,-4.7309,-4.7309,-4.7309,-4.7309,-4.7309,-4.7309,-4.7309,-4.7309,-4.7309,-4.7309,-4.7309,-4.7309,-4.7309,-4.7309,-4.7309,-4.7309,-4.7309,-4.7309,-4.7309,-4.7309,-4.7309,-4.7309,-4.7309,-4.7309,-4.7309,-4.7309,-4.7294,-4.7381,-4.751,-4.7553,-4.751,-4.7538,-4.7666,-4.7794,-4.8049,-4.8301,-4.8453,-4.8563,-4.8604,-4.8604,-4.8604,-4.8604,-4.8604,-4.8646,-4.8769,-4.9056,-4.9557,-5.0058,-5.0663,-5.1231,-5.1858,-5.2343,-5.2799,-5.2834,-5.2955,-5.3093,-5.3195,-5.323,-3.8303,-3.8736,-3.9154,-3.9478,-3.9736,-3.9749,-4.0044,-4.0504,-4.0555,-4.0808,-4.1161,-4.1311,-4.1311,-4.1311,-4.1311,-4.1311,-4.1311,-4.1311,-4.1311,-4.1311,-4.1311,-4.1311,-4.1398,-4.1634,-4.2493,-4.2771,-4.3108,-4.4045,-4.4073,-4.4167,-4.4741,-4.5835,-4.5233,-4.5597,-4.6358,-4.6668,-4.6975,-4.7019,-4.7121,-4.7207,-4.7266,-4.7207,-4.7121,-4.6946,-4.6771,-4.6535,-4.6269,-4.6046,-4.6135,-4.6314,-4.6624,-4.6858,-4.699,-4.7062,-4.7121,-4.7266,-4.7309,-4.7309,-4.7309,-4.7309,-4.7309,-4.7309,-4.7309,-4.7309,-4.7309,-4.7309,-4.7309,-4.7309,-4.7309,-4.7309,-4.7309,-4.7309,-4.7309,-4.7309,-4.7309,-4.7309,-4.7309,-4.7309,-4.7309,-4.7309,-4.7309,-4.7309,-4.7309,-4.7337,-4.7424,-4.751,-4.751,-4.7495,-4.7553,-4.7666,-4.7752,-4.8007,-4.8301,-4.8453,-4.8563,-4.8563,-4.8604,-4.8604,-4.8604,-4.8687,-4.8687,-4.8604,-4.8934,-4.9805,-5.0292,-5.0778,-5.1343,-5.1984,-5.2252,-5.264,-5.2624,-5.2746,-5.2903,-5.3041,-5.311]}]]